<?xml version="1.0" encoding="UTF-8" standalone="no" ?>
<gpx xmlns="http://www.topografix.com/GPX/1/1" xmlns:xsi="http://www.w3.org/2001/XMLSchema-instance" xsi:schemaLocation="http://www.topografix.com/GPX/1/1 http://www.topografix.com/GPX/1/1/gpx.xsd" version="1.1" creator="VisuGPX - https://www.visugpx.com">
  <metadata>
    <name>tour du lac de Monteynard</name>
    <desc><![CDATA[grand tour pour le printemps, c\'est de la remise en forme]]></desc>
  </metadata>
  <trk>
    <name><![CDATA[TT1-F]]></name>
    <trkseg>
      <trkpt lat="44.95961" lon="5.68761">
        <ele>595</ele>
        <time>2010-04-30T09:19:07Z</time>
      </trkpt>
      <trkpt lat="44.95962" lon="5.68758">
        <ele>595</ele>
        <time>2010-04-30T09:19:09Z</time>
      </trkpt>
      <trkpt lat="44.95974" lon="5.6876">
        <ele>595</ele>
        <time>2010-04-30T09:19:17Z</time>
      </trkpt>
      <trkpt lat="44.95984" lon="5.68756">
        <ele>594</ele>
        <time>2010-04-30T09:19:25Z</time>
      </trkpt>
      <trkpt lat="44.95987" lon="5.6876">
        <ele>594</ele>
        <time>2010-04-30T09:19:27Z</time>
      </trkpt>
      <trkpt lat="44.95985" lon="5.68794">
        <ele>596</ele>
        <time>2010-04-30T09:19:33Z</time>
      </trkpt>
      <trkpt lat="44.95983" lon="5.68805">
        <ele>583</ele>
        <time>2010-04-30T09:19:42Z</time>
      </trkpt>
      <trkpt lat="44.95983" lon="5.68806">
        <ele>582</ele>
        <time>2010-04-30T09:19:49Z</time>
      </trkpt>
      <trkpt lat="44.9598" lon="5.6881">
        <ele>579</ele>
        <time>2010-04-30T09:19:52Z</time>
      </trkpt>
      <trkpt lat="44.95979" lon="5.68811">
        <ele>578</ele>
        <time>2010-04-30T09:19:53Z</time>
      </trkpt>
      <trkpt lat="44.95977" lon="5.68817">
        <ele>573</ele>
        <time>2010-04-30T09:19:55Z</time>
      </trkpt>
      <trkpt lat="44.95977" lon="5.68827">
        <ele>563</ele>
        <time>2010-04-30T09:19:59Z</time>
      </trkpt>
      <trkpt lat="44.95976" lon="5.68829">
        <ele>562</ele>
        <time>2010-04-30T09:20:02Z</time>
      </trkpt>
      <trkpt lat="44.95976" lon="5.68829">
        <ele>562</ele>
        <time>2010-04-30T09:20:03Z</time>
      </trkpt>
      <trkpt lat="44.95976" lon="5.6883">
        <ele>560</ele>
        <time>2010-04-30T09:20:07Z</time>
      </trkpt>
      <trkpt lat="44.95976" lon="5.6883">
        <ele>560</ele>
        <time>2010-04-30T09:20:08Z</time>
      </trkpt>
      <trkpt lat="44.95976" lon="5.6883">
        <ele>560</ele>
        <time>2010-04-30T09:20:13Z</time>
      </trkpt>
      <trkpt lat="44.95976" lon="5.6883">
        <ele>561</ele>
        <time>2010-04-30T09:20:17Z</time>
      </trkpt>
      <trkpt lat="44.95976" lon="5.6883">
        <ele>561</ele>
        <time>2010-04-30T09:20:22Z</time>
      </trkpt>
      <trkpt lat="44.95976" lon="5.68829">
        <ele>561</ele>
        <time>2010-04-30T09:20:27Z</time>
      </trkpt>
      <trkpt lat="44.95976" lon="5.68829">
        <ele>561</ele>
        <time>2010-04-30T09:20:28Z</time>
      </trkpt>
      <trkpt lat="44.95976" lon="5.68829">
        <ele>561</ele>
        <time>2010-04-30T09:20:35Z</time>
      </trkpt>
      <trkpt lat="44.95976" lon="5.68829">
        <ele>561</ele>
        <time>2010-04-30T09:20:43Z</time>
      </trkpt>
      <trkpt lat="44.95976" lon="5.68829">
        <ele>561</ele>
        <time>2010-04-30T09:20:54Z</time>
      </trkpt>
      <trkpt lat="44.95976" lon="5.68829">
        <ele>561</ele>
        <time>2010-04-30T09:21:10Z</time>
      </trkpt>
      <trkpt lat="44.95976" lon="5.68829">
        <ele>561</ele>
        <time>2010-04-30T09:21:50Z</time>
      </trkpt>
      <trkpt lat="44.95973" lon="5.6883">
        <ele>564</ele>
        <time>2010-04-30T09:23:12Z</time>
      </trkpt>
      <trkpt lat="44.95978" lon="5.68818">
        <ele>571</ele>
        <time>2010-04-30T09:23:19Z</time>
      </trkpt>
      <trkpt lat="44.95982" lon="5.68811">
        <ele>576</ele>
        <time>2010-04-30T09:23:30Z</time>
      </trkpt>
      <trkpt lat="44.95982" lon="5.68809">
        <ele>579</ele>
        <time>2010-04-30T09:23:38Z</time>
      </trkpt>
      <trkpt lat="44.95978" lon="5.68819">
        <ele>570</ele>
        <time>2010-04-30T09:23:45Z</time>
      </trkpt>
      <trkpt lat="44.95977" lon="5.68828">
        <ele>562</ele>
        <time>2010-04-30T09:23:53Z</time>
      </trkpt>
      <trkpt lat="44.95977" lon="5.68828">
        <ele>562</ele>
        <time>2010-04-30T09:25:31Z</time>
      </trkpt>
      <trkpt lat="44.95971" lon="5.68816">
        <ele>579</ele>
        <time>2010-04-30T09:25:38Z</time>
      </trkpt>
      <trkpt lat="44.95962" lon="5.6881">
        <ele>592</ele>
        <time>2010-04-30T09:25:44Z</time>
      </trkpt>
      <trkpt lat="44.95956" lon="5.6881">
        <ele>596</ele>
        <time>2010-04-30T09:25:47Z</time>
      </trkpt>
      <trkpt lat="44.95936" lon="5.68802">
        <ele>609</ele>
        <time>2010-04-30T09:25:56Z</time>
      </trkpt>
      <trkpt lat="44.95922" lon="5.68798">
        <ele>609</ele>
        <time>2010-04-30T09:26:03Z</time>
      </trkpt>
      <trkpt lat="44.95903" lon="5.68794">
        <ele>608</ele>
        <time>2010-04-30T09:26:11Z</time>
      </trkpt>
      <trkpt lat="44.95882" lon="5.6879">
        <ele>608</ele>
        <time>2010-04-30T09:26:20Z</time>
      </trkpt>
      <trkpt lat="44.95862" lon="5.68783">
        <ele>607</ele>
        <time>2010-04-30T09:26:30Z</time>
      </trkpt>
      <trkpt lat="44.95842" lon="5.68776">
        <ele>607</ele>
        <time>2010-04-30T09:26:38Z</time>
      </trkpt>
      <trkpt lat="44.95821" lon="5.68764">
        <ele>605</ele>
        <time>2010-04-30T09:26:47Z</time>
      </trkpt>
      <trkpt lat="44.95805" lon="5.68756">
        <ele>603</ele>
        <time>2010-04-30T09:26:54Z</time>
      </trkpt>
      <trkpt lat="44.95781" lon="5.68753">
        <ele>604</ele>
        <time>2010-04-30T09:27:04Z</time>
      </trkpt>
      <trkpt lat="44.95762" lon="5.68759">
        <ele>607</ele>
        <time>2010-04-30T09:27:12Z</time>
      </trkpt>
      <trkpt lat="44.95746" lon="5.68771">
        <ele>612</ele>
        <time>2010-04-30T09:27:20Z</time>
      </trkpt>
      <trkpt lat="44.95727" lon="5.68789">
        <ele>618</ele>
        <time>2010-04-30T09:27:30Z</time>
      </trkpt>
      <trkpt lat="44.95713" lon="5.68797">
        <ele>621</ele>
        <time>2010-04-30T09:27:37Z</time>
      </trkpt>
      <trkpt lat="44.95698" lon="5.68801">
        <ele>625</ele>
        <time>2010-04-30T09:27:43Z</time>
      </trkpt>
      <trkpt lat="44.95682" lon="5.68804">
        <ele>630</ele>
        <time>2010-04-30T09:27:50Z</time>
      </trkpt>
      <trkpt lat="44.95664" lon="5.68808">
        <ele>635</ele>
        <time>2010-04-30T09:27:58Z</time>
      </trkpt>
      <trkpt lat="44.95644" lon="5.68804">
        <ele>639</ele>
        <time>2010-04-30T09:28:06Z</time>
      </trkpt>
      <trkpt lat="44.95631" lon="5.68789">
        <ele>639</ele>
        <time>2010-04-30T09:28:14Z</time>
      </trkpt>
      <trkpt lat="44.95621" lon="5.68766">
        <ele>636</ele>
        <time>2010-04-30T09:28:23Z</time>
      </trkpt>
      <trkpt lat="44.95612" lon="5.68743">
        <ele>632</ele>
        <time>2010-04-30T09:28:31Z</time>
      </trkpt>
      <trkpt lat="44.95596" lon="5.68725">
        <ele>632</ele>
        <time>2010-04-30T09:28:40Z</time>
      </trkpt>
      <trkpt lat="44.95576" lon="5.68708">
        <ele>634</ele>
        <time>2010-04-30T09:28:50Z</time>
      </trkpt>
      <trkpt lat="44.95556" lon="5.68689">
        <ele>634</ele>
        <time>2010-04-30T09:29:00Z</time>
      </trkpt>
      <trkpt lat="44.95541" lon="5.68679">
        <ele>635</ele>
        <time>2010-04-30T09:29:07Z</time>
      </trkpt>
      <trkpt lat="44.95515" lon="5.68668">
        <ele>638</ele>
        <time>2010-04-30T09:29:18Z</time>
      </trkpt>
      <trkpt lat="44.95492" lon="5.68662">
        <ele>641</ele>
        <time>2010-04-30T09:29:27Z</time>
      </trkpt>
      <trkpt lat="44.95469" lon="5.6865">
        <ele>641</ele>
        <time>2010-04-30T09:29:36Z</time>
      </trkpt>
      <trkpt lat="44.95446" lon="5.68631">
        <ele>642</ele>
        <time>2010-04-30T09:29:46Z</time>
      </trkpt>
      <trkpt lat="44.95431" lon="5.68602">
        <ele>636</ele>
        <time>2010-04-30T09:29:55Z</time>
      </trkpt>
      <trkpt lat="44.95421" lon="5.68571">
        <ele>636</ele>
        <time>2010-04-30T09:30:03Z</time>
      </trkpt>
      <trkpt lat="44.95407" lon="5.68526">
        <ele>639</ele>
        <time>2010-04-30T09:30:14Z</time>
      </trkpt>
      <trkpt lat="44.95393" lon="5.68484">
        <ele>638</ele>
        <time>2010-04-30T09:30:23Z</time>
      </trkpt>
      <trkpt lat="44.95379" lon="5.68457">
        <ele>640</ele>
        <time>2010-04-30T09:30:31Z</time>
      </trkpt>
      <trkpt lat="44.95363" lon="5.68435">
        <ele>644</ele>
        <time>2010-04-30T09:30:40Z</time>
      </trkpt>
      <trkpt lat="44.95349" lon="5.6842">
        <ele>644</ele>
        <time>2010-04-30T09:30:47Z</time>
      </trkpt>
      <trkpt lat="44.95331" lon="5.68404">
        <ele>644</ele>
        <time>2010-04-30T09:30:55Z</time>
      </trkpt>
      <trkpt lat="44.95314" lon="5.68383">
        <ele>646</ele>
        <time>2010-04-30T09:31:04Z</time>
      </trkpt>
      <trkpt lat="44.95301" lon="5.68359">
        <ele>648</ele>
        <time>2010-04-30T09:31:13Z</time>
      </trkpt>
      <trkpt lat="44.95296" lon="5.68344">
        <ele>650</ele>
        <time>2010-04-30T09:31:18Z</time>
      </trkpt>
      <trkpt lat="44.95291" lon="5.6832">
        <ele>652</ele>
        <time>2010-04-30T09:31:26Z</time>
      </trkpt>
      <trkpt lat="44.9529" lon="5.68292">
        <ele>655</ele>
        <time>2010-04-30T09:31:35Z</time>
      </trkpt>
      <trkpt lat="44.95286" lon="5.68267">
        <ele>658</ele>
        <time>2010-04-30T09:31:43Z</time>
      </trkpt>
      <trkpt lat="44.95283" lon="5.68246">
        <ele>660</ele>
        <time>2010-04-30T09:31:50Z</time>
      </trkpt>
      <trkpt lat="44.95277" lon="5.68218">
        <ele>662</ele>
        <time>2010-04-30T09:31:59Z</time>
      </trkpt>
      <trkpt lat="44.9527" lon="5.68198">
        <ele>664</ele>
        <time>2010-04-30T09:32:07Z</time>
      </trkpt>
      <trkpt lat="44.95262" lon="5.68176">
        <ele>665</ele>
        <time>2010-04-30T09:32:15Z</time>
      </trkpt>
      <trkpt lat="44.9525" lon="5.68152">
        <ele>667</ele>
        <time>2010-04-30T09:32:24Z</time>
      </trkpt>
      <trkpt lat="44.95234" lon="5.68128">
        <ele>668</ele>
        <time>2010-04-30T09:32:34Z</time>
      </trkpt>
      <trkpt lat="44.95219" lon="5.68109">
        <ele>669</ele>
        <time>2010-04-30T09:32:43Z</time>
      </trkpt>
      <trkpt lat="44.95199" lon="5.68086">
        <ele>670</ele>
        <time>2010-04-30T09:32:54Z</time>
      </trkpt>
      <trkpt lat="44.95181" lon="5.68063">
        <ele>671</ele>
        <time>2010-04-30T09:33:04Z</time>
      </trkpt>
      <trkpt lat="44.95167" lon="5.68043">
        <ele>673</ele>
        <time>2010-04-30T09:33:12Z</time>
      </trkpt>
      <trkpt lat="44.95154" lon="5.68026">
        <ele>673</ele>
        <time>2010-04-30T09:33:20Z</time>
      </trkpt>
      <trkpt lat="44.95137" lon="5.68002">
        <ele>675</ele>
        <time>2010-04-30T09:33:30Z</time>
      </trkpt>
      <trkpt lat="44.95118" lon="5.67977">
        <ele>677</ele>
        <time>2010-04-30T09:33:41Z</time>
      </trkpt>
      <trkpt lat="44.95099" lon="5.67954">
        <ele>677</ele>
        <time>2010-04-30T09:33:51Z</time>
      </trkpt>
      <trkpt lat="44.95084" lon="5.6793">
        <ele>679</ele>
        <time>2010-04-30T09:34:00Z</time>
      </trkpt>
      <trkpt lat="44.95066" lon="5.67902">
        <ele>680</ele>
        <time>2010-04-30T09:34:10Z</time>
      </trkpt>
      <trkpt lat="44.95051" lon="5.67876">
        <ele>681</ele>
        <time>2010-04-30T09:34:19Z</time>
      </trkpt>
      <trkpt lat="44.95036" lon="5.67846">
        <ele>684</ele>
        <time>2010-04-30T09:34:29Z</time>
      </trkpt>
      <trkpt lat="44.95023" lon="5.67821">
        <ele>686</ele>
        <time>2010-04-30T09:34:38Z</time>
      </trkpt>
      <trkpt lat="44.95008" lon="5.6779">
        <ele>687</ele>
        <time>2010-04-30T09:34:48Z</time>
      </trkpt>
      <trkpt lat="44.94996" lon="5.67759">
        <ele>688</ele>
        <time>2010-04-30T09:34:58Z</time>
      </trkpt>
      <trkpt lat="44.94987" lon="5.6773">
        <ele>689</ele>
        <time>2010-04-30T09:35:07Z</time>
      </trkpt>
      <trkpt lat="44.94977" lon="5.67699">
        <ele>691</ele>
        <time>2010-04-30T09:35:17Z</time>
      </trkpt>
      <trkpt lat="44.9497" lon="5.67682">
        <ele>692</ele>
        <time>2010-04-30T09:35:24Z</time>
      </trkpt>
      <trkpt lat="44.94961" lon="5.67662">
        <ele>693</ele>
        <time>2010-04-30T09:35:31Z</time>
      </trkpt>
      <trkpt lat="44.94943" lon="5.67634">
        <ele>693</ele>
        <time>2010-04-30T09:35:41Z</time>
      </trkpt>
      <trkpt lat="44.94924" lon="5.67609">
        <ele>694</ele>
        <time>2010-04-30T09:35:51Z</time>
      </trkpt>
      <trkpt lat="44.94906" lon="5.67585">
        <ele>695</ele>
        <time>2010-04-30T09:36:01Z</time>
      </trkpt>
      <trkpt lat="44.94891" lon="5.6756">
        <ele>697</ele>
        <time>2010-04-30T09:36:10Z</time>
      </trkpt>
      <trkpt lat="44.94878" lon="5.67534">
        <ele>699</ele>
        <time>2010-04-30T09:36:20Z</time>
      </trkpt>
      <trkpt lat="44.94866" lon="5.67512">
        <ele>701</ele>
        <time>2010-04-30T09:36:29Z</time>
      </trkpt>
      <trkpt lat="44.94856" lon="5.67487">
        <ele>703</ele>
        <time>2010-04-30T09:36:39Z</time>
      </trkpt>
      <trkpt lat="44.94845" lon="5.67466">
        <ele>704</ele>
        <time>2010-04-30T09:36:48Z</time>
      </trkpt>
      <trkpt lat="44.94834" lon="5.67443">
        <ele>706</ele>
        <time>2010-04-30T09:36:57Z</time>
      </trkpt>
      <trkpt lat="44.94824" lon="5.67417">
        <ele>707</ele>
        <time>2010-04-30T09:37:06Z</time>
      </trkpt>
      <trkpt lat="44.94819" lon="5.67387">
        <ele>710</ele>
        <time>2010-04-30T09:37:15Z</time>
      </trkpt>
      <trkpt lat="44.94819" lon="5.67358">
        <ele>713</ele>
        <time>2010-04-30T09:37:24Z</time>
      </trkpt>
      <trkpt lat="44.94816" lon="5.67329">
        <ele>715</ele>
        <time>2010-04-30T09:37:32Z</time>
      </trkpt>
      <trkpt lat="44.94811" lon="5.67301">
        <ele>717</ele>
        <time>2010-04-30T09:37:40Z</time>
      </trkpt>
      <trkpt lat="44.94798" lon="5.67274">
        <ele>719</ele>
        <time>2010-04-30T09:37:50Z</time>
      </trkpt>
      <trkpt lat="44.94779" lon="5.67248">
        <ele>720</ele>
        <time>2010-04-30T09:38:01Z</time>
      </trkpt>
      <trkpt lat="44.94764" lon="5.67225">
        <ele>721</ele>
        <time>2010-04-30T09:38:10Z</time>
      </trkpt>
      <trkpt lat="44.94752" lon="5.67201">
        <ele>723</ele>
        <time>2010-04-30T09:38:19Z</time>
      </trkpt>
      <trkpt lat="44.94745" lon="5.67166">
        <ele>726</ele>
        <time>2010-04-30T09:38:29Z</time>
      </trkpt>
      <trkpt lat="44.94738" lon="5.67132">
        <ele>729</ele>
        <time>2010-04-30T09:38:39Z</time>
      </trkpt>
      <trkpt lat="44.94727" lon="5.67111">
        <ele>730</ele>
        <time>2010-04-30T09:38:47Z</time>
      </trkpt>
      <trkpt lat="44.94713" lon="5.67095">
        <ele>731</ele>
        <time>2010-04-30T09:38:55Z</time>
      </trkpt>
      <trkpt lat="44.9469" lon="5.67081">
        <ele>732</ele>
        <time>2010-04-30T09:39:05Z</time>
      </trkpt>
      <trkpt lat="44.9467" lon="5.6707">
        <ele>733</ele>
        <time>2010-04-30T09:39:14Z</time>
      </trkpt>
      <trkpt lat="44.9465" lon="5.67059">
        <ele>734</ele>
        <time>2010-04-30T09:39:23Z</time>
      </trkpt>
      <trkpt lat="44.94629" lon="5.67043">
        <ele>736</ele>
        <time>2010-04-30T09:39:33Z</time>
      </trkpt>
      <trkpt lat="44.94611" lon="5.67029">
        <ele>737</ele>
        <time>2010-04-30T09:39:42Z</time>
      </trkpt>
      <trkpt lat="44.94596" lon="5.67015">
        <ele>738</ele>
        <time>2010-04-30T09:39:50Z</time>
      </trkpt>
      <trkpt lat="44.94577" lon="5.66998">
        <ele>739</ele>
        <time>2010-04-30T09:40:00Z</time>
      </trkpt>
      <trkpt lat="44.94561" lon="5.66982">
        <ele>741</ele>
        <time>2010-04-30T09:40:09Z</time>
      </trkpt>
      <trkpt lat="44.94543" lon="5.66962">
        <ele>743</ele>
        <time>2010-04-30T09:40:20Z</time>
      </trkpt>
      <trkpt lat="44.9453" lon="5.66941">
        <ele>745</ele>
        <time>2010-04-30T09:40:29Z</time>
      </trkpt>
      <trkpt lat="44.94516" lon="5.66917">
        <ele>747</ele>
        <time>2010-04-30T09:40:39Z</time>
      </trkpt>
      <trkpt lat="44.94504" lon="5.66897">
        <ele>749</ele>
        <time>2010-04-30T09:40:48Z</time>
      </trkpt>
      <trkpt lat="44.94493" lon="5.66871">
        <ele>752</ele>
        <time>2010-04-30T09:40:58Z</time>
      </trkpt>
      <trkpt lat="44.94483" lon="5.66852">
        <ele>754</ele>
        <time>2010-04-30T09:41:07Z</time>
      </trkpt>
      <trkpt lat="44.94467" lon="5.6682">
        <ele>756</ele>
        <time>2010-04-30T09:41:19Z</time>
      </trkpt>
      <trkpt lat="44.94457" lon="5.66799">
        <ele>758</ele>
        <time>2010-04-30T09:41:27Z</time>
      </trkpt>
      <trkpt lat="44.94442" lon="5.66775">
        <ele>760</ele>
        <time>2010-04-30T09:41:37Z</time>
      </trkpt>
      <trkpt lat="44.94428" lon="5.66753">
        <ele>763</ele>
        <time>2010-04-30T09:41:47Z</time>
      </trkpt>
      <trkpt lat="44.94413" lon="5.6674">
        <ele>764</ele>
        <time>2010-04-30T09:41:55Z</time>
      </trkpt>
      <trkpt lat="44.94396" lon="5.66729">
        <ele>765</ele>
        <time>2010-04-30T09:42:04Z</time>
      </trkpt>
      <trkpt lat="44.9438" lon="5.66718">
        <ele>766</ele>
        <time>2010-04-30T09:42:12Z</time>
      </trkpt>
      <trkpt lat="44.94367" lon="5.66703">
        <ele>767</ele>
        <time>2010-04-30T09:42:20Z</time>
      </trkpt>
      <trkpt lat="44.94361" lon="5.66683">
        <ele>769</ele>
        <time>2010-04-30T09:42:27Z</time>
      </trkpt>
      <trkpt lat="44.94361" lon="5.66653">
        <ele>772</ele>
        <time>2010-04-30T09:42:36Z</time>
      </trkpt>
      <trkpt lat="44.94368" lon="5.66623">
        <ele>774</ele>
        <time>2010-04-30T09:42:46Z</time>
      </trkpt>
      <trkpt lat="44.94375" lon="5.66598">
        <ele>776</ele>
        <time>2010-04-30T09:42:54Z</time>
      </trkpt>
      <trkpt lat="44.94385" lon="5.66561">
        <ele>779</ele>
        <time>2010-04-30T09:43:05Z</time>
      </trkpt>
      <trkpt lat="44.94393" lon="5.66527">
        <ele>781</ele>
        <time>2010-04-30T09:43:15Z</time>
      </trkpt>
      <trkpt lat="44.94403" lon="5.66486">
        <ele>782</ele>
        <time>2010-04-30T09:43:27Z</time>
      </trkpt>
      <trkpt lat="44.94412" lon="5.66455">
        <ele>783</ele>
        <time>2010-04-30T09:43:36Z</time>
      </trkpt>
      <trkpt lat="44.94419" lon="5.66424">
        <ele>784</ele>
        <time>2010-04-30T09:43:45Z</time>
      </trkpt>
      <trkpt lat="44.9443" lon="5.66389">
        <ele>786</ele>
        <time>2010-04-30T09:43:55Z</time>
      </trkpt>
      <trkpt lat="44.94439" lon="5.6636">
        <ele>787</ele>
        <time>2010-04-30T09:44:04Z</time>
      </trkpt>
      <trkpt lat="44.94447" lon="5.66336">
        <ele>788</ele>
        <time>2010-04-30T09:44:11Z</time>
      </trkpt>
      <trkpt lat="44.94459" lon="5.6631">
        <ele>790</ele>
        <time>2010-04-30T09:44:19Z</time>
      </trkpt>
      <trkpt lat="44.9447" lon="5.66285">
        <ele>792</ele>
        <time>2010-04-30T09:44:27Z</time>
      </trkpt>
      <trkpt lat="44.94482" lon="5.66258">
        <ele>794</ele>
        <time>2010-04-30T09:44:36Z</time>
      </trkpt>
      <trkpt lat="44.94491" lon="5.66235">
        <ele>795</ele>
        <time>2010-04-30T09:44:43Z</time>
      </trkpt>
      <trkpt lat="44.94503" lon="5.66198">
        <ele>797</ele>
        <time>2010-04-30T09:44:53Z</time>
      </trkpt>
      <trkpt lat="44.94511" lon="5.66161">
        <ele>799</ele>
        <time>2010-04-30T09:45:03Z</time>
      </trkpt>
      <trkpt lat="44.9452" lon="5.66126">
        <ele>801</ele>
        <time>2010-04-30T09:45:13Z</time>
      </trkpt>
      <trkpt lat="44.94529" lon="5.66092">
        <ele>803</ele>
        <time>2010-04-30T09:45:23Z</time>
      </trkpt>
      <trkpt lat="44.94537" lon="5.66057">
        <ele>804</ele>
        <time>2010-04-30T09:45:33Z</time>
      </trkpt>
      <trkpt lat="44.94545" lon="5.66023">
        <ele>806</ele>
        <time>2010-04-30T09:45:42Z</time>
      </trkpt>
      <trkpt lat="44.94552" lon="5.65991">
        <ele>807</ele>
        <time>2010-04-30T09:45:51Z</time>
      </trkpt>
      <trkpt lat="44.94558" lon="5.65955">
        <ele>808</ele>
        <time>2010-04-30T09:46:01Z</time>
      </trkpt>
      <trkpt lat="44.94566" lon="5.65919">
        <ele>809</ele>
        <time>2010-04-30T09:46:11Z</time>
      </trkpt>
      <trkpt lat="44.94578" lon="5.65892">
        <ele>810</ele>
        <time>2010-04-30T09:46:20Z</time>
      </trkpt>
      <trkpt lat="44.94599" lon="5.65878">
        <ele>811</ele>
        <time>2010-04-30T09:46:29Z</time>
      </trkpt>
      <trkpt lat="44.94625" lon="5.65872">
        <ele>813</ele>
        <time>2010-04-30T09:46:39Z</time>
      </trkpt>
      <trkpt lat="44.94648" lon="5.65866">
        <ele>815</ele>
        <time>2010-04-30T09:46:48Z</time>
      </trkpt>
      <trkpt lat="44.94673" lon="5.65863">
        <ele>818</ele>
        <time>2010-04-30T09:46:58Z</time>
      </trkpt>
      <trkpt lat="44.94693" lon="5.6586">
        <ele>819</ele>
        <time>2010-04-30T09:47:06Z</time>
      </trkpt>
      <trkpt lat="44.94713" lon="5.65856">
        <ele>821</ele>
        <time>2010-04-30T09:47:14Z</time>
      </trkpt>
      <trkpt lat="44.94735" lon="5.6585">
        <ele>823</ele>
        <time>2010-04-30T09:47:23Z</time>
      </trkpt>
      <trkpt lat="44.94756" lon="5.65841">
        <ele>825</ele>
        <time>2010-04-30T09:47:32Z</time>
      </trkpt>
      <trkpt lat="44.94778" lon="5.65823">
        <ele>827</ele>
        <time>2010-04-30T09:47:42Z</time>
      </trkpt>
      <trkpt lat="44.94796" lon="5.65803">
        <ele>829</ele>
        <time>2010-04-30T09:47:51Z</time>
      </trkpt>
      <trkpt lat="44.94812" lon="5.65776">
        <ele>831</ele>
        <time>2010-04-30T09:48:01Z</time>
      </trkpt>
      <trkpt lat="44.94825" lon="5.65751">
        <ele>832</ele>
        <time>2010-04-30T09:48:10Z</time>
      </trkpt>
      <trkpt lat="44.9484" lon="5.65723">
        <ele>834</ele>
        <time>2010-04-30T09:48:19Z</time>
      </trkpt>
      <trkpt lat="44.94853" lon="5.65698">
        <ele>835</ele>
        <time>2010-04-30T09:48:28Z</time>
      </trkpt>
      <trkpt lat="44.94868" lon="5.65674">
        <ele>837</ele>
        <time>2010-04-30T09:48:37Z</time>
      </trkpt>
      <trkpt lat="44.94884" lon="5.65646">
        <ele>839</ele>
        <time>2010-04-30T09:48:47Z</time>
      </trkpt>
      <trkpt lat="44.94904" lon="5.65609">
        <ele>842</ele>
        <time>2010-04-30T09:48:59Z</time>
      </trkpt>
      <trkpt lat="44.94918" lon="5.65588">
        <ele>844</ele>
        <time>2010-04-30T09:49:07Z</time>
      </trkpt>
      <trkpt lat="44.94933" lon="5.65564">
        <ele>847</ele>
        <time>2010-04-30T09:49:16Z</time>
      </trkpt>
      <trkpt lat="44.94945" lon="5.65538">
        <ele>849</ele>
        <time>2010-04-30T09:49:24Z</time>
      </trkpt>
      <trkpt lat="44.9495" lon="5.65509">
        <ele>851</ele>
        <time>2010-04-30T09:49:32Z</time>
      </trkpt>
      <trkpt lat="44.94958" lon="5.65478">
        <ele>853</ele>
        <time>2010-04-30T09:49:41Z</time>
      </trkpt>
      <trkpt lat="44.94968" lon="5.65441">
        <ele>856</ele>
        <time>2010-04-30T09:49:52Z</time>
      </trkpt>
      <trkpt lat="44.94976" lon="5.65412">
        <ele>858</ele>
        <time>2010-04-30T09:50:01Z</time>
      </trkpt>
      <trkpt lat="44.94985" lon="5.65378">
        <ele>860</ele>
        <time>2010-04-30T09:50:11Z</time>
      </trkpt>
      <trkpt lat="44.94995" lon="5.65346">
        <ele>862</ele>
        <time>2010-04-30T09:50:21Z</time>
      </trkpt>
      <trkpt lat="44.95007" lon="5.65323">
        <ele>863</ele>
        <time>2010-04-30T09:50:29Z</time>
      </trkpt>
      <trkpt lat="44.95013" lon="5.65301">
        <ele>863</ele>
        <time>2010-04-30T09:50:35Z</time>
      </trkpt>
      <trkpt lat="44.95016" lon="5.65274">
        <ele>864</ele>
        <time>2010-04-30T09:50:44Z</time>
      </trkpt>
      <trkpt lat="44.95016" lon="5.65276">
        <ele>864</ele>
        <time>2010-04-30T09:51:07Z</time>
      </trkpt>
      <trkpt lat="44.95007" lon="5.65257">
        <ele>864</ele>
        <time>2010-04-30T09:51:14Z</time>
      </trkpt>
      <trkpt lat="44.94988" lon="5.65245">
        <ele>864</ele>
        <time>2010-04-30T09:51:22Z</time>
      </trkpt>
      <trkpt lat="44.94966" lon="5.65239">
        <ele>863</ele>
        <time>2010-04-30T09:51:31Z</time>
      </trkpt>
      <trkpt lat="44.94952" lon="5.65224">
        <ele>865</ele>
        <time>2010-04-30T09:51:38Z</time>
      </trkpt>
      <trkpt lat="44.94932" lon="5.65198">
        <ele>867</ele>
        <time>2010-04-30T09:51:48Z</time>
      </trkpt>
      <trkpt lat="44.94914" lon="5.6518">
        <ele>868</ele>
        <time>2010-04-30T09:51:56Z</time>
      </trkpt>
      <trkpt lat="44.94894" lon="5.65164">
        <ele>870</ele>
        <time>2010-04-30T09:52:05Z</time>
      </trkpt>
      <trkpt lat="44.94866" lon="5.65158">
        <ele>868</ele>
        <time>2010-04-30T09:52:15Z</time>
      </trkpt>
      <trkpt lat="44.94841" lon="5.65148">
        <ele>867</ele>
        <time>2010-04-30T09:52:24Z</time>
      </trkpt>
      <trkpt lat="44.94814" lon="5.65131">
        <ele>866</ele>
        <time>2010-04-30T09:52:35Z</time>
      </trkpt>
      <trkpt lat="44.94788" lon="5.65116">
        <ele>864</ele>
        <time>2010-04-30T09:52:45Z</time>
      </trkpt>
      <trkpt lat="44.94761" lon="5.65098">
        <ele>863</ele>
        <time>2010-04-30T09:52:55Z</time>
      </trkpt>
      <trkpt lat="44.94741" lon="5.65081">
        <ele>864</ele>
        <time>2010-04-30T09:53:03Z</time>
      </trkpt>
      <trkpt lat="44.94722" lon="5.65062">
        <ele>866</ele>
        <time>2010-04-30T09:53:11Z</time>
      </trkpt>
      <trkpt lat="44.94698" lon="5.65046">
        <ele>865</ele>
        <time>2010-04-30T09:53:20Z</time>
      </trkpt>
      <trkpt lat="44.94674" lon="5.65035">
        <ele>862</ele>
        <time>2010-04-30T09:53:28Z</time>
      </trkpt>
      <trkpt lat="44.94645" lon="5.65008">
        <ele>862</ele>
        <time>2010-04-30T09:53:39Z</time>
      </trkpt>
      <trkpt lat="44.94626" lon="5.64979">
        <ele>862</ele>
        <time>2010-04-30T09:53:48Z</time>
      </trkpt>
      <trkpt lat="44.94617" lon="5.6495">
        <ele>865</ele>
        <time>2010-04-30T09:53:56Z</time>
      </trkpt>
      <trkpt lat="44.94606" lon="5.6492">
        <ele>868</ele>
        <time>2010-04-30T09:54:04Z</time>
      </trkpt>
      <trkpt lat="44.94591" lon="5.64888">
        <ele>866</ele>
        <time>2010-04-30T09:54:14Z</time>
      </trkpt>
      <trkpt lat="44.94583" lon="5.64859">
        <ele>867</ele>
        <time>2010-04-30T09:54:22Z</time>
      </trkpt>
      <trkpt lat="44.94578" lon="5.64817">
        <ele>873</ele>
        <time>2010-04-30T09:54:33Z</time>
      </trkpt>
      <trkpt lat="44.94571" lon="5.64778">
        <ele>877</ele>
        <time>2010-04-30T09:54:43Z</time>
      </trkpt>
      <trkpt lat="44.94562" lon="5.6475">
        <ele>878</ele>
        <time>2010-04-30T09:54:51Z</time>
      </trkpt>
      <trkpt lat="44.94553" lon="5.64723">
        <ele>878</ele>
        <time>2010-04-30T09:54:59Z</time>
      </trkpt>
      <trkpt lat="44.9454" lon="5.64697">
        <ele>877</ele>
        <time>2010-04-30T09:55:07Z</time>
      </trkpt>
      <trkpt lat="44.94525" lon="5.64666">
        <ele>878</ele>
        <time>2010-04-30T09:55:16Z</time>
      </trkpt>
      <trkpt lat="44.94512" lon="5.64639">
        <ele>880</ele>
        <time>2010-04-30T09:55:24Z</time>
      </trkpt>
      <trkpt lat="44.94499" lon="5.64619">
        <ele>880</ele>
        <time>2010-04-30T09:55:31Z</time>
      </trkpt>
      <trkpt lat="44.94493" lon="5.64575">
        <ele>886</ele>
        <time>2010-04-30T09:55:42Z</time>
      </trkpt>
      <trkpt lat="44.94488" lon="5.64549">
        <ele>884</ele>
        <time>2010-04-30T09:55:50Z</time>
      </trkpt>
      <trkpt lat="44.94481" lon="5.64539">
        <ele>883</ele>
        <time>2010-04-30T09:55:56Z</time>
      </trkpt>
      <trkpt lat="44.94478" lon="5.64532">
        <ele>883</ele>
        <time>2010-04-30T09:56:00Z</time>
      </trkpt>
      <trkpt lat="44.9447" lon="5.64521">
        <ele>884</ele>
        <time>2010-04-30T09:56:08Z</time>
      </trkpt>
      <trkpt lat="44.94468" lon="5.64518">
        <ele>884</ele>
        <time>2010-04-30T09:56:10Z</time>
      </trkpt>
      <trkpt lat="44.94458" lon="5.64502">
        <ele>885</ele>
        <time>2010-04-30T09:56:20Z</time>
      </trkpt>
      <trkpt lat="44.94449" lon="5.64491">
        <ele>887</ele>
        <time>2010-04-30T09:56:28Z</time>
      </trkpt>
      <trkpt lat="44.94441" lon="5.64482">
        <ele>888</ele>
        <time>2010-04-30T09:56:35Z</time>
      </trkpt>
      <trkpt lat="44.94434" lon="5.64475">
        <ele>889</ele>
        <time>2010-04-30T09:56:41Z</time>
      </trkpt>
      <trkpt lat="44.9443" lon="5.64469">
        <ele>890</ele>
        <time>2010-04-30T09:56:46Z</time>
      </trkpt>
      <trkpt lat="44.94422" lon="5.64458">
        <ele>892</ele>
        <time>2010-04-30T09:56:54Z</time>
      </trkpt>
      <trkpt lat="44.94416" lon="5.64449">
        <ele>895</ele>
        <time>2010-04-30T09:57:01Z</time>
      </trkpt>
      <trkpt lat="44.94409" lon="5.64443">
        <ele>897</ele>
        <time>2010-04-30T09:57:11Z</time>
      </trkpt>
      <trkpt lat="44.94402" lon="5.64439">
        <ele>898</ele>
        <time>2010-04-30T09:57:18Z</time>
      </trkpt>
      <trkpt lat="44.94392" lon="5.64426">
        <ele>901</ele>
        <time>2010-04-30T09:57:30Z</time>
      </trkpt>
      <trkpt lat="44.94381" lon="5.64416">
        <ele>904</ele>
        <time>2010-04-30T09:57:38Z</time>
      </trkpt>
      <trkpt lat="44.94372" lon="5.64409">
        <ele>906</ele>
        <time>2010-04-30T09:57:47Z</time>
      </trkpt>
      <trkpt lat="44.94369" lon="5.64408">
        <ele>907</ele>
        <time>2010-04-30T09:57:51Z</time>
      </trkpt>
      <trkpt lat="44.94357" lon="5.644">
        <ele>910</ele>
        <time>2010-04-30T09:57:59Z</time>
      </trkpt>
      <trkpt lat="44.94346" lon="5.64393">
        <ele>912</ele>
        <time>2010-04-30T09:58:06Z</time>
      </trkpt>
      <trkpt lat="44.94332" lon="5.64391">
        <ele>913</ele>
        <time>2010-04-30T09:58:13Z</time>
      </trkpt>
      <trkpt lat="44.94315" lon="5.64387">
        <ele>915</ele>
        <time>2010-04-30T09:58:21Z</time>
      </trkpt>
      <trkpt lat="44.94296" lon="5.64386">
        <ele>913</ele>
        <time>2010-04-30T09:58:28Z</time>
      </trkpt>
      <trkpt lat="44.94278" lon="5.64389">
        <ele>912</ele>
        <time>2010-04-30T09:58:34Z</time>
      </trkpt>
      <trkpt lat="44.94261" lon="5.64398">
        <ele>911</ele>
        <time>2010-04-30T09:58:40Z</time>
      </trkpt>
      <trkpt lat="44.94241" lon="5.64414">
        <ele>911</ele>
        <time>2010-04-30T09:58:47Z</time>
      </trkpt>
      <trkpt lat="44.94218" lon="5.64419">
        <ele>913</ele>
        <time>2010-04-30T09:58:56Z</time>
      </trkpt>
      <trkpt lat="44.94204" lon="5.6441">
        <ele>914</ele>
        <time>2010-04-30T09:59:04Z</time>
      </trkpt>
      <trkpt lat="44.94194" lon="5.64398">
        <ele>915</ele>
        <time>2010-04-30T09:59:10Z</time>
      </trkpt>
      <trkpt lat="44.94191" lon="5.64395">
        <ele>915</ele>
        <time>2010-04-30T09:59:12Z</time>
      </trkpt>
      <trkpt lat="44.94183" lon="5.6439">
        <ele>915</ele>
        <time>2010-04-30T09:59:16Z</time>
      </trkpt>
      <trkpt lat="44.94178" lon="5.64383">
        <ele>915</ele>
        <time>2010-04-30T09:59:20Z</time>
      </trkpt>
      <trkpt lat="44.94169" lon="5.64374">
        <ele>916</ele>
        <time>2010-04-30T09:59:27Z</time>
      </trkpt>
      <trkpt lat="44.94151" lon="5.64367">
        <ele>919</ele>
        <time>2010-04-30T09:59:35Z</time>
      </trkpt>
      <trkpt lat="44.94135" lon="5.64362">
        <ele>920</ele>
        <time>2010-04-30T09:59:43Z</time>
      </trkpt>
      <trkpt lat="44.94118" lon="5.64358">
        <ele>920</ele>
        <time>2010-04-30T09:59:50Z</time>
      </trkpt>
      <trkpt lat="44.94099" lon="5.64355">
        <ele>922</ele>
        <time>2010-04-30T09:59:57Z</time>
      </trkpt>
      <trkpt lat="44.94083" lon="5.64354">
        <ele>924</ele>
        <time>2010-04-30T10:00:03Z</time>
      </trkpt>
      <trkpt lat="44.9407" lon="5.64353">
        <ele>924</ele>
        <time>2010-04-30T10:00:09Z</time>
      </trkpt>
      <trkpt lat="44.9406" lon="5.64355">
        <ele>927</ele>
        <time>2010-04-30T10:00:13Z</time>
      </trkpt>
      <trkpt lat="44.94049" lon="5.64354">
        <ele>927</ele>
        <time>2010-04-30T10:00:17Z</time>
      </trkpt>
      <trkpt lat="44.94036" lon="5.64355">
        <ele>929</ele>
        <time>2010-04-30T10:00:21Z</time>
      </trkpt>
      <trkpt lat="44.94019" lon="5.64352">
        <ele>928</ele>
        <time>2010-04-30T10:00:25Z</time>
      </trkpt>
      <trkpt lat="44.94001" lon="5.64352">
        <ele>929</ele>
        <time>2010-04-30T10:00:30Z</time>
      </trkpt>
      <trkpt lat="44.93983" lon="5.64348">
        <ele>926</ele>
        <time>2010-04-30T10:00:35Z</time>
      </trkpt>
      <trkpt lat="44.93959" lon="5.64349">
        <ele>926</ele>
        <time>2010-04-30T10:00:41Z</time>
      </trkpt>
      <trkpt lat="44.9394" lon="5.64351">
        <ele>926</ele>
        <time>2010-04-30T10:00:46Z</time>
      </trkpt>
      <trkpt lat="44.93917" lon="5.6435">
        <ele>925</ele>
        <time>2010-04-30T10:00:51Z</time>
      </trkpt>
      <trkpt lat="44.93894" lon="5.64349">
        <ele>924</ele>
        <time>2010-04-30T10:00:56Z</time>
      </trkpt>
      <trkpt lat="44.93881" lon="5.64357">
        <ele>927</ele>
        <time>2010-04-30T10:00:58Z</time>
      </trkpt>
      <trkpt lat="44.93866" lon="5.6436">
        <ele>928</ele>
        <time>2010-04-30T10:01:01Z</time>
      </trkpt>
      <trkpt lat="44.93849" lon="5.64361">
        <ele>928</ele>
        <time>2010-04-30T10:01:04Z</time>
      </trkpt>
      <trkpt lat="44.93817" lon="5.64364">
        <ele>929</ele>
        <time>2010-04-30T10:01:09Z</time>
      </trkpt>
      <trkpt lat="44.93804" lon="5.64367">
        <ele>931</ele>
        <time>2010-04-30T10:01:11Z</time>
      </trkpt>
      <trkpt lat="44.93778" lon="5.64362">
        <ele>929</ele>
        <time>2010-04-30T10:01:16Z</time>
      </trkpt>
      <trkpt lat="44.93764" lon="5.64365">
        <ele>930</ele>
        <time>2010-04-30T10:01:20Z</time>
      </trkpt>
      <trkpt lat="44.93761" lon="5.64365">
        <ele>930</ele>
        <time>2010-04-30T10:01:21Z</time>
      </trkpt>
      <trkpt lat="44.93743" lon="5.64374">
        <ele>935</ele>
        <time>2010-04-30T10:01:26Z</time>
      </trkpt>
      <trkpt lat="44.93731" lon="5.64372">
        <ele>933</ele>
        <time>2010-04-30T10:01:28Z</time>
      </trkpt>
      <trkpt lat="44.93718" lon="5.64373">
        <ele>934</ele>
        <time>2010-04-30T10:01:30Z</time>
      </trkpt>
      <trkpt lat="44.93681" lon="5.64378">
        <ele>934</ele>
        <time>2010-04-30T10:01:36Z</time>
      </trkpt>
      <trkpt lat="44.93673" lon="5.64377">
        <ele>933</ele>
        <time>2010-04-30T10:01:38Z</time>
      </trkpt>
      <trkpt lat="44.9365" lon="5.64384">
        <ele>935</ele>
        <time>2010-04-30T10:01:45Z</time>
      </trkpt>
      <trkpt lat="44.93634" lon="5.64392">
        <ele>938</ele>
        <time>2010-04-30T10:01:52Z</time>
      </trkpt>
      <trkpt lat="44.93618" lon="5.64401">
        <ele>943</ele>
        <time>2010-04-30T10:01:57Z</time>
      </trkpt>
      <trkpt lat="44.93598" lon="5.64405">
        <ele>944</ele>
        <time>2010-04-30T10:02:02Z</time>
      </trkpt>
      <trkpt lat="44.9358" lon="5.64407">
        <ele>944</ele>
        <time>2010-04-30T10:02:07Z</time>
      </trkpt>
      <trkpt lat="44.93557" lon="5.64411">
        <ele>945</ele>
        <time>2010-04-30T10:02:15Z</time>
      </trkpt>
      <trkpt lat="44.93552" lon="5.64411">
        <ele>945</ele>
        <time>2010-04-30T10:02:17Z</time>
      </trkpt>
      <trkpt lat="44.93526" lon="5.64407">
        <ele>942</ele>
        <time>2010-04-30T10:02:25Z</time>
      </trkpt>
      <trkpt lat="44.93509" lon="5.64416">
        <ele>945</ele>
        <time>2010-04-30T10:02:32Z</time>
      </trkpt>
      <trkpt lat="44.93491" lon="5.64419">
        <ele>945</ele>
        <time>2010-04-30T10:02:39Z</time>
      </trkpt>
      <trkpt lat="44.93487" lon="5.64422">
        <ele>946</ele>
        <time>2010-04-30T10:02:41Z</time>
      </trkpt>
      <trkpt lat="44.93472" lon="5.64429">
        <ele>948</ele>
        <time>2010-04-30T10:02:48Z</time>
      </trkpt>
      <trkpt lat="44.9347" lon="5.6443">
        <ele>949</ele>
        <time>2010-04-30T10:02:49Z</time>
      </trkpt>
      <trkpt lat="44.9345" lon="5.64433">
        <ele>949</ele>
        <time>2010-04-30T10:02:58Z</time>
      </trkpt>
      <trkpt lat="44.93446" lon="5.64434">
        <ele>949</ele>
        <time>2010-04-30T10:02:59Z</time>
      </trkpt>
      <trkpt lat="44.93426" lon="5.64439">
        <ele>950</ele>
        <time>2010-04-30T10:03:06Z</time>
      </trkpt>
      <trkpt lat="44.93422" lon="5.64439">
        <ele>949</ele>
        <time>2010-04-30T10:03:08Z</time>
      </trkpt>
      <trkpt lat="44.93407" lon="5.64438">
        <ele>948</ele>
        <time>2010-04-30T10:03:14Z</time>
      </trkpt>
      <trkpt lat="44.93386" lon="5.64447">
        <ele>952</ele>
        <time>2010-04-30T10:03:22Z</time>
      </trkpt>
      <trkpt lat="44.93366" lon="5.64447">
        <ele>952</ele>
        <time>2010-04-30T10:03:29Z</time>
      </trkpt>
      <trkpt lat="44.93358" lon="5.64445">
        <ele>951</ele>
        <time>2010-04-30T10:03:31Z</time>
      </trkpt>
      <trkpt lat="44.93349" lon="5.64443">
        <ele>951</ele>
        <time>2010-04-30T10:03:35Z</time>
      </trkpt>
      <trkpt lat="44.93345" lon="5.64444">
        <ele>951</ele>
        <time>2010-04-30T10:03:37Z</time>
      </trkpt>
      <trkpt lat="44.93341" lon="5.64445">
        <ele>952</ele>
        <time>2010-04-30T10:03:41Z</time>
      </trkpt>
      <trkpt lat="44.93329" lon="5.64442">
        <ele>951</ele>
        <time>2010-04-30T10:03:47Z</time>
      </trkpt>
      <trkpt lat="44.93317" lon="5.6444">
        <ele>950</ele>
        <time>2010-04-30T10:03:54Z</time>
      </trkpt>
      <trkpt lat="44.93301" lon="5.64439">
        <ele>949</ele>
        <time>2010-04-30T10:04:01Z</time>
      </trkpt>
      <trkpt lat="44.93288" lon="5.64446">
        <ele>952</ele>
        <time>2010-04-30T10:04:07Z</time>
      </trkpt>
      <trkpt lat="44.93283" lon="5.64445">
        <ele>952</ele>
        <time>2010-04-30T10:04:09Z</time>
      </trkpt>
      <trkpt lat="44.93272" lon="5.64446">
        <ele>952</ele>
        <time>2010-04-30T10:04:14Z</time>
      </trkpt>
      <trkpt lat="44.93242" lon="5.6445">
        <ele>951</ele>
        <time>2010-04-30T10:04:26Z</time>
      </trkpt>
      <trkpt lat="44.93225" lon="5.64459">
        <ele>953</ele>
        <time>2010-04-30T10:04:33Z</time>
      </trkpt>
      <trkpt lat="44.93217" lon="5.64459">
        <ele>953</ele>
        <time>2010-04-30T10:04:36Z</time>
      </trkpt>
      <trkpt lat="44.93206" lon="5.6446">
        <ele>953</ele>
        <time>2010-04-30T10:04:42Z</time>
      </trkpt>
      <trkpt lat="44.93195" lon="5.64467">
        <ele>956</ele>
        <time>2010-04-30T10:04:49Z</time>
      </trkpt>
      <trkpt lat="44.9318" lon="5.64469">
        <ele>956</ele>
        <time>2010-04-30T10:04:57Z</time>
      </trkpt>
      <trkpt lat="44.93172" lon="5.64477">
        <ele>959</ele>
        <time>2010-04-30T10:05:04Z</time>
      </trkpt>
      <trkpt lat="44.9316" lon="5.64485">
        <ele>962</ele>
        <time>2010-04-30T10:05:11Z</time>
      </trkpt>
      <trkpt lat="44.93151" lon="5.64497">
        <ele>966</ele>
        <time>2010-04-30T10:05:20Z</time>
      </trkpt>
      <trkpt lat="44.93142" lon="5.64511">
        <ele>965</ele>
        <time>2010-04-30T10:05:27Z</time>
      </trkpt>
      <trkpt lat="44.93133" lon="5.64518">
        <ele>964</ele>
        <time>2010-04-30T10:05:33Z</time>
      </trkpt>
      <trkpt lat="44.93114" lon="5.6453">
        <ele>964</ele>
        <time>2010-04-30T10:05:42Z</time>
      </trkpt>
      <trkpt lat="44.93104" lon="5.6453">
        <ele>964</ele>
        <time>2010-04-30T10:05:46Z</time>
      </trkpt>
      <trkpt lat="44.93094" lon="5.64532">
        <ele>964</ele>
        <time>2010-04-30T10:05:48Z</time>
      </trkpt>
      <trkpt lat="44.93073" lon="5.64536">
        <ele>965</ele>
        <time>2010-04-30T10:05:53Z</time>
      </trkpt>
      <trkpt lat="44.9305" lon="5.64537">
        <ele>966</ele>
        <time>2010-04-30T10:05:58Z</time>
      </trkpt>
      <trkpt lat="44.9304" lon="5.64538">
        <ele>965</ele>
        <time>2010-04-30T10:06:01Z</time>
      </trkpt>
      <trkpt lat="44.93031" lon="5.64546">
        <ele>966</ele>
        <time>2010-04-30T10:06:09Z</time>
      </trkpt>
      <trkpt lat="44.93024" lon="5.64549">
        <ele>966</ele>
        <time>2010-04-30T10:06:20Z</time>
      </trkpt>
      <trkpt lat="44.93005" lon="5.64552">
        <ele>964</ele>
        <time>2010-04-30T10:06:25Z</time>
      </trkpt>
      <trkpt lat="44.92988" lon="5.64542">
        <ele>965</ele>
        <time>2010-04-30T10:06:28Z</time>
      </trkpt>
      <trkpt lat="44.92972" lon="5.64534">
        <ele>965</ele>
        <time>2010-04-30T10:06:32Z</time>
      </trkpt>
      <trkpt lat="44.92958" lon="5.64524">
        <ele>966</ele>
        <time>2010-04-30T10:06:39Z</time>
      </trkpt>
      <trkpt lat="44.92948" lon="5.64517">
        <ele>968</ele>
        <time>2010-04-30T10:06:46Z</time>
      </trkpt>
      <trkpt lat="44.92947" lon="5.64515">
        <ele>968</ele>
        <time>2010-04-30T10:06:47Z</time>
      </trkpt>
      <trkpt lat="44.92933" lon="5.64505">
        <ele>970</ele>
        <time>2010-04-30T10:06:54Z</time>
      </trkpt>
      <trkpt lat="44.92914" lon="5.6449">
        <ele>973</ele>
        <time>2010-04-30T10:07:02Z</time>
      </trkpt>
      <trkpt lat="44.92901" lon="5.64478">
        <ele>974</ele>
        <time>2010-04-30T10:07:08Z</time>
      </trkpt>
      <trkpt lat="44.92884" lon="5.6447">
        <ele>976</ele>
        <time>2010-04-30T10:07:15Z</time>
      </trkpt>
      <trkpt lat="44.92867" lon="5.64464">
        <ele>977</ele>
        <time>2010-04-30T10:07:24Z</time>
      </trkpt>
      <trkpt lat="44.92858" lon="5.64459">
        <ele>977</ele>
        <time>2010-04-30T10:07:30Z</time>
      </trkpt>
      <trkpt lat="44.92852" lon="5.64457">
        <ele>977</ele>
        <time>2010-04-30T10:07:38Z</time>
      </trkpt>
      <trkpt lat="44.92847" lon="5.64458">
        <ele>978</ele>
        <time>2010-04-30T10:07:44Z</time>
      </trkpt>
      <trkpt lat="44.92836" lon="5.64461">
        <ele>981</ele>
        <time>2010-04-30T10:07:54Z</time>
      </trkpt>
      <trkpt lat="44.9283" lon="5.64463">
        <ele>983</ele>
        <time>2010-04-30T10:07:58Z</time>
      </trkpt>
      <trkpt lat="44.9282" lon="5.64465">
        <ele>984</ele>
        <time>2010-04-30T10:08:06Z</time>
      </trkpt>
      <trkpt lat="44.92804" lon="5.64465">
        <ele>985</ele>
        <time>2010-04-30T10:08:20Z</time>
      </trkpt>
      <trkpt lat="44.9279" lon="5.64474">
        <ele>989</ele>
        <time>2010-04-30T10:08:32Z</time>
      </trkpt>
      <trkpt lat="44.92782" lon="5.64476">
        <ele>990</ele>
        <time>2010-04-30T10:08:41Z</time>
      </trkpt>
      <trkpt lat="44.92775" lon="5.64476">
        <ele>988</ele>
        <time>2010-04-30T10:08:45Z</time>
      </trkpt>
      <trkpt lat="44.9276" lon="5.6448">
        <ele>985</ele>
        <time>2010-04-30T10:08:53Z</time>
      </trkpt>
      <trkpt lat="44.92747" lon="5.64484">
        <ele>982</ele>
        <time>2010-04-30T10:09:01Z</time>
      </trkpt>
      <trkpt lat="44.92746" lon="5.64484">
        <ele>981</ele>
        <time>2010-04-30T10:09:02Z</time>
      </trkpt>
      <trkpt lat="44.92737" lon="5.64497">
        <ele>980</ele>
        <time>2010-04-30T10:09:11Z</time>
      </trkpt>
      <trkpt lat="44.92732" lon="5.64513">
        <ele>980</ele>
        <time>2010-04-30T10:09:19Z</time>
      </trkpt>
      <trkpt lat="44.92731" lon="5.64516">
        <ele>980</ele>
        <time>2010-04-30T10:09:20Z</time>
      </trkpt>
      <trkpt lat="44.92726" lon="5.64546">
        <ele>981</ele>
        <time>2010-04-30T10:09:26Z</time>
      </trkpt>
      <trkpt lat="44.92726" lon="5.64553">
        <ele>981</ele>
        <time>2010-04-30T10:09:27Z</time>
      </trkpt>
      <trkpt lat="44.92705" lon="5.64612">
        <ele>976</ele>
        <time>2010-04-30T10:09:33Z</time>
      </trkpt>
      <trkpt lat="44.92684" lon="5.6465">
        <ele>977</ele>
        <time>2010-04-30T10:09:38Z</time>
      </trkpt>
      <trkpt lat="44.92677" lon="5.6466">
        <ele>979</ele>
        <time>2010-04-30T10:09:42Z</time>
      </trkpt>
      <trkpt lat="44.92671" lon="5.64671">
        <ele>979</ele>
        <time>2010-04-30T10:09:52Z</time>
      </trkpt>
      <trkpt lat="44.92658" lon="5.64683">
        <ele>980</ele>
        <time>2010-04-30T10:10:01Z</time>
      </trkpt>
      <trkpt lat="44.92652" lon="5.64691">
        <ele>981</ele>
        <time>2010-04-30T10:10:09Z</time>
      </trkpt>
      <trkpt lat="44.92647" lon="5.64697">
        <ele>982</ele>
        <time>2010-04-30T10:10:15Z</time>
      </trkpt>
      <trkpt lat="44.92637" lon="5.64705">
        <ele>985</ele>
        <time>2010-04-30T10:10:25Z</time>
      </trkpt>
      <trkpt lat="44.92629" lon="5.64711">
        <ele>988</ele>
        <time>2010-04-30T10:10:33Z</time>
      </trkpt>
      <trkpt lat="44.92621" lon="5.64717">
        <ele>991</ele>
        <time>2010-04-30T10:10:41Z</time>
      </trkpt>
      <trkpt lat="44.92616" lon="5.64718">
        <ele>993</ele>
        <time>2010-04-30T10:10:47Z</time>
      </trkpt>
      <trkpt lat="44.9261" lon="5.64719">
        <ele>995</ele>
        <time>2010-04-30T10:10:53Z</time>
      </trkpt>
      <trkpt lat="44.92604" lon="5.64719">
        <ele>997</ele>
        <time>2010-04-30T10:10:58Z</time>
      </trkpt>
      <trkpt lat="44.92593" lon="5.64722">
        <ele>1000</ele>
        <time>2010-04-30T10:11:07Z</time>
      </trkpt>
      <trkpt lat="44.92589" lon="5.64723">
        <ele>1000</ele>
        <time>2010-04-30T10:11:11Z</time>
      </trkpt>
      <trkpt lat="44.92579" lon="5.64725">
        <ele>999</ele>
        <time>2010-04-30T10:11:20Z</time>
      </trkpt>
      <trkpt lat="44.92569" lon="5.6473">
        <ele>999</ele>
        <time>2010-04-30T10:11:29Z</time>
      </trkpt>
      <trkpt lat="44.92559" lon="5.64735">
        <ele>999</ele>
        <time>2010-04-30T10:11:37Z</time>
      </trkpt>
      <trkpt lat="44.92546" lon="5.64742">
        <ele>1000</ele>
        <time>2010-04-30T10:11:46Z</time>
      </trkpt>
      <trkpt lat="44.9253" lon="5.64746">
        <ele>1000</ele>
        <time>2010-04-30T10:11:55Z</time>
      </trkpt>
      <trkpt lat="44.92512" lon="5.64749">
        <ele>1000</ele>
        <time>2010-04-30T10:12:06Z</time>
      </trkpt>
      <trkpt lat="44.92498" lon="5.6475">
        <ele>999</ele>
        <time>2010-04-30T10:12:14Z</time>
      </trkpt>
      <trkpt lat="44.92491" lon="5.64745">
        <ele>998</ele>
        <time>2010-04-30T10:12:21Z</time>
      </trkpt>
      <trkpt lat="44.92483" lon="5.64743">
        <ele>997</ele>
        <time>2010-04-30T10:12:30Z</time>
      </trkpt>
      <trkpt lat="44.92465" lon="5.64735">
        <ele>995</ele>
        <time>2010-04-30T10:12:35Z</time>
      </trkpt>
      <trkpt lat="44.92445" lon="5.64723">
        <ele>992</ele>
        <time>2010-04-30T10:12:38Z</time>
      </trkpt>
      <trkpt lat="44.92419" lon="5.64708">
        <ele>989</ele>
        <time>2010-04-30T10:12:41Z</time>
      </trkpt>
      <trkpt lat="44.92392" lon="5.64689">
        <ele>984</ele>
        <time>2010-04-30T10:12:44Z</time>
      </trkpt>
      <trkpt lat="44.9236" lon="5.64667">
        <ele>981</ele>
        <time>2010-04-30T10:12:48Z</time>
      </trkpt>
      <trkpt lat="44.92309" lon="5.64627">
        <ele>978</ele>
        <time>2010-04-30T10:12:55Z</time>
      </trkpt>
      <trkpt lat="44.92273" lon="5.64593">
        <ele>977</ele>
        <time>2010-04-30T10:13:00Z</time>
      </trkpt>
      <trkpt lat="44.92245" lon="5.64567">
        <ele>978</ele>
        <time>2010-04-30T10:13:04Z</time>
      </trkpt>
      <trkpt lat="44.92231" lon="5.64559">
        <ele>978</ele>
        <time>2010-04-30T10:13:06Z</time>
      </trkpt>
      <trkpt lat="44.92204" lon="5.64545">
        <ele>978</ele>
        <time>2010-04-30T10:13:11Z</time>
      </trkpt>
      <trkpt lat="44.92183" lon="5.64539">
        <ele>979</ele>
        <time>2010-04-30T10:13:17Z</time>
      </trkpt>
      <trkpt lat="44.92161" lon="5.64529">
        <ele>980</ele>
        <time>2010-04-30T10:13:25Z</time>
      </trkpt>
      <trkpt lat="44.92146" lon="5.64524">
        <ele>982</ele>
        <time>2010-04-30T10:13:33Z</time>
      </trkpt>
      <trkpt lat="44.92135" lon="5.64521">
        <ele>983</ele>
        <time>2010-04-30T10:13:40Z</time>
      </trkpt>
      <trkpt lat="44.92117" lon="5.64518">
        <ele>986</ele>
        <time>2010-04-30T10:13:49Z</time>
      </trkpt>
      <trkpt lat="44.92103" lon="5.64514">
        <ele>988</ele>
        <time>2010-04-30T10:13:57Z</time>
      </trkpt>
      <trkpt lat="44.92087" lon="5.64511">
        <ele>992</ele>
        <time>2010-04-30T10:14:05Z</time>
      </trkpt>
      <trkpt lat="44.92071" lon="5.64508">
        <ele>995</ele>
        <time>2010-04-30T10:14:13Z</time>
      </trkpt>
      <trkpt lat="44.92056" lon="5.64507">
        <ele>998</ele>
        <time>2010-04-30T10:14:21Z</time>
      </trkpt>
      <trkpt lat="44.92038" lon="5.64507">
        <ele>999</ele>
        <time>2010-04-30T10:14:31Z</time>
      </trkpt>
      <trkpt lat="44.92034" lon="5.64506">
        <ele>1000</ele>
        <time>2010-04-30T10:14:34Z</time>
      </trkpt>
      <trkpt lat="44.92021" lon="5.64507">
        <ele>1001</ele>
        <time>2010-04-30T10:14:42Z</time>
      </trkpt>
      <trkpt lat="44.92006" lon="5.64506">
        <ele>1003</ele>
        <time>2010-04-30T10:14:50Z</time>
      </trkpt>
      <trkpt lat="44.9199" lon="5.64507">
        <ele>1004</ele>
        <time>2010-04-30T10:15:00Z</time>
      </trkpt>
      <trkpt lat="44.91986" lon="5.64506">
        <ele>1005</ele>
        <time>2010-04-30T10:15:02Z</time>
      </trkpt>
      <trkpt lat="44.91972" lon="5.64506">
        <ele>1006</ele>
        <time>2010-04-30T10:15:10Z</time>
      </trkpt>
      <trkpt lat="44.91969" lon="5.64505">
        <ele>1006</ele>
        <time>2010-04-30T10:15:12Z</time>
      </trkpt>
      <trkpt lat="44.91957" lon="5.64499">
        <ele>1007</ele>
        <time>2010-04-30T10:15:20Z</time>
      </trkpt>
      <trkpt lat="44.91956" lon="5.64497">
        <ele>1007</ele>
        <time>2010-04-30T10:15:21Z</time>
      </trkpt>
      <trkpt lat="44.91937" lon="5.64484">
        <ele>1008</ele>
        <time>2010-04-30T10:15:31Z</time>
      </trkpt>
      <trkpt lat="44.91922" lon="5.64474">
        <ele>1006</ele>
        <time>2010-04-30T10:15:37Z</time>
      </trkpt>
      <trkpt lat="44.91911" lon="5.64468">
        <ele>1005</ele>
        <time>2010-04-30T10:15:40Z</time>
      </trkpt>
      <trkpt lat="44.91889" lon="5.64457">
        <ele>1002</ele>
        <time>2010-04-30T10:15:44Z</time>
      </trkpt>
      <trkpt lat="44.91865" lon="5.64448">
        <ele>998</ele>
        <time>2010-04-30T10:15:47Z</time>
      </trkpt>
      <trkpt lat="44.91845" lon="5.64442">
        <ele>996</ele>
        <time>2010-04-30T10:15:49Z</time>
      </trkpt>
      <trkpt lat="44.91785" lon="5.64418">
        <ele>990</ele>
        <time>2010-04-30T10:15:55Z</time>
      </trkpt>
      <trkpt lat="44.91774" lon="5.64414">
        <ele>990</ele>
        <time>2010-04-30T10:15:56Z</time>
      </trkpt>
      <trkpt lat="44.91729" lon="5.64393">
        <ele>992</ele>
        <time>2010-04-30T10:16:01Z</time>
      </trkpt>
      <trkpt lat="44.91723" lon="5.64389">
        <ele>993</ele>
        <time>2010-04-30T10:16:02Z</time>
      </trkpt>
      <trkpt lat="44.91708" lon="5.64381">
        <ele>996</ele>
        <time>2010-04-30T10:16:07Z</time>
      </trkpt>
      <trkpt lat="44.91702" lon="5.64376">
        <ele>997</ele>
        <time>2010-04-30T10:16:14Z</time>
      </trkpt>
      <trkpt lat="44.91691" lon="5.64366">
        <ele>1000</ele>
        <time>2010-04-30T10:16:25Z</time>
      </trkpt>
      <trkpt lat="44.91683" lon="5.64359">
        <ele>1002</ele>
        <time>2010-04-30T10:16:35Z</time>
      </trkpt>
      <trkpt lat="44.91674" lon="5.64349">
        <ele>1005</ele>
        <time>2010-04-30T10:16:46Z</time>
      </trkpt>
      <trkpt lat="44.91667" lon="5.64345">
        <ele>1006</ele>
        <time>2010-04-30T10:16:54Z</time>
      </trkpt>
      <trkpt lat="44.91663" lon="5.64338">
        <ele>1007</ele>
        <time>2010-04-30T10:17:01Z</time>
      </trkpt>
      <trkpt lat="44.91659" lon="5.64331">
        <ele>1007</ele>
        <time>2010-04-30T10:17:10Z</time>
      </trkpt>
      <trkpt lat="44.91654" lon="5.64325">
        <ele>1008</ele>
        <time>2010-04-30T10:17:20Z</time>
      </trkpt>
      <trkpt lat="44.91646" lon="5.64321">
        <ele>1008</ele>
        <time>2010-04-30T10:17:30Z</time>
      </trkpt>
      <trkpt lat="44.91638" lon="5.64313">
        <ele>1009</ele>
        <time>2010-04-30T10:17:40Z</time>
      </trkpt>
      <trkpt lat="44.9163" lon="5.64307">
        <ele>1009</ele>
        <time>2010-04-30T10:17:49Z</time>
      </trkpt>
      <trkpt lat="44.91625" lon="5.64305">
        <ele>1009</ele>
        <time>2010-04-30T10:17:54Z</time>
      </trkpt>
      <trkpt lat="44.91616" lon="5.64296">
        <ele>1010</ele>
        <time>2010-04-30T10:18:05Z</time>
      </trkpt>
      <trkpt lat="44.91613" lon="5.64289">
        <ele>1010</ele>
        <time>2010-04-30T10:18:12Z</time>
      </trkpt>
      <trkpt lat="44.91606" lon="5.64282">
        <ele>1010</ele>
        <time>2010-04-30T10:18:24Z</time>
      </trkpt>
      <trkpt lat="44.91593" lon="5.64278">
        <ele>1009</ele>
        <time>2010-04-30T10:18:29Z</time>
      </trkpt>
      <trkpt lat="44.91573" lon="5.64269">
        <ele>1008</ele>
        <time>2010-04-30T10:18:33Z</time>
      </trkpt>
      <trkpt lat="44.9155" lon="5.64261">
        <ele>1007</ele>
        <time>2010-04-30T10:18:36Z</time>
      </trkpt>
      <trkpt lat="44.91533" lon="5.64255">
        <ele>1007</ele>
        <time>2010-04-30T10:18:38Z</time>
      </trkpt>
      <trkpt lat="44.91511" lon="5.64248">
        <ele>1007</ele>
        <time>2010-04-30T10:18:41Z</time>
      </trkpt>
      <trkpt lat="44.91492" lon="5.6424">
        <ele>1008</ele>
        <time>2010-04-30T10:18:46Z</time>
      </trkpt>
      <trkpt lat="44.91488" lon="5.64237">
        <ele>1008</ele>
        <time>2010-04-30T10:18:48Z</time>
      </trkpt>
      <trkpt lat="44.91463" lon="5.64225">
        <ele>1011</ele>
        <time>2010-04-30T10:18:58Z</time>
      </trkpt>
      <trkpt lat="44.91444" lon="5.64217">
        <ele>1014</ele>
        <time>2010-04-30T10:19:07Z</time>
      </trkpt>
      <trkpt lat="44.91432" lon="5.64211">
        <ele>1017</ele>
        <time>2010-04-30T10:19:14Z</time>
      </trkpt>
      <trkpt lat="44.9142" lon="5.64207">
        <ele>1020</ele>
        <time>2010-04-30T10:19:21Z</time>
      </trkpt>
      <trkpt lat="44.91408" lon="5.64207">
        <ele>1022</ele>
        <time>2010-04-30T10:19:29Z</time>
      </trkpt>
      <trkpt lat="44.91395" lon="5.64206">
        <ele>1024</ele>
        <time>2010-04-30T10:19:37Z</time>
      </trkpt>
      <trkpt lat="44.91382" lon="5.642">
        <ele>1027</ele>
        <time>2010-04-30T10:19:46Z</time>
      </trkpt>
      <trkpt lat="44.9138" lon="5.64198">
        <ele>1027</ele>
        <time>2010-04-30T10:19:47Z</time>
      </trkpt>
      <trkpt lat="44.91375" lon="5.64196">
        <ele>1028</ele>
        <time>2010-04-30T10:19:50Z</time>
      </trkpt>
      <trkpt lat="44.91363" lon="5.64191">
        <ele>1030</ele>
        <time>2010-04-30T10:19:58Z</time>
      </trkpt>
      <trkpt lat="44.91347" lon="5.64185">
        <ele>1033</ele>
        <time>2010-04-30T10:20:08Z</time>
      </trkpt>
      <trkpt lat="44.9133" lon="5.64178">
        <ele>1035</ele>
        <time>2010-04-30T10:20:18Z</time>
      </trkpt>
      <trkpt lat="44.91317" lon="5.64172">
        <ele>1037</ele>
        <time>2010-04-30T10:20:26Z</time>
      </trkpt>
      <trkpt lat="44.91311" lon="5.64169">
        <ele>1039</ele>
        <time>2010-04-30T10:20:30Z</time>
      </trkpt>
      <trkpt lat="44.913" lon="5.6416">
        <ele>1041</ele>
        <time>2010-04-30T10:20:37Z</time>
      </trkpt>
      <trkpt lat="44.91285" lon="5.64145">
        <ele>1044</ele>
        <time>2010-04-30T10:20:47Z</time>
      </trkpt>
      <trkpt lat="44.91273" lon="5.64137">
        <ele>1046</ele>
        <time>2010-04-30T10:20:53Z</time>
      </trkpt>
      <trkpt lat="44.91263" lon="5.64131">
        <ele>1047</ele>
        <time>2010-04-30T10:21:00Z</time>
      </trkpt>
      <trkpt lat="44.91247" lon="5.64125">
        <ele>1046</ele>
        <time>2010-04-30T10:21:09Z</time>
      </trkpt>
      <trkpt lat="44.91235" lon="5.64121">
        <ele>1045</ele>
        <time>2010-04-30T10:21:15Z</time>
      </trkpt>
      <trkpt lat="44.91218" lon="5.64116">
        <ele>1044</ele>
        <time>2010-04-30T10:21:23Z</time>
      </trkpt>
      <trkpt lat="44.91202" lon="5.64113">
        <ele>1045</ele>
        <time>2010-04-30T10:21:30Z</time>
      </trkpt>
      <trkpt lat="44.91186" lon="5.64108">
        <ele>1045</ele>
        <time>2010-04-30T10:21:37Z</time>
      </trkpt>
      <trkpt lat="44.91164" lon="5.64106">
        <ele>1047</ele>
        <time>2010-04-30T10:21:46Z</time>
      </trkpt>
      <trkpt lat="44.9114" lon="5.641">
        <ele>1049</ele>
        <time>2010-04-30T10:21:55Z</time>
      </trkpt>
      <trkpt lat="44.91122" lon="5.64101">
        <ele>1051</ele>
        <time>2010-04-30T10:22:02Z</time>
      </trkpt>
      <trkpt lat="44.91104" lon="5.64096">
        <ele>1053</ele>
        <time>2010-04-30T10:22:09Z</time>
      </trkpt>
      <trkpt lat="44.91085" lon="5.64095">
        <ele>1055</ele>
        <time>2010-04-30T10:22:17Z</time>
      </trkpt>
      <trkpt lat="44.91066" lon="5.64091">
        <ele>1052</ele>
        <time>2010-04-30T10:22:25Z</time>
      </trkpt>
      <trkpt lat="44.91048" lon="5.64082">
        <ele>1050</ele>
        <time>2010-04-30T10:22:33Z</time>
      </trkpt>
      <trkpt lat="44.91037" lon="5.64065">
        <ele>1049</ele>
        <time>2010-04-30T10:22:38Z</time>
      </trkpt>
      <trkpt lat="44.91025" lon="5.64047">
        <ele>1047</ele>
        <time>2010-04-30T10:22:41Z</time>
      </trkpt>
      <trkpt lat="44.9102" lon="5.64038">
        <ele>1046</ele>
        <time>2010-04-30T10:22:42Z</time>
      </trkpt>
      <trkpt lat="44.91" lon="5.64011">
        <ele>1044</ele>
        <time>2010-04-30T10:22:45Z</time>
      </trkpt>
      <trkpt lat="44.90992" lon="5.64002">
        <ele>1044</ele>
        <time>2010-04-30T10:22:46Z</time>
      </trkpt>
      <trkpt lat="44.90984" lon="5.63993">
        <ele>1044</ele>
        <time>2010-04-30T10:22:47Z</time>
      </trkpt>
      <trkpt lat="44.90938" lon="5.63968">
        <ele>1041</ele>
        <time>2010-04-30T10:22:53Z</time>
      </trkpt>
      <trkpt lat="44.9093" lon="5.63965">
        <ele>1041</ele>
        <time>2010-04-30T10:22:54Z</time>
      </trkpt>
      <trkpt lat="44.90886" lon="5.63967">
        <ele>1039</ele>
        <time>2010-04-30T10:22:59Z</time>
      </trkpt>
      <trkpt lat="44.90869" lon="5.63969">
        <ele>1039</ele>
        <time>2010-04-30T10:23:01Z</time>
      </trkpt>
      <trkpt lat="44.90821" lon="5.63998">
        <ele>1037</ele>
        <time>2010-04-30T10:23:07Z</time>
      </trkpt>
      <trkpt lat="44.90812" lon="5.64003">
        <ele>1035</ele>
        <time>2010-04-30T10:23:08Z</time>
      </trkpt>
      <trkpt lat="44.90783" lon="5.64017">
        <ele>1030</ele>
        <time>2010-04-30T10:23:11Z</time>
      </trkpt>
      <trkpt lat="44.90733" lon="5.64023">
        <ele>1022</ele>
        <time>2010-04-30T10:23:16Z</time>
      </trkpt>
      <trkpt lat="44.90711" lon="5.64023">
        <ele>1019</ele>
        <time>2010-04-30T10:23:18Z</time>
      </trkpt>
      <trkpt lat="44.90688" lon="5.6402">
        <ele>1017</ele>
        <time>2010-04-30T10:23:20Z</time>
      </trkpt>
      <trkpt lat="44.90662" lon="5.64021">
        <ele>1014</ele>
        <time>2010-04-30T10:23:22Z</time>
      </trkpt>
      <trkpt lat="44.90635" lon="5.6402">
        <ele>1011</ele>
        <time>2010-04-30T10:23:24Z</time>
      </trkpt>
      <trkpt lat="44.90597" lon="5.64028">
        <ele>1008</ele>
        <time>2010-04-30T10:23:27Z</time>
      </trkpt>
      <trkpt lat="44.90555" lon="5.64022">
        <ele>1005</ele>
        <time>2010-04-30T10:23:31Z</time>
      </trkpt>
      <trkpt lat="44.90544" lon="5.64022">
        <ele>1004</ele>
        <time>2010-04-30T10:23:32Z</time>
      </trkpt>
      <trkpt lat="44.90522" lon="5.64025">
        <ele>1007</ele>
        <time>2010-04-30T10:23:34Z</time>
      </trkpt>
      <trkpt lat="44.90498" lon="5.64025">
        <ele>1010</ele>
        <time>2010-04-30T10:23:37Z</time>
      </trkpt>
      <trkpt lat="44.90477" lon="5.64026">
        <ele>1015</ele>
        <time>2010-04-30T10:23:42Z</time>
      </trkpt>
      <trkpt lat="44.90474" lon="5.64027">
        <ele>1016</ele>
        <time>2010-04-30T10:23:43Z</time>
      </trkpt>
      <trkpt lat="44.9046" lon="5.64035">
        <ele>1019</ele>
        <time>2010-04-30T10:23:50Z</time>
      </trkpt>
      <trkpt lat="44.90449" lon="5.64045">
        <ele>1021</ele>
        <time>2010-04-30T10:23:57Z</time>
      </trkpt>
      <trkpt lat="44.90437" lon="5.64067">
        <ele>1024</ele>
        <time>2010-04-30T10:24:05Z</time>
      </trkpt>
      <trkpt lat="44.9042" lon="5.64101">
        <ele>1029</ele>
        <time>2010-04-30T10:24:16Z</time>
      </trkpt>
      <trkpt lat="44.90418" lon="5.64116">
        <ele>1030</ele>
        <time>2010-04-30T10:24:23Z</time>
      </trkpt>
      <trkpt lat="44.90415" lon="5.64134">
        <ele>1030</ele>
        <time>2010-04-30T10:24:30Z</time>
      </trkpt>
      <trkpt lat="44.90411" lon="5.64157">
        <ele>1030</ele>
        <time>2010-04-30T10:24:37Z</time>
      </trkpt>
      <trkpt lat="44.90406" lon="5.64176">
        <ele>1029</ele>
        <time>2010-04-30T10:24:44Z</time>
      </trkpt>
      <trkpt lat="44.90394" lon="5.64195">
        <ele>1030</ele>
        <time>2010-04-30T10:24:51Z</time>
      </trkpt>
      <trkpt lat="44.90379" lon="5.64212">
        <ele>1033</ele>
        <time>2010-04-30T10:24:59Z</time>
      </trkpt>
      <trkpt lat="44.90375" lon="5.64215">
        <ele>1033</ele>
        <time>2010-04-30T10:25:01Z</time>
      </trkpt>
      <trkpt lat="44.90367" lon="5.64218">
        <ele>1035</ele>
        <time>2010-04-30T10:25:06Z</time>
      </trkpt>
      <trkpt lat="44.90367" lon="5.64217">
        <ele>1036</ele>
        <time>2010-04-30T10:25:07Z</time>
      </trkpt>
      <trkpt lat="44.90375" lon="5.64201">
        <ele>1036</ele>
        <time>2010-04-30T10:25:15Z</time>
      </trkpt>
      <trkpt lat="44.90383" lon="5.64188">
        <ele>1035</ele>
        <time>2010-04-30T10:25:22Z</time>
      </trkpt>
      <trkpt lat="44.90388" lon="5.64174">
        <ele>1035</ele>
        <time>2010-04-30T10:25:29Z</time>
      </trkpt>
      <trkpt lat="44.90391" lon="5.64159">
        <ele>1036</ele>
        <time>2010-04-30T10:25:35Z</time>
      </trkpt>
      <trkpt lat="44.90394" lon="5.64143">
        <ele>1038</ele>
        <time>2010-04-30T10:25:42Z</time>
      </trkpt>
      <trkpt lat="44.9039" lon="5.64128">
        <ele>1040</ele>
        <time>2010-04-30T10:25:49Z</time>
      </trkpt>
      <trkpt lat="44.90385" lon="5.64108">
        <ele>1044</ele>
        <time>2010-04-30T10:25:58Z</time>
      </trkpt>
      <trkpt lat="44.90381" lon="5.6409">
        <ele>1048</ele>
        <time>2010-04-30T10:26:06Z</time>
      </trkpt>
      <trkpt lat="44.9038" lon="5.64074">
        <ele>1049</ele>
        <time>2010-04-30T10:26:13Z</time>
      </trkpt>
      <trkpt lat="44.90375" lon="5.64057">
        <ele>1051</ele>
        <time>2010-04-30T10:26:22Z</time>
      </trkpt>
      <trkpt lat="44.90373" lon="5.64052">
        <ele>1052</ele>
        <time>2010-04-30T10:26:25Z</time>
      </trkpt>
      <trkpt lat="44.90368" lon="5.64046">
        <ele>1054</ele>
        <time>2010-04-30T10:26:34Z</time>
      </trkpt>
      <trkpt lat="44.90366" lon="5.64047">
        <ele>1055</ele>
        <time>2010-04-30T10:26:37Z</time>
      </trkpt>
      <trkpt lat="44.90362" lon="5.64051">
        <ele>1055</ele>
        <time>2010-04-30T10:26:47Z</time>
      </trkpt>
      <trkpt lat="44.90355" lon="5.64053">
        <ele>1056</ele>
        <time>2010-04-30T10:26:59Z</time>
      </trkpt>
      <trkpt lat="44.90348" lon="5.64053">
        <ele>1056</ele>
        <time>2010-04-30T10:27:09Z</time>
      </trkpt>
      <trkpt lat="44.90336" lon="5.64065">
        <ele>1058</ele>
        <time>2010-04-30T10:27:19Z</time>
      </trkpt>
      <trkpt lat="44.90327" lon="5.64066">
        <ele>1059</ele>
        <time>2010-04-30T10:27:27Z</time>
      </trkpt>
      <trkpt lat="44.90319" lon="5.64066">
        <ele>1059</ele>
        <time>2010-04-30T10:27:37Z</time>
      </trkpt>
      <trkpt lat="44.90302" lon="5.64067">
        <ele>1055</ele>
        <time>2010-04-30T10:29:23Z</time>
      </trkpt>
      <trkpt lat="44.90299" lon="5.64066">
        <ele>1055</ele>
        <time>2010-04-30T10:29:24Z</time>
      </trkpt>
      <trkpt lat="44.9028" lon="5.64063">
        <ele>1050</ele>
        <time>2010-04-30T10:29:28Z</time>
      </trkpt>
      <trkpt lat="44.90264" lon="5.64053">
        <ele>1047</ele>
        <time>2010-04-30T10:29:32Z</time>
      </trkpt>
      <trkpt lat="44.90258" lon="5.64047">
        <ele>1046</ele>
        <time>2010-04-30T10:29:33Z</time>
      </trkpt>
      <trkpt lat="44.9023" lon="5.64011">
        <ele>1044</ele>
        <time>2010-04-30T10:29:37Z</time>
      </trkpt>
      <trkpt lat="44.90204" lon="5.64004">
        <ele>1040</ele>
        <time>2010-04-30T10:29:40Z</time>
      </trkpt>
      <trkpt lat="44.90182" lon="5.63993">
        <ele>1036</ele>
        <time>2010-04-30T10:29:43Z</time>
      </trkpt>
      <trkpt lat="44.90174" lon="5.63987">
        <ele>1034</ele>
        <time>2010-04-30T10:29:44Z</time>
      </trkpt>
      <trkpt lat="44.90133" lon="5.63954">
        <ele>1024</ele>
        <time>2010-04-30T10:29:49Z</time>
      </trkpt>
      <trkpt lat="44.90125" lon="5.63948">
        <ele>1022</ele>
        <time>2010-04-30T10:29:50Z</time>
      </trkpt>
      <trkpt lat="44.901" lon="5.63927">
        <ele>1017</ele>
        <time>2010-04-30T10:29:55Z</time>
      </trkpt>
      <trkpt lat="44.90089" lon="5.6392">
        <ele>1016</ele>
        <time>2010-04-30T10:29:57Z</time>
      </trkpt>
      <trkpt lat="44.9008" lon="5.63912">
        <ele>1014</ele>
        <time>2010-04-30T10:30:00Z</time>
      </trkpt>
      <trkpt lat="44.90071" lon="5.63909">
        <ele>1013</ele>
        <time>2010-04-30T10:31:45Z</time>
      </trkpt>
      <trkpt lat="44.90061" lon="5.63907">
        <ele>1012</ele>
        <time>2010-04-30T10:31:47Z</time>
      </trkpt>
      <trkpt lat="44.90048" lon="5.63904">
        <ele>1010</ele>
        <time>2010-04-30T10:31:49Z</time>
      </trkpt>
      <trkpt lat="44.90027" lon="5.63898">
        <ele>1007</ele>
        <time>2010-04-30T10:31:53Z</time>
      </trkpt>
      <trkpt lat="44.90014" lon="5.63881">
        <ele>1006</ele>
        <time>2010-04-30T10:31:57Z</time>
      </trkpt>
      <trkpt lat="44.90006" lon="5.6387">
        <ele>1005</ele>
        <time>2010-04-30T10:32:01Z</time>
      </trkpt>
      <trkpt lat="44.89999" lon="5.63863">
        <ele>1003</ele>
        <time>2010-04-30T10:32:03Z</time>
      </trkpt>
      <trkpt lat="44.89983" lon="5.63855">
        <ele>999</ele>
        <time>2010-04-30T10:32:06Z</time>
      </trkpt>
      <trkpt lat="44.89974" lon="5.63849">
        <ele>997</ele>
        <time>2010-04-30T10:32:08Z</time>
      </trkpt>
      <trkpt lat="44.89968" lon="5.63847">
        <ele>996</ele>
        <time>2010-04-30T10:32:12Z</time>
      </trkpt>
      <trkpt lat="44.89963" lon="5.63843">
        <ele>994</ele>
        <time>2010-04-30T10:33:00Z</time>
      </trkpt>
      <trkpt lat="44.8996" lon="5.63841">
        <ele>993</ele>
        <time>2010-04-30T10:33:35Z</time>
      </trkpt>
      <trkpt lat="44.8996" lon="5.6384">
        <ele>993</ele>
        <time>2010-04-30T10:33:56Z</time>
      </trkpt>
      <trkpt lat="44.89959" lon="5.63846">
        <ele>993</ele>
        <time>2010-04-30T10:34:27Z</time>
      </trkpt>
      <trkpt lat="44.89944" lon="5.63846">
        <ele>989</ele>
        <time>2010-04-30T10:34:33Z</time>
      </trkpt>
      <trkpt lat="44.89933" lon="5.63848">
        <ele>987</ele>
        <time>2010-04-30T10:34:39Z</time>
      </trkpt>
      <trkpt lat="44.89926" lon="5.63848">
        <ele>985</ele>
        <time>2010-04-30T10:34:45Z</time>
      </trkpt>
      <trkpt lat="44.89914" lon="5.63855">
        <ele>982</ele>
        <time>2010-04-30T10:34:50Z</time>
      </trkpt>
      <trkpt lat="44.89905" lon="5.63861">
        <ele>980</ele>
        <time>2010-04-30T10:34:55Z</time>
      </trkpt>
      <trkpt lat="44.89901" lon="5.63866">
        <ele>979</ele>
        <time>2010-04-30T10:35:02Z</time>
      </trkpt>
      <trkpt lat="44.89894" lon="5.63867">
        <ele>977</ele>
        <time>2010-04-30T10:35:05Z</time>
      </trkpt>
      <trkpt lat="44.89889" lon="5.63869">
        <ele>975</ele>
        <time>2010-04-30T10:35:07Z</time>
      </trkpt>
      <trkpt lat="44.89883" lon="5.63868">
        <ele>974</ele>
        <time>2010-04-30T10:35:13Z</time>
      </trkpt>
      <trkpt lat="44.89872" lon="5.63877">
        <ele>971</ele>
        <time>2010-04-30T10:35:19Z</time>
      </trkpt>
      <trkpt lat="44.89857" lon="5.63882">
        <ele>967</ele>
        <time>2010-04-30T10:35:25Z</time>
      </trkpt>
      <trkpt lat="44.89841" lon="5.63892">
        <ele>964</ele>
        <time>2010-04-30T10:35:29Z</time>
      </trkpt>
      <trkpt lat="44.8983" lon="5.639">
        <ele>961</ele>
        <time>2010-04-30T10:35:33Z</time>
      </trkpt>
      <trkpt lat="44.89826" lon="5.63903">
        <ele>960</ele>
        <time>2010-04-30T10:35:46Z</time>
      </trkpt>
      <trkpt lat="44.89808" lon="5.63903">
        <ele>958</ele>
        <time>2010-04-30T10:35:54Z</time>
      </trkpt>
      <trkpt lat="44.89795" lon="5.63894">
        <ele>957</ele>
        <time>2010-04-30T10:35:58Z</time>
      </trkpt>
      <trkpt lat="44.89789" lon="5.63865">
        <ele>957</ele>
        <time>2010-04-30T10:36:04Z</time>
      </trkpt>
      <trkpt lat="44.89789" lon="5.63859">
        <ele>958</ele>
        <time>2010-04-30T10:36:05Z</time>
      </trkpt>
      <trkpt lat="44.89791" lon="5.6385">
        <ele>957</ele>
        <time>2010-04-30T10:36:07Z</time>
      </trkpt>
      <trkpt lat="44.89782" lon="5.6385">
        <ele>955</ele>
        <time>2010-04-30T10:36:12Z</time>
      </trkpt>
      <trkpt lat="44.8978" lon="5.63853">
        <ele>955</ele>
        <time>2010-04-30T10:36:13Z</time>
      </trkpt>
      <trkpt lat="44.89773" lon="5.63862">
        <ele>954</ele>
        <time>2010-04-30T10:36:15Z</time>
      </trkpt>
      <trkpt lat="44.89737" lon="5.63897">
        <ele>947</ele>
        <time>2010-04-30T10:36:24Z</time>
      </trkpt>
      <trkpt lat="44.89716" lon="5.63913">
        <ele>948</ele>
        <time>2010-04-30T10:36:30Z</time>
      </trkpt>
      <trkpt lat="44.89708" lon="5.63935">
        <ele>949</ele>
        <time>2010-04-30T10:36:37Z</time>
      </trkpt>
      <trkpt lat="44.89702" lon="5.63956">
        <ele>950</ele>
        <time>2010-04-30T10:36:45Z</time>
      </trkpt>
      <trkpt lat="44.89693" lon="5.63976">
        <ele>952</ele>
        <time>2010-04-30T10:36:53Z</time>
      </trkpt>
      <trkpt lat="44.89682" lon="5.63996">
        <ele>954</ele>
        <time>2010-04-30T10:37:04Z</time>
      </trkpt>
      <trkpt lat="44.89677" lon="5.64003">
        <ele>955</ele>
        <time>2010-04-30T10:37:09Z</time>
      </trkpt>
      <trkpt lat="44.8967" lon="5.64015">
        <ele>956</ele>
        <time>2010-04-30T10:37:17Z</time>
      </trkpt>
      <trkpt lat="44.89666" lon="5.64022">
        <ele>958</ele>
        <time>2010-04-30T10:37:23Z</time>
      </trkpt>
      <trkpt lat="44.89659" lon="5.64046">
        <ele>961</ele>
        <time>2010-04-30T10:37:35Z</time>
      </trkpt>
      <trkpt lat="44.89651" lon="5.64062">
        <ele>964</ele>
        <time>2010-04-30T10:37:48Z</time>
      </trkpt>
      <trkpt lat="44.89645" lon="5.64078">
        <ele>967</ele>
        <time>2010-04-30T10:37:59Z</time>
      </trkpt>
      <trkpt lat="44.89643" lon="5.64092">
        <ele>968</ele>
        <time>2010-04-30T10:38:07Z</time>
      </trkpt>
      <trkpt lat="44.89645" lon="5.64111">
        <ele>969</ele>
        <time>2010-04-30T10:38:16Z</time>
      </trkpt>
      <trkpt lat="44.89645" lon="5.64135">
        <ele>970</ele>
        <time>2010-04-30T10:38:26Z</time>
      </trkpt>
      <trkpt lat="44.89644" lon="5.64153">
        <ele>972</ele>
        <time>2010-04-30T10:38:36Z</time>
      </trkpt>
      <trkpt lat="44.89644" lon="5.6416">
        <ele>972</ele>
        <time>2010-04-30T10:38:38Z</time>
      </trkpt>
      <trkpt lat="44.89642" lon="5.64178">
        <ele>972</ele>
        <time>2010-04-30T10:38:46Z</time>
      </trkpt>
      <trkpt lat="44.89636" lon="5.64194">
        <ele>973</ele>
        <time>2010-04-30T10:38:53Z</time>
      </trkpt>
      <trkpt lat="44.89635" lon="5.64196">
        <ele>974</ele>
        <time>2010-04-30T10:38:54Z</time>
      </trkpt>
      <trkpt lat="44.89629" lon="5.64211">
        <ele>975</ele>
        <time>2010-04-30T10:39:02Z</time>
      </trkpt>
      <trkpt lat="44.89624" lon="5.64232">
        <ele>975</ele>
        <time>2010-04-30T10:39:10Z</time>
      </trkpt>
      <trkpt lat="44.89619" lon="5.64253">
        <ele>975</ele>
        <time>2010-04-30T10:39:18Z</time>
      </trkpt>
      <trkpt lat="44.89606" lon="5.64271">
        <ele>978</ele>
        <time>2010-04-30T10:39:27Z</time>
      </trkpt>
      <trkpt lat="44.89603" lon="5.64275">
        <ele>978</ele>
        <time>2010-04-30T10:39:28Z</time>
      </trkpt>
      <trkpt lat="44.8959" lon="5.64297">
        <ele>980</ele>
        <time>2010-04-30T10:39:36Z</time>
      </trkpt>
      <trkpt lat="44.89573" lon="5.64324">
        <ele>982</ele>
        <time>2010-04-30T10:39:44Z</time>
      </trkpt>
      <trkpt lat="44.89563" lon="5.64336">
        <ele>983</ele>
        <time>2010-04-30T10:39:51Z</time>
      </trkpt>
      <trkpt lat="44.89542" lon="5.64364">
        <ele>984</ele>
        <time>2010-04-30T10:40:03Z</time>
      </trkpt>
      <trkpt lat="44.89531" lon="5.64378">
        <ele>985</ele>
        <time>2010-04-30T10:40:10Z</time>
      </trkpt>
      <trkpt lat="44.89524" lon="5.64398">
        <ele>983</ele>
        <time>2010-04-30T10:40:18Z</time>
      </trkpt>
      <trkpt lat="44.89509" lon="5.64439">
        <ele>981</ele>
        <time>2010-04-30T10:40:26Z</time>
      </trkpt>
      <trkpt lat="44.89507" lon="5.64446">
        <ele>980</ele>
        <time>2010-04-30T10:40:28Z</time>
      </trkpt>
      <trkpt lat="44.89497" lon="5.64492">
        <ele>981</ele>
        <time>2010-04-30T10:40:34Z</time>
      </trkpt>
      <trkpt lat="44.89497" lon="5.64506">
        <ele>980</ele>
        <time>2010-04-30T10:40:37Z</time>
      </trkpt>
      <trkpt lat="44.89496" lon="5.64519">
        <ele>979</ele>
        <time>2010-04-30T10:40:39Z</time>
      </trkpt>
      <trkpt lat="44.89504" lon="5.64545">
        <ele>976</ele>
        <time>2010-04-30T10:40:46Z</time>
      </trkpt>
      <trkpt lat="44.89511" lon="5.64568">
        <ele>974</ele>
        <time>2010-04-30T10:40:52Z</time>
      </trkpt>
      <trkpt lat="44.8951" lon="5.64608">
        <ele>976</ele>
        <time>2010-04-30T10:40:56Z</time>
      </trkpt>
      <trkpt lat="44.89513" lon="5.64653">
        <ele>976</ele>
        <time>2010-04-30T10:41:01Z</time>
      </trkpt>
      <trkpt lat="44.89501" lon="5.64706">
        <ele>978</ele>
        <time>2010-04-30T10:41:06Z</time>
      </trkpt>
      <trkpt lat="44.89486" lon="5.64732">
        <ele>978</ele>
        <time>2010-04-30T10:41:11Z</time>
      </trkpt>
      <trkpt lat="44.89456" lon="5.64753">
        <ele>978</ele>
        <time>2010-04-30T10:41:20Z</time>
      </trkpt>
      <trkpt lat="44.89433" lon="5.64768">
        <ele>977</ele>
        <time>2010-04-30T10:41:26Z</time>
      </trkpt>
      <trkpt lat="44.89419" lon="5.64773">
        <ele>977</ele>
        <time>2010-04-30T10:41:31Z</time>
      </trkpt>
      <trkpt lat="44.89392" lon="5.64781">
        <ele>977</ele>
        <time>2010-04-30T10:41:38Z</time>
      </trkpt>
      <trkpt lat="44.89367" lon="5.64786">
        <ele>978</ele>
        <time>2010-04-30T10:41:45Z</time>
      </trkpt>
      <trkpt lat="44.89343" lon="5.64795">
        <ele>978</ele>
        <time>2010-04-30T10:41:51Z</time>
      </trkpt>
      <trkpt lat="44.89314" lon="5.648">
        <ele>978</ele>
        <time>2010-04-30T10:41:59Z</time>
      </trkpt>
      <trkpt lat="44.89296" lon="5.64799">
        <ele>980</ele>
        <time>2010-04-30T10:42:05Z</time>
      </trkpt>
      <trkpt lat="44.8928" lon="5.64802">
        <ele>981</ele>
        <time>2010-04-30T10:42:10Z</time>
      </trkpt>
      <trkpt lat="44.89263" lon="5.6481">
        <ele>981</ele>
        <time>2010-04-30T10:42:15Z</time>
      </trkpt>
      <trkpt lat="44.8923" lon="5.6483">
        <ele>979</ele>
        <time>2010-04-30T10:42:24Z</time>
      </trkpt>
      <trkpt lat="44.89202" lon="5.64843">
        <ele>979</ele>
        <time>2010-04-30T10:42:33Z</time>
      </trkpt>
      <trkpt lat="44.8918" lon="5.64857">
        <ele>980</ele>
        <time>2010-04-30T10:42:39Z</time>
      </trkpt>
      <trkpt lat="44.89174" lon="5.64856">
        <ele>981</ele>
        <time>2010-04-30T10:42:41Z</time>
      </trkpt>
      <trkpt lat="44.89153" lon="5.64866">
        <ele>982</ele>
        <time>2010-04-30T10:42:47Z</time>
      </trkpt>
      <trkpt lat="44.89131" lon="5.64881">
        <ele>982</ele>
        <time>2010-04-30T10:42:53Z</time>
      </trkpt>
      <trkpt lat="44.89096" lon="5.64908">
        <ele>979</ele>
        <time>2010-04-30T10:43:02Z</time>
      </trkpt>
      <trkpt lat="44.89074" lon="5.64933">
        <ele>975</ele>
        <time>2010-04-30T10:43:09Z</time>
      </trkpt>
      <trkpt lat="44.89068" lon="5.64968">
        <ele>972</ele>
        <time>2010-04-30T10:43:15Z</time>
      </trkpt>
      <trkpt lat="44.89055" lon="5.64999">
        <ele>972</ele>
        <time>2010-04-30T10:43:18Z</time>
      </trkpt>
      <trkpt lat="44.89047" lon="5.65038">
        <ele>973</ele>
        <time>2010-04-30T10:43:23Z</time>
      </trkpt>
      <trkpt lat="44.89047" lon="5.65054">
        <ele>974</ele>
        <time>2010-04-30T10:43:25Z</time>
      </trkpt>
      <trkpt lat="44.89056" lon="5.65089">
        <ele>974</ele>
        <time>2010-04-30T10:43:31Z</time>
      </trkpt>
      <trkpt lat="44.89061" lon="5.65101">
        <ele>975</ele>
        <time>2010-04-30T10:43:33Z</time>
      </trkpt>
      <trkpt lat="44.89067" lon="5.65132">
        <ele>978</ele>
        <time>2010-04-30T10:43:39Z</time>
      </trkpt>
      <trkpt lat="44.89068" lon="5.65142">
        <ele>979</ele>
        <time>2010-04-30T10:43:43Z</time>
      </trkpt>
      <trkpt lat="44.89066" lon="5.65171">
        <ele>983</ele>
        <time>2010-04-30T10:43:53Z</time>
      </trkpt>
      <trkpt lat="44.89067" lon="5.65198">
        <ele>986</ele>
        <time>2010-04-30T10:44:04Z</time>
      </trkpt>
      <trkpt lat="44.89069" lon="5.65224">
        <ele>986</ele>
        <time>2010-04-30T10:44:15Z</time>
      </trkpt>
      <trkpt lat="44.89067" lon="5.65237">
        <ele>987</ele>
        <time>2010-04-30T10:44:26Z</time>
      </trkpt>
      <trkpt lat="44.89068" lon="5.65248">
        <ele>987</ele>
        <time>2010-04-30T10:44:30Z</time>
      </trkpt>
      <trkpt lat="44.89059" lon="5.6527">
        <ele>990</ele>
        <time>2010-04-30T10:44:40Z</time>
      </trkpt>
      <trkpt lat="44.89043" lon="5.65286">
        <ele>992</ele>
        <time>2010-04-30T10:44:54Z</time>
      </trkpt>
      <trkpt lat="44.89033" lon="5.65293">
        <ele>994</ele>
        <time>2010-04-30T10:45:08Z</time>
      </trkpt>
      <trkpt lat="44.89034" lon="5.6528">
        <ele>996</ele>
        <time>2010-04-30T10:45:27Z</time>
      </trkpt>
      <trkpt lat="44.89033" lon="5.65278">
        <ele>996</ele>
        <time>2010-04-30T10:45:29Z</time>
      </trkpt>
      <trkpt lat="44.89036" lon="5.6527">
        <ele>996</ele>
        <time>2010-04-30T10:45:38Z</time>
      </trkpt>
      <trkpt lat="44.89026" lon="5.6527">
        <ele>999</ele>
        <time>2010-04-30T10:45:48Z</time>
      </trkpt>
      <trkpt lat="44.89027" lon="5.65261">
        <ele>999</ele>
        <time>2010-04-30T10:45:58Z</time>
      </trkpt>
      <trkpt lat="44.89021" lon="5.65252">
        <ele>1000</ele>
        <time>2010-04-30T10:46:10Z</time>
      </trkpt>
      <trkpt lat="44.89017" lon="5.65259">
        <ele>1001</ele>
        <time>2010-04-30T10:46:18Z</time>
      </trkpt>
      <trkpt lat="44.89009" lon="5.65264">
        <ele>1002</ele>
        <time>2010-04-30T10:46:29Z</time>
      </trkpt>
      <trkpt lat="44.89006" lon="5.65265">
        <ele>1003</ele>
        <time>2010-04-30T10:46:36Z</time>
      </trkpt>
      <trkpt lat="44.88998" lon="5.65273">
        <ele>1004</ele>
        <time>2010-04-30T10:46:45Z</time>
      </trkpt>
      <trkpt lat="44.88987" lon="5.65283">
        <ele>1005</ele>
        <time>2010-04-30T10:46:54Z</time>
      </trkpt>
      <trkpt lat="44.88981" lon="5.65293">
        <ele>1006</ele>
        <time>2010-04-30T10:47:02Z</time>
      </trkpt>
      <trkpt lat="44.88974" lon="5.65301">
        <ele>1007</ele>
        <time>2010-04-30T10:47:09Z</time>
      </trkpt>
      <trkpt lat="44.88957" lon="5.65315">
        <ele>1010</ele>
        <time>2010-04-30T10:47:18Z</time>
      </trkpt>
      <trkpt lat="44.88947" lon="5.65328">
        <ele>1012</ele>
        <time>2010-04-30T10:47:25Z</time>
      </trkpt>
      <trkpt lat="44.88933" lon="5.65347">
        <ele>1013</ele>
        <time>2010-04-30T10:47:34Z</time>
      </trkpt>
      <trkpt lat="44.8893" lon="5.65352">
        <ele>1013</ele>
        <time>2010-04-30T10:47:38Z</time>
      </trkpt>
      <trkpt lat="44.88919" lon="5.65368">
        <ele>1014</ele>
        <time>2010-04-30T10:47:47Z</time>
      </trkpt>
      <trkpt lat="44.889" lon="5.65387">
        <ele>1018</ele>
        <time>2010-04-30T10:48:00Z</time>
      </trkpt>
      <trkpt lat="44.88892" lon="5.65394">
        <ele>1019</ele>
        <time>2010-04-30T10:48:05Z</time>
      </trkpt>
      <trkpt lat="44.88876" lon="5.6541">
        <ele>1021</ele>
        <time>2010-04-30T10:48:15Z</time>
      </trkpt>
      <trkpt lat="44.88871" lon="5.65416">
        <ele>1022</ele>
        <time>2010-04-30T10:48:23Z</time>
      </trkpt>
      <trkpt lat="44.88869" lon="5.65422">
        <ele>1022</ele>
        <time>2010-04-30T10:48:27Z</time>
      </trkpt>
      <trkpt lat="44.88859" lon="5.65432">
        <ele>1024</ele>
        <time>2010-04-30T10:48:37Z</time>
      </trkpt>
      <trkpt lat="44.88857" lon="5.65429">
        <ele>1025</ele>
        <time>2010-04-30T10:48:40Z</time>
      </trkpt>
      <trkpt lat="44.88844" lon="5.6542">
        <ele>1029</ele>
        <time>2010-04-30T10:48:51Z</time>
      </trkpt>
      <trkpt lat="44.88842" lon="5.65429">
        <ele>1030</ele>
        <time>2010-04-30T10:48:59Z</time>
      </trkpt>
      <trkpt lat="44.88842" lon="5.65442">
        <ele>1030</ele>
        <time>2010-04-30T10:49:03Z</time>
      </trkpt>
      <trkpt lat="44.88836" lon="5.6545">
        <ele>1030</ele>
        <time>2010-04-30T10:49:13Z</time>
      </trkpt>
      <trkpt lat="44.88831" lon="5.65444">
        <ele>1032</ele>
        <time>2010-04-30T10:49:24Z</time>
      </trkpt>
      <trkpt lat="44.88829" lon="5.65438">
        <ele>1032</ele>
        <time>2010-04-30T10:49:37Z</time>
      </trkpt>
      <trkpt lat="44.88835" lon="5.65439">
        <ele>1031</ele>
        <time>2010-04-30T10:49:51Z</time>
      </trkpt>
      <trkpt lat="44.88841" lon="5.65439">
        <ele>1030</ele>
        <time>2010-04-30T10:50:00Z</time>
      </trkpt>
      <trkpt lat="44.88837" lon="5.65447">
        <ele>1031</ele>
        <time>2010-04-30T10:50:08Z</time>
      </trkpt>
      <trkpt lat="44.88833" lon="5.65453">
        <ele>1030</ele>
        <time>2010-04-30T10:50:18Z</time>
      </trkpt>
      <trkpt lat="44.88833" lon="5.65449">
        <ele>1032</ele>
        <time>2010-04-30T10:50:25Z</time>
      </trkpt>
      <trkpt lat="44.88831" lon="5.65443">
        <ele>1032</ele>
        <time>2010-04-30T10:50:28Z</time>
      </trkpt>
      <trkpt lat="44.88818" lon="5.65428">
        <ele>1033</ele>
        <time>2010-04-30T10:50:36Z</time>
      </trkpt>
      <trkpt lat="44.88817" lon="5.65427">
        <ele>1033</ele>
        <time>2010-04-30T10:50:37Z</time>
      </trkpt>
      <trkpt lat="44.8881" lon="5.65427">
        <ele>1034</ele>
        <time>2010-04-30T10:50:42Z</time>
      </trkpt>
      <trkpt lat="44.88812" lon="5.65435">
        <ele>1035</ele>
        <time>2010-04-30T10:50:48Z</time>
      </trkpt>
      <trkpt lat="44.88814" lon="5.65441">
        <ele>1035</ele>
        <time>2010-04-30T10:50:51Z</time>
      </trkpt>
      <trkpt lat="44.88815" lon="5.65446">
        <ele>1036</ele>
        <time>2010-04-30T10:50:53Z</time>
      </trkpt>
      <trkpt lat="44.88808" lon="5.65458">
        <ele>1035</ele>
        <time>2010-04-30T10:50:59Z</time>
      </trkpt>
      <trkpt lat="44.88792" lon="5.65468">
        <ele>1037</ele>
        <time>2010-04-30T10:51:08Z</time>
      </trkpt>
      <trkpt lat="44.8878" lon="5.65479">
        <ele>1035</ele>
        <time>2010-04-30T10:51:14Z</time>
      </trkpt>
      <trkpt lat="44.88771" lon="5.6549">
        <ele>1035</ele>
        <time>2010-04-30T10:51:19Z</time>
      </trkpt>
      <trkpt lat="44.88768" lon="5.65497">
        <ele>1035</ele>
        <time>2010-04-30T10:51:24Z</time>
      </trkpt>
      <trkpt lat="44.8877" lon="5.65496">
        <ele>1035</ele>
        <time>2010-04-30T10:51:34Z</time>
      </trkpt>
      <trkpt lat="44.8877" lon="5.65493">
        <ele>1035</ele>
        <time>2010-04-30T10:51:41Z</time>
      </trkpt>
      <trkpt lat="44.8877" lon="5.65493">
        <ele>1035</ele>
        <time>2010-04-30T10:56:07Z</time>
      </trkpt>
      <trkpt lat="44.88763" lon="5.65502">
        <ele>1036</ele>
        <time>2010-04-30T10:56:11Z</time>
      </trkpt>
      <trkpt lat="44.8875" lon="5.65519">
        <ele>1034</ele>
        <time>2010-04-30T10:56:16Z</time>
      </trkpt>
      <trkpt lat="44.88733" lon="5.65536">
        <ele>1029</ele>
        <time>2010-04-30T10:56:20Z</time>
      </trkpt>
      <trkpt lat="44.88712" lon="5.65562">
        <ele>1025</ele>
        <time>2010-04-30T10:56:25Z</time>
      </trkpt>
      <trkpt lat="44.887" lon="5.65572">
        <ele>1024</ele>
        <time>2010-04-30T10:56:28Z</time>
      </trkpt>
      <trkpt lat="44.88685" lon="5.65585">
        <ele>1018</ele>
        <time>2010-04-30T10:56:31Z</time>
      </trkpt>
      <trkpt lat="44.88675" lon="5.65598">
        <ele>1015</ele>
        <time>2010-04-30T10:56:33Z</time>
      </trkpt>
      <trkpt lat="44.88653" lon="5.65633">
        <ele>1012</ele>
        <time>2010-04-30T10:56:38Z</time>
      </trkpt>
      <trkpt lat="44.88646" lon="5.65643">
        <ele>1009</ele>
        <time>2010-04-30T10:56:40Z</time>
      </trkpt>
      <trkpt lat="44.88635" lon="5.65656">
        <ele>1006</ele>
        <time>2010-04-30T10:56:43Z</time>
      </trkpt>
      <trkpt lat="44.88626" lon="5.65666">
        <ele>1005</ele>
        <time>2010-04-30T10:56:47Z</time>
      </trkpt>
      <trkpt lat="44.88613" lon="5.65677">
        <ele>1005</ele>
        <time>2010-04-30T10:56:50Z</time>
      </trkpt>
      <trkpt lat="44.88602" lon="5.65685">
        <ele>1005</ele>
        <time>2010-04-30T10:56:52Z</time>
      </trkpt>
      <trkpt lat="44.88573" lon="5.65713">
        <ele>999</ele>
        <time>2010-04-30T10:56:58Z</time>
      </trkpt>
      <trkpt lat="44.88558" lon="5.65737">
        <ele>997</ele>
        <time>2010-04-30T10:57:02Z</time>
      </trkpt>
      <trkpt lat="44.88539" lon="5.6575">
        <ele>992</ele>
        <time>2010-04-30T10:57:05Z</time>
      </trkpt>
      <trkpt lat="44.88524" lon="5.65764">
        <ele>986</ele>
        <time>2010-04-30T10:57:08Z</time>
      </trkpt>
      <trkpt lat="44.8852" lon="5.65768">
        <ele>984</ele>
        <time>2010-04-30T10:57:09Z</time>
      </trkpt>
      <trkpt lat="44.88505" lon="5.65779">
        <ele>979</ele>
        <time>2010-04-30T10:57:13Z</time>
      </trkpt>
      <trkpt lat="44.88501" lon="5.65782">
        <ele>978</ele>
        <time>2010-04-30T10:57:14Z</time>
      </trkpt>
      <trkpt lat="44.88493" lon="5.65792">
        <ele>974</ele>
        <time>2010-04-30T10:57:17Z</time>
      </trkpt>
      <trkpt lat="44.88486" lon="5.65812">
        <ele>970</ele>
        <time>2010-04-30T10:57:20Z</time>
      </trkpt>
      <trkpt lat="44.88482" lon="5.65821">
        <ele>968</ele>
        <time>2010-04-30T10:57:22Z</time>
      </trkpt>
      <trkpt lat="44.88479" lon="5.65825">
        <ele>967</ele>
        <time>2010-04-30T10:57:23Z</time>
      </trkpt>
      <trkpt lat="44.88463" lon="5.65849">
        <ele>963</ele>
        <time>2010-04-30T10:57:27Z</time>
      </trkpt>
      <trkpt lat="44.88458" lon="5.65859">
        <ele>961</ele>
        <time>2010-04-30T10:57:28Z</time>
      </trkpt>
      <trkpt lat="44.88435" lon="5.65895">
        <ele>955</ele>
        <time>2010-04-30T10:57:31Z</time>
      </trkpt>
      <trkpt lat="44.88429" lon="5.65907">
        <ele>954</ele>
        <time>2010-04-30T10:57:32Z</time>
      </trkpt>
      <trkpt lat="44.88421" lon="5.65924">
        <ele>954</ele>
        <time>2010-04-30T10:57:35Z</time>
      </trkpt>
      <trkpt lat="44.88423" lon="5.65923">
        <ele>954</ele>
        <time>2010-04-30T10:57:46Z</time>
      </trkpt>
      <trkpt lat="44.88426" lon="5.65933">
        <ele>952</ele>
        <time>2010-04-30T10:57:50Z</time>
      </trkpt>
      <trkpt lat="44.88429" lon="5.65956">
        <ele>949</ele>
        <time>2010-04-30T10:57:54Z</time>
      </trkpt>
      <trkpt lat="44.88432" lon="5.6596">
        <ele>948</ele>
        <time>2010-04-30T10:57:55Z</time>
      </trkpt>
      <trkpt lat="44.88448" lon="5.65972">
        <ele>944</ele>
        <time>2010-04-30T10:57:58Z</time>
      </trkpt>
      <trkpt lat="44.88462" lon="5.65979">
        <ele>940</ele>
        <time>2010-04-30T10:58:00Z</time>
      </trkpt>
      <trkpt lat="44.8849" lon="5.65983">
        <ele>931</ele>
        <time>2010-04-30T10:58:03Z</time>
      </trkpt>
      <trkpt lat="44.8851" lon="5.65985">
        <ele>925</ele>
        <time>2010-04-30T10:58:06Z</time>
      </trkpt>
      <trkpt lat="44.88518" lon="5.65985">
        <ele>924</ele>
        <time>2010-04-30T10:58:08Z</time>
      </trkpt>
      <trkpt lat="44.88519" lon="5.65984">
        <ele>923</ele>
        <time>2010-04-30T10:58:09Z</time>
      </trkpt>
      <trkpt lat="44.88533" lon="5.65986">
        <ele>920</ele>
        <time>2010-04-30T10:58:12Z</time>
      </trkpt>
      <trkpt lat="44.88562" lon="5.65982">
        <ele>916</ele>
        <time>2010-04-30T10:58:16Z</time>
      </trkpt>
      <trkpt lat="44.88581" lon="5.65981">
        <ele>913</ele>
        <time>2010-04-30T10:58:19Z</time>
      </trkpt>
      <trkpt lat="44.88594" lon="5.65981">
        <ele>911</ele>
        <time>2010-04-30T10:58:21Z</time>
      </trkpt>
      <trkpt lat="44.88618" lon="5.65979">
        <ele>906</ele>
        <time>2010-04-30T10:58:24Z</time>
      </trkpt>
      <trkpt lat="44.88651" lon="5.6597">
        <ele>900</ele>
        <time>2010-04-30T10:58:28Z</time>
      </trkpt>
      <trkpt lat="44.88657" lon="5.65968">
        <ele>899</ele>
        <time>2010-04-30T10:58:29Z</time>
      </trkpt>
      <trkpt lat="44.88682" lon="5.65952">
        <ele>897</ele>
        <time>2010-04-30T10:58:33Z</time>
      </trkpt>
      <trkpt lat="44.88697" lon="5.65944">
        <ele>896</ele>
        <time>2010-04-30T10:58:35Z</time>
      </trkpt>
      <trkpt lat="44.88731" lon="5.65931">
        <ele>892</ele>
        <time>2010-04-30T10:58:40Z</time>
      </trkpt>
      <trkpt lat="44.88749" lon="5.65928">
        <ele>886</ele>
        <time>2010-04-30T10:58:42Z</time>
      </trkpt>
      <trkpt lat="44.8876" lon="5.65926">
        <ele>882</ele>
        <time>2010-04-30T10:58:44Z</time>
      </trkpt>
      <trkpt lat="44.88782" lon="5.65922">
        <ele>875</ele>
        <time>2010-04-30T10:58:48Z</time>
      </trkpt>
      <trkpt lat="44.88785" lon="5.65921">
        <ele>874</ele>
        <time>2010-04-30T10:58:49Z</time>
      </trkpt>
      <trkpt lat="44.88783" lon="5.65928">
        <ele>873</ele>
        <time>2010-04-30T10:58:55Z</time>
      </trkpt>
      <trkpt lat="44.8877" lon="5.65934">
        <ele>876</ele>
        <time>2010-04-30T10:59:02Z</time>
      </trkpt>
      <trkpt lat="44.88758" lon="5.65944">
        <ele>878</ele>
        <time>2010-04-30T10:59:11Z</time>
      </trkpt>
      <trkpt lat="44.88739" lon="5.65963">
        <ele>880</ele>
        <time>2010-04-30T10:59:20Z</time>
      </trkpt>
      <trkpt lat="44.88719" lon="5.65976">
        <ele>881</ele>
        <time>2010-04-30T10:59:27Z</time>
      </trkpt>
      <trkpt lat="44.88705" lon="5.65987">
        <ele>881</ele>
        <time>2010-04-30T10:59:34Z</time>
      </trkpt>
      <trkpt lat="44.88696" lon="5.66001">
        <ele>879</ele>
        <time>2010-04-30T10:59:40Z</time>
      </trkpt>
      <trkpt lat="44.88682" lon="5.66032">
        <ele>877</ele>
        <time>2010-04-30T10:59:49Z</time>
      </trkpt>
      <trkpt lat="44.88668" lon="5.66053">
        <ele>879</ele>
        <time>2010-04-30T10:59:55Z</time>
      </trkpt>
      <trkpt lat="44.88646" lon="5.6607">
        <ele>884</ele>
        <time>2010-04-30T11:00:03Z</time>
      </trkpt>
      <trkpt lat="44.88627" lon="5.66074">
        <ele>884</ele>
        <time>2010-04-30T11:00:11Z</time>
      </trkpt>
      <trkpt lat="44.88606" lon="5.66078">
        <ele>883</ele>
        <time>2010-04-30T11:00:17Z</time>
      </trkpt>
      <trkpt lat="44.88587" lon="5.66087">
        <ele>882</ele>
        <time>2010-04-30T11:00:23Z</time>
      </trkpt>
      <trkpt lat="44.8857" lon="5.66116">
        <ele>879</ele>
        <time>2010-04-30T11:00:30Z</time>
      </trkpt>
      <trkpt lat="44.88552" lon="5.66143">
        <ele>882</ele>
        <time>2010-04-30T11:00:38Z</time>
      </trkpt>
      <trkpt lat="44.88539" lon="5.66159">
        <ele>886</ele>
        <time>2010-04-30T11:00:45Z</time>
      </trkpt>
      <trkpt lat="44.88532" lon="5.66186">
        <ele>887</ele>
        <time>2010-04-30T11:00:52Z</time>
      </trkpt>
      <trkpt lat="44.88525" lon="5.66222">
        <ele>885</ele>
        <time>2010-04-30T11:01:02Z</time>
      </trkpt>
      <trkpt lat="44.88524" lon="5.66227">
        <ele>885</ele>
        <time>2010-04-30T11:01:04Z</time>
      </trkpt>
      <trkpt lat="44.8851" lon="5.66259">
        <ele>886</ele>
        <time>2010-04-30T11:01:11Z</time>
      </trkpt>
      <trkpt lat="44.88504" lon="5.66279">
        <ele>887</ele>
        <time>2010-04-30T11:01:17Z</time>
      </trkpt>
      <trkpt lat="44.88503" lon="5.66279">
        <ele>888</ele>
        <time>2010-04-30T11:02:10Z</time>
      </trkpt>
      <trkpt lat="44.88504" lon="5.66306">
        <ele>885</ele>
        <time>2010-04-30T11:02:16Z</time>
      </trkpt>
      <trkpt lat="44.88506" lon="5.66334">
        <ele>881</ele>
        <time>2010-04-30T11:02:20Z</time>
      </trkpt>
      <trkpt lat="44.8851" lon="5.66374">
        <ele>875</ele>
        <time>2010-04-30T11:02:24Z</time>
      </trkpt>
      <trkpt lat="44.8851" lon="5.66382">
        <ele>874</ele>
        <time>2010-04-30T11:02:25Z</time>
      </trkpt>
      <trkpt lat="44.88514" lon="5.66398">
        <ele>869</ele>
        <time>2010-04-30T11:02:27Z</time>
      </trkpt>
      <trkpt lat="44.88516" lon="5.6643">
        <ele>860</ele>
        <time>2010-04-30T11:02:31Z</time>
      </trkpt>
      <trkpt lat="44.88528" lon="5.66437">
        <ele>858</ele>
        <time>2010-04-30T11:02:35Z</time>
      </trkpt>
      <trkpt lat="44.88541" lon="5.66435">
        <ele>857</ele>
        <time>2010-04-30T11:02:37Z</time>
      </trkpt>
      <trkpt lat="44.88547" lon="5.66431">
        <ele>856</ele>
        <time>2010-04-30T11:02:38Z</time>
      </trkpt>
      <trkpt lat="44.88561" lon="5.66415">
        <ele>854</ele>
        <time>2010-04-30T11:02:43Z</time>
      </trkpt>
      <trkpt lat="44.88561" lon="5.66416">
        <ele>854</ele>
        <time>2010-04-30T11:02:44Z</time>
      </trkpt>
      <trkpt lat="44.88561" lon="5.66433">
        <ele>851</ele>
        <time>2010-04-30T11:02:49Z</time>
      </trkpt>
      <trkpt lat="44.88563" lon="5.66439">
        <ele>850</ele>
        <time>2010-04-30T11:02:50Z</time>
      </trkpt>
      <trkpt lat="44.88566" lon="5.66452">
        <ele>847</ele>
        <time>2010-04-30T11:02:52Z</time>
      </trkpt>
      <trkpt lat="44.8857" lon="5.66486">
        <ele>839</ele>
        <time>2010-04-30T11:02:56Z</time>
      </trkpt>
      <trkpt lat="44.88563" lon="5.66505">
        <ele>837</ele>
        <time>2010-04-30T11:02:58Z</time>
      </trkpt>
      <trkpt lat="44.88542" lon="5.66534">
        <ele>831</ele>
        <time>2010-04-30T11:03:02Z</time>
      </trkpt>
      <trkpt lat="44.88536" lon="5.66539">
        <ele>830</ele>
        <time>2010-04-30T11:03:05Z</time>
      </trkpt>
      <trkpt lat="44.88535" lon="5.6654">
        <ele>830</ele>
        <time>2010-04-30T11:03:20Z</time>
      </trkpt>
      <trkpt lat="44.88542" lon="5.66545">
        <ele>828</ele>
        <time>2010-04-30T11:03:23Z</time>
      </trkpt>
      <trkpt lat="44.8855" lon="5.66555">
        <ele>825</ele>
        <time>2010-04-30T11:03:25Z</time>
      </trkpt>
      <trkpt lat="44.88558" lon="5.66559">
        <ele>823</ele>
        <time>2010-04-30T11:03:27Z</time>
      </trkpt>
      <trkpt lat="44.88563" lon="5.66561">
        <ele>822</ele>
        <time>2010-04-30T11:03:32Z</time>
      </trkpt>
      <trkpt lat="44.88566" lon="5.66554">
        <ele>824</ele>
        <time>2010-04-30T11:08:47Z</time>
      </trkpt>
      <trkpt lat="44.8856" lon="5.66569">
        <ele>820</ele>
        <time>2010-04-30T11:08:51Z</time>
      </trkpt>
      <trkpt lat="44.88563" lon="5.66582">
        <ele>816</ele>
        <time>2010-04-30T11:08:53Z</time>
      </trkpt>
      <trkpt lat="44.88567" lon="5.66608">
        <ele>809</ele>
        <time>2010-04-30T11:08:56Z</time>
      </trkpt>
      <trkpt lat="44.88573" lon="5.66626">
        <ele>804</ele>
        <time>2010-04-30T11:08:58Z</time>
      </trkpt>
      <trkpt lat="44.88584" lon="5.66656">
        <ele>793</ele>
        <time>2010-04-30T11:09:01Z</time>
      </trkpt>
      <trkpt lat="44.88588" lon="5.66687">
        <ele>783</ele>
        <time>2010-04-30T11:09:05Z</time>
      </trkpt>
      <trkpt lat="44.88586" lon="5.66696">
        <ele>781</ele>
        <time>2010-04-30T11:09:06Z</time>
      </trkpt>
      <trkpt lat="44.8858" lon="5.66738">
        <ele>776</ele>
        <time>2010-04-30T11:09:10Z</time>
      </trkpt>
      <trkpt lat="44.88579" lon="5.66749">
        <ele>775</ele>
        <time>2010-04-30T11:09:11Z</time>
      </trkpt>
      <trkpt lat="44.88582" lon="5.66781">
        <ele>771</ele>
        <time>2010-04-30T11:09:14Z</time>
      </trkpt>
      <trkpt lat="44.88583" lon="5.66793">
        <ele>770</ele>
        <time>2010-04-30T11:09:15Z</time>
      </trkpt>
      <trkpt lat="44.88584" lon="5.6683">
        <ele>765</ele>
        <time>2010-04-30T11:09:18Z</time>
      </trkpt>
      <trkpt lat="44.88587" lon="5.66849">
        <ele>759</ele>
        <time>2010-04-30T11:09:20Z</time>
      </trkpt>
      <trkpt lat="44.88597" lon="5.6686">
        <ele>755</ele>
        <time>2010-04-30T11:09:24Z</time>
      </trkpt>
      <trkpt lat="44.88607" lon="5.66848">
        <ele>758</ele>
        <time>2010-04-30T11:09:28Z</time>
      </trkpt>
      <trkpt lat="44.88614" lon="5.66832">
        <ele>762</ele>
        <time>2010-04-30T11:09:31Z</time>
      </trkpt>
      <trkpt lat="44.88618" lon="5.66822">
        <ele>762</ele>
        <time>2010-04-30T11:09:34Z</time>
      </trkpt>
      <trkpt lat="44.8862" lon="5.66812">
        <ele>760</ele>
        <time>2010-04-30T11:09:36Z</time>
      </trkpt>
      <trkpt lat="44.8863" lon="5.66788">
        <ele>753</ele>
        <time>2010-04-30T11:09:41Z</time>
      </trkpt>
      <trkpt lat="44.88632" lon="5.66786">
        <ele>752</ele>
        <time>2010-04-30T11:09:43Z</time>
      </trkpt>
      <trkpt lat="44.88632" lon="5.66788">
        <ele>751</ele>
        <time>2010-04-30T11:09:44Z</time>
      </trkpt>
      <trkpt lat="44.88631" lon="5.66794">
        <ele>753</ele>
        <time>2010-04-30T11:10:03Z</time>
      </trkpt>
      <trkpt lat="44.88632" lon="5.66794">
        <ele>752</ele>
        <time>2010-04-30T11:10:34Z</time>
      </trkpt>
      <trkpt lat="44.88643" lon="5.66817">
        <ele>744</ele>
        <time>2010-04-30T11:10:39Z</time>
      </trkpt>
      <trkpt lat="44.88644" lon="5.66822">
        <ele>743</ele>
        <time>2010-04-30T11:10:40Z</time>
      </trkpt>
      <trkpt lat="44.88651" lon="5.66846">
        <ele>735</ele>
        <time>2010-04-30T11:10:43Z</time>
      </trkpt>
      <trkpt lat="44.88657" lon="5.6686">
        <ele>731</ele>
        <time>2010-04-30T11:10:45Z</time>
      </trkpt>
      <trkpt lat="44.8866" lon="5.66885">
        <ele>729</ele>
        <time>2010-04-30T11:10:48Z</time>
      </trkpt>
      <trkpt lat="44.88666" lon="5.66926">
        <ele>721</ele>
        <time>2010-04-30T11:10:52Z</time>
      </trkpt>
      <trkpt lat="44.88666" lon="5.66936">
        <ele>720</ele>
        <time>2010-04-30T11:10:53Z</time>
      </trkpt>
      <trkpt lat="44.88674" lon="5.66963">
        <ele>711</ele>
        <time>2010-04-30T11:10:56Z</time>
      </trkpt>
      <trkpt lat="44.88686" lon="5.66985">
        <ele>699</ele>
        <time>2010-04-30T11:10:59Z</time>
      </trkpt>
      <trkpt lat="44.88693" lon="5.66997">
        <ele>694</ele>
        <time>2010-04-30T11:11:01Z</time>
      </trkpt>
      <trkpt lat="44.88693" lon="5.67004">
        <ele>693</ele>
        <time>2010-04-30T11:11:02Z</time>
      </trkpt>
      <trkpt lat="44.88702" lon="5.67022">
        <ele>688</ele>
        <time>2010-04-30T11:11:06Z</time>
      </trkpt>
      <trkpt lat="44.88705" lon="5.67028">
        <ele>684</ele>
        <time>2010-04-30T11:11:08Z</time>
      </trkpt>
      <trkpt lat="44.8871" lon="5.6704">
        <ele>678</ele>
        <time>2010-04-30T11:11:11Z</time>
      </trkpt>
      <trkpt lat="44.88717" lon="5.67036">
        <ele>674</ele>
        <time>2010-04-30T11:11:15Z</time>
      </trkpt>
      <trkpt lat="44.8872" lon="5.67029">
        <ele>674</ele>
        <time>2010-04-30T11:11:17Z</time>
      </trkpt>
      <trkpt lat="44.88721" lon="5.67019">
        <ele>675</ele>
        <time>2010-04-30T11:11:21Z</time>
      </trkpt>
      <trkpt lat="44.88723" lon="5.67019">
        <ele>674</ele>
        <time>2010-04-30T11:11:23Z</time>
      </trkpt>
      <trkpt lat="44.88731" lon="5.6703">
        <ele>666</ele>
        <time>2010-04-30T11:11:28Z</time>
      </trkpt>
      <trkpt lat="44.88735" lon="5.67028">
        <ele>664</ele>
        <time>2010-04-30T11:11:35Z</time>
      </trkpt>
      <trkpt lat="44.88732" lon="5.67023">
        <ele>667</ele>
        <time>2010-04-30T11:11:43Z</time>
      </trkpt>
      <trkpt lat="44.88732" lon="5.67023">
        <ele>667</ele>
        <time>2010-04-30T11:11:46Z</time>
      </trkpt>
      <trkpt lat="44.88732" lon="5.67008">
        <ele>668</ele>
        <time>2010-04-30T11:11:50Z</time>
      </trkpt>
      <trkpt lat="44.88733" lon="5.66993">
        <ele>668</ele>
        <time>2010-04-30T11:11:52Z</time>
      </trkpt>
      <trkpt lat="44.88734" lon="5.66976">
        <ele>669</ele>
        <time>2010-04-30T11:11:55Z</time>
      </trkpt>
      <trkpt lat="44.88745" lon="5.66948">
        <ele>661</ele>
        <time>2010-04-30T11:11:58Z</time>
      </trkpt>
      <trkpt lat="44.88755" lon="5.66921">
        <ele>654</ele>
        <time>2010-04-30T11:12:01Z</time>
      </trkpt>
      <trkpt lat="44.88762" lon="5.66898">
        <ele>648</ele>
        <time>2010-04-30T11:12:04Z</time>
      </trkpt>
      <trkpt lat="44.88769" lon="5.6688">
        <ele>642</ele>
        <time>2010-04-30T11:12:07Z</time>
      </trkpt>
      <trkpt lat="44.88773" lon="5.66864">
        <ele>639</ele>
        <time>2010-04-30T11:12:10Z</time>
      </trkpt>
      <trkpt lat="44.88777" lon="5.66846">
        <ele>636</ele>
        <time>2010-04-30T11:12:13Z</time>
      </trkpt>
      <trkpt lat="44.88782" lon="5.66835">
        <ele>632</ele>
        <time>2010-04-30T11:12:16Z</time>
      </trkpt>
      <trkpt lat="44.88783" lon="5.66831">
        <ele>632</ele>
        <time>2010-04-30T11:12:17Z</time>
      </trkpt>
      <trkpt lat="44.8878" lon="5.66828">
        <ele>636</ele>
        <time>2010-04-30T11:12:24Z</time>
      </trkpt>
      <trkpt lat="44.88782" lon="5.66832">
        <ele>633</ele>
        <time>2010-04-30T11:12:28Z</time>
      </trkpt>
      <trkpt lat="44.88782" lon="5.66857">
        <ele>630</ele>
        <time>2010-04-30T11:12:35Z</time>
      </trkpt>
      <trkpt lat="44.88781" lon="5.66883">
        <ele>630</ele>
        <time>2010-04-30T11:12:40Z</time>
      </trkpt>
      <trkpt lat="44.8878" lon="5.66888">
        <ele>630</ele>
        <time>2010-04-30T11:12:41Z</time>
      </trkpt>
      <trkpt lat="44.88779" lon="5.66923">
        <ele>630</ele>
        <time>2010-04-30T11:12:44Z</time>
      </trkpt>
      <trkpt lat="44.88784" lon="5.66951">
        <ele>624</ele>
        <time>2010-04-30T11:12:47Z</time>
      </trkpt>
      <trkpt lat="44.88786" lon="5.66973">
        <ele>621</ele>
        <time>2010-04-30T11:12:50Z</time>
      </trkpt>
      <trkpt lat="44.88793" lon="5.66992">
        <ele>613</ele>
        <time>2010-04-30T11:12:53Z</time>
      </trkpt>
      <trkpt lat="44.88801" lon="5.67016">
        <ele>605</ele>
        <time>2010-04-30T11:12:56Z</time>
      </trkpt>
      <trkpt lat="44.88805" lon="5.67022">
        <ele>602</ele>
        <time>2010-04-30T11:12:57Z</time>
      </trkpt>
      <trkpt lat="44.8881" lon="5.67035">
        <ele>596</ele>
        <time>2010-04-30T11:12:59Z</time>
      </trkpt>
      <trkpt lat="44.88814" lon="5.67061">
        <ele>591</ele>
        <time>2010-04-30T11:13:02Z</time>
      </trkpt>
      <trkpt lat="44.88824" lon="5.67086">
        <ele>579</ele>
        <time>2010-04-30T11:13:06Z</time>
      </trkpt>
      <trkpt lat="44.8883" lon="5.67101">
        <ele>573</ele>
        <time>2010-04-30T11:13:08Z</time>
      </trkpt>
      <trkpt lat="44.88839" lon="5.67123">
        <ele>572</ele>
        <time>2010-04-30T11:13:11Z</time>
      </trkpt>
      <trkpt lat="44.88852" lon="5.67149">
        <ele>569</ele>
        <time>2010-04-30T11:13:15Z</time>
      </trkpt>
      <trkpt lat="44.88863" lon="5.67169">
        <ele>562</ele>
        <time>2010-04-30T11:13:18Z</time>
      </trkpt>
      <trkpt lat="44.88869" lon="5.67182">
        <ele>558</ele>
        <time>2010-04-30T11:13:20Z</time>
      </trkpt>
      <trkpt lat="44.88869" lon="5.67222">
        <ele>552</ele>
        <time>2010-04-30T11:13:24Z</time>
      </trkpt>
      <trkpt lat="44.88848" lon="5.67251">
        <ele>553</ele>
        <time>2010-04-30T11:13:30Z</time>
      </trkpt>
      <trkpt lat="44.88837" lon="5.6726">
        <ele>553</ele>
        <time>2010-04-30T11:13:32Z</time>
      </trkpt>
      <trkpt lat="44.88839" lon="5.67268">
        <ele>551</ele>
        <time>2010-04-30T11:13:36Z</time>
      </trkpt>
      <trkpt lat="44.88849" lon="5.67271">
        <ele>548</ele>
        <time>2010-04-30T11:13:38Z</time>
      </trkpt>
      <trkpt lat="44.88856" lon="5.67272">
        <ele>547</ele>
        <time>2010-04-30T11:13:39Z</time>
      </trkpt>
      <trkpt lat="44.88881" lon="5.67281">
        <ele>542</ele>
        <time>2010-04-30T11:13:43Z</time>
      </trkpt>
      <trkpt lat="44.88896" lon="5.67295">
        <ele>538</ele>
        <time>2010-04-30T11:13:46Z</time>
      </trkpt>
      <trkpt lat="44.88898" lon="5.67302">
        <ele>536</ele>
        <time>2010-04-30T11:13:47Z</time>
      </trkpt>
      <trkpt lat="44.88898" lon="5.6733">
        <ele>530</ele>
        <time>2010-04-30T11:13:51Z</time>
      </trkpt>
      <trkpt lat="44.88892" lon="5.67347">
        <ele>527</ele>
        <time>2010-04-30T11:13:53Z</time>
      </trkpt>
      <trkpt lat="44.88884" lon="5.6736">
        <ele>525</ele>
        <time>2010-04-30T11:13:55Z</time>
      </trkpt>
      <trkpt lat="44.88869" lon="5.67368">
        <ele>524</ele>
        <time>2010-04-30T11:13:58Z</time>
      </trkpt>
      <trkpt lat="44.88855" lon="5.67364">
        <ele>527</ele>
        <time>2010-04-30T11:14:03Z</time>
      </trkpt>
      <trkpt lat="44.88842" lon="5.67363">
        <ele>529</ele>
        <time>2010-04-30T11:14:09Z</time>
      </trkpt>
      <trkpt lat="44.88837" lon="5.67363">
        <ele>529</ele>
        <time>2010-04-30T11:14:12Z</time>
      </trkpt>
      <trkpt lat="44.88825" lon="5.67366">
        <ele>530</ele>
        <time>2010-04-30T11:14:19Z</time>
      </trkpt>
      <trkpt lat="44.88824" lon="5.67366">
        <ele>530</ele>
        <time>2010-04-30T11:14:20Z</time>
      </trkpt>
      <trkpt lat="44.88813" lon="5.67363">
        <ele>531</ele>
        <time>2010-04-30T11:14:27Z</time>
      </trkpt>
      <trkpt lat="44.88809" lon="5.67365">
        <ele>531</ele>
        <time>2010-04-30T11:14:30Z</time>
      </trkpt>
      <trkpt lat="44.88798" lon="5.6737">
        <ele>531</ele>
        <time>2010-04-30T11:14:36Z</time>
      </trkpt>
      <trkpt lat="44.88775" lon="5.67374">
        <ele>532</ele>
        <time>2010-04-30T11:14:46Z</time>
      </trkpt>
      <trkpt lat="44.88748" lon="5.67385">
        <ele>532</ele>
        <time>2010-04-30T11:14:56Z</time>
      </trkpt>
      <trkpt lat="44.88721" lon="5.67393">
        <ele>533</ele>
        <time>2010-04-30T11:15:04Z</time>
      </trkpt>
      <trkpt lat="44.88682" lon="5.67408">
        <ele>532</ele>
        <time>2010-04-30T11:15:13Z</time>
      </trkpt>
      <trkpt lat="44.88654" lon="5.67413">
        <ele>533</ele>
        <time>2010-04-30T11:15:19Z</time>
      </trkpt>
      <trkpt lat="44.88619" lon="5.67419">
        <ele>534</ele>
        <time>2010-04-30T11:15:28Z</time>
      </trkpt>
      <trkpt lat="44.88583" lon="5.67423">
        <ele>535</ele>
        <time>2010-04-30T11:15:37Z</time>
      </trkpt>
      <trkpt lat="44.88567" lon="5.67425">
        <ele>536</ele>
        <time>2010-04-30T11:15:41Z</time>
      </trkpt>
      <trkpt lat="44.88531" lon="5.67433">
        <ele>538</ele>
        <time>2010-04-30T11:15:50Z</time>
      </trkpt>
      <trkpt lat="44.88519" lon="5.67446">
        <ele>536</ele>
        <time>2010-04-30T11:15:54Z</time>
      </trkpt>
      <trkpt lat="44.88503" lon="5.67457">
        <ele>536</ele>
        <time>2010-04-30T11:15:58Z</time>
      </trkpt>
      <trkpt lat="44.88466" lon="5.67471">
        <ele>537</ele>
        <time>2010-04-30T11:16:07Z</time>
      </trkpt>
      <trkpt lat="44.88431" lon="5.6748">
        <ele>538</ele>
        <time>2010-04-30T11:16:15Z</time>
      </trkpt>
      <trkpt lat="44.88415" lon="5.67484">
        <ele>538</ele>
        <time>2010-04-30T11:16:19Z</time>
      </trkpt>
      <trkpt lat="44.8838" lon="5.67491">
        <ele>539</ele>
        <time>2010-04-30T11:16:28Z</time>
      </trkpt>
      <trkpt lat="44.88355" lon="5.67503">
        <ele>540</ele>
        <time>2010-04-30T11:16:35Z</time>
      </trkpt>
      <trkpt lat="44.88329" lon="5.67526">
        <ele>541</ele>
        <time>2010-04-30T11:16:42Z</time>
      </trkpt>
      <trkpt lat="44.883" lon="5.67553">
        <ele>542</ele>
        <time>2010-04-30T11:16:50Z</time>
      </trkpt>
      <trkpt lat="44.88275" lon="5.67565">
        <ele>545</ele>
        <time>2010-04-30T11:16:57Z</time>
      </trkpt>
      <trkpt lat="44.88255" lon="5.67567">
        <ele>547</ele>
        <time>2010-04-30T11:17:04Z</time>
      </trkpt>
      <trkpt lat="44.88244" lon="5.67567">
        <ele>549</ele>
        <time>2010-04-30T11:17:10Z</time>
      </trkpt>
      <trkpt lat="44.88224" lon="5.67571">
        <ele>551</ele>
        <time>2010-04-30T11:17:18Z</time>
      </trkpt>
      <trkpt lat="44.882" lon="5.67571">
        <ele>554</ele>
        <time>2010-04-30T11:17:28Z</time>
      </trkpt>
      <trkpt lat="44.88187" lon="5.6757">
        <ele>555</ele>
        <time>2010-04-30T11:17:34Z</time>
      </trkpt>
      <trkpt lat="44.88174" lon="5.67572">
        <ele>557</ele>
        <time>2010-04-30T11:17:41Z</time>
      </trkpt>
      <trkpt lat="44.88159" lon="5.67576">
        <ele>558</ele>
        <time>2010-04-30T11:17:49Z</time>
      </trkpt>
      <trkpt lat="44.88145" lon="5.67578">
        <ele>560</ele>
        <time>2010-04-30T11:17:57Z</time>
      </trkpt>
      <trkpt lat="44.88132" lon="5.67579">
        <ele>562</ele>
        <time>2010-04-30T11:18:04Z</time>
      </trkpt>
      <trkpt lat="44.88114" lon="5.67587">
        <ele>562</ele>
        <time>2010-04-30T11:18:13Z</time>
      </trkpt>
      <trkpt lat="44.8809" lon="5.67598">
        <ele>563</ele>
        <time>2010-04-30T11:18:22Z</time>
      </trkpt>
      <trkpt lat="44.88077" lon="5.67603">
        <ele>564</ele>
        <time>2010-04-30T11:18:29Z</time>
      </trkpt>
      <trkpt lat="44.88054" lon="5.6761">
        <ele>566</ele>
        <time>2010-04-30T11:18:37Z</time>
      </trkpt>
      <trkpt lat="44.88038" lon="5.6762">
        <ele>565</ele>
        <time>2010-04-30T11:18:45Z</time>
      </trkpt>
      <trkpt lat="44.88028" lon="5.67626">
        <ele>564</ele>
        <time>2010-04-30T11:18:51Z</time>
      </trkpt>
      <trkpt lat="44.88011" lon="5.67634">
        <ele>562</ele>
        <time>2010-04-30T11:18:58Z</time>
      </trkpt>
      <trkpt lat="44.88002" lon="5.67641">
        <ele>560</ele>
        <time>2010-04-30T11:19:04Z</time>
      </trkpt>
      <trkpt lat="44.87994" lon="5.67649">
        <ele>558</ele>
        <time>2010-04-30T11:19:07Z</time>
      </trkpt>
      <trkpt lat="44.87968" lon="5.67666">
        <ele>555</ele>
        <time>2010-04-30T11:19:12Z</time>
      </trkpt>
      <trkpt lat="44.87964" lon="5.67669">
        <ele>554</ele>
        <time>2010-04-30T11:19:13Z</time>
      </trkpt>
      <trkpt lat="44.87934" lon="5.67684">
        <ele>552</ele>
        <time>2010-04-30T11:19:20Z</time>
      </trkpt>
      <trkpt lat="44.87911" lon="5.67694">
        <ele>550</ele>
        <time>2010-04-30T11:19:26Z</time>
      </trkpt>
      <trkpt lat="44.87896" lon="5.67697">
        <ele>551</ele>
        <time>2010-04-30T11:19:31Z</time>
      </trkpt>
      <trkpt lat="44.87881" lon="5.67699">
        <ele>553</ele>
        <time>2010-04-30T11:19:37Z</time>
      </trkpt>
      <trkpt lat="44.87859" lon="5.67701">
        <ele>555</ele>
        <time>2010-04-30T11:19:44Z</time>
      </trkpt>
      <trkpt lat="44.87852" lon="5.67704">
        <ele>555</ele>
        <time>2010-04-30T11:19:46Z</time>
      </trkpt>
      <trkpt lat="44.87833" lon="5.67707">
        <ele>555</ele>
        <time>2010-04-30T11:19:50Z</time>
      </trkpt>
      <trkpt lat="44.87807" lon="5.67709">
        <ele>558</ele>
        <time>2010-04-30T11:19:57Z</time>
      </trkpt>
      <trkpt lat="44.8779" lon="5.6771">
        <ele>559</ele>
        <time>2010-04-30T11:20:02Z</time>
      </trkpt>
      <trkpt lat="44.87756" lon="5.67713">
        <ele>562</ele>
        <time>2010-04-30T11:20:10Z</time>
      </trkpt>
      <trkpt lat="44.87738" lon="5.67716">
        <ele>563</ele>
        <time>2010-04-30T11:20:15Z</time>
      </trkpt>
      <trkpt lat="44.87715" lon="5.6772">
        <ele>563</ele>
        <time>2010-04-30T11:20:20Z</time>
      </trkpt>
      <trkpt lat="44.87692" lon="5.67723">
        <ele>563</ele>
        <time>2010-04-30T11:20:25Z</time>
      </trkpt>
      <trkpt lat="44.87675" lon="5.67726">
        <ele>562</ele>
        <time>2010-04-30T11:20:28Z</time>
      </trkpt>
      <trkpt lat="44.87641" lon="5.67724">
        <ele>565</ele>
        <time>2010-04-30T11:20:35Z</time>
      </trkpt>
      <trkpt lat="44.8761" lon="5.67723">
        <ele>563</ele>
        <time>2010-04-30T11:20:41Z</time>
      </trkpt>
      <trkpt lat="44.8759" lon="5.67717">
        <ele>564</ele>
        <time>2010-04-30T11:20:46Z</time>
      </trkpt>
      <trkpt lat="44.87573" lon="5.6771">
        <ele>566</ele>
        <time>2010-04-30T11:20:51Z</time>
      </trkpt>
      <trkpt lat="44.87545" lon="5.67705">
        <ele>565</ele>
        <time>2010-04-30T11:20:58Z</time>
      </trkpt>
      <trkpt lat="44.87517" lon="5.67698">
        <ele>564</ele>
        <time>2010-04-30T11:21:05Z</time>
      </trkpt>
      <trkpt lat="44.87512" lon="5.67697">
        <ele>563</ele>
        <time>2010-04-30T11:21:06Z</time>
      </trkpt>
      <trkpt lat="44.87485" lon="5.67703">
        <ele>557</ele>
        <time>2010-04-30T11:21:12Z</time>
      </trkpt>
      <trkpt lat="44.8748" lon="5.67704">
        <ele>557</ele>
        <time>2010-04-30T11:21:13Z</time>
      </trkpt>
      <trkpt lat="44.87454" lon="5.67705">
        <ele>554</ele>
        <time>2010-04-30T11:21:18Z</time>
      </trkpt>
      <trkpt lat="44.87445" lon="5.67703">
        <ele>554</ele>
        <time>2010-04-30T11:21:20Z</time>
      </trkpt>
      <trkpt lat="44.87418" lon="5.67689">
        <ele>558</ele>
        <time>2010-04-30T11:21:26Z</time>
      </trkpt>
      <trkpt lat="44.874" lon="5.67681">
        <ele>560</ele>
        <time>2010-04-30T11:21:30Z</time>
      </trkpt>
      <trkpt lat="44.87384" lon="5.67672">
        <ele>562</ele>
        <time>2010-04-30T11:21:33Z</time>
      </trkpt>
      <trkpt lat="44.87366" lon="5.67668">
        <ele>563</ele>
        <time>2010-04-30T11:21:36Z</time>
      </trkpt>
      <trkpt lat="44.87346" lon="5.67663">
        <ele>564</ele>
        <time>2010-04-30T11:21:40Z</time>
      </trkpt>
      <trkpt lat="44.87309" lon="5.67657">
        <ele>560</ele>
        <time>2010-04-30T11:21:44Z</time>
      </trkpt>
      <trkpt lat="44.87284" lon="5.67706">
        <ele>541</ele>
        <time>2010-04-30T11:21:55Z</time>
      </trkpt>
      <trkpt lat="44.87286" lon="5.67727">
        <ele>537</ele>
        <time>2010-04-30T11:22:00Z</time>
      </trkpt>
      <trkpt lat="44.87283" lon="5.67726">
        <ele>535</ele>
        <time>2010-04-30T11:22:02Z</time>
      </trkpt>
      <trkpt lat="44.87271" lon="5.67717">
        <ele>523</ele>
        <time>2010-04-30T11:22:10Z</time>
      </trkpt>
      <trkpt lat="44.87258" lon="5.6771">
        <ele>508</ele>
        <time>2010-04-30T11:22:18Z</time>
      </trkpt>
      <trkpt lat="44.8724" lon="5.67702">
        <ele>486</ele>
        <time>2010-04-30T11:22:24Z</time>
      </trkpt>
      <trkpt lat="44.87236" lon="5.67701">
        <ele>486</ele>
        <time>2010-04-30T11:22:25Z</time>
      </trkpt>
      <trkpt lat="44.87208" lon="5.67687">
        <ele>487</ele>
        <time>2010-04-30T11:22:33Z</time>
      </trkpt>
      <trkpt lat="44.87184" lon="5.67675">
        <ele>489</ele>
        <time>2010-04-30T11:22:42Z</time>
      </trkpt>
      <trkpt lat="44.87162" lon="5.67664">
        <ele>496</ele>
        <time>2010-04-30T11:22:51Z</time>
      </trkpt>
      <trkpt lat="44.87141" lon="5.67658">
        <ele>505</ele>
        <time>2010-04-30T11:23:01Z</time>
      </trkpt>
      <trkpt lat="44.8713" lon="5.67653">
        <ele>512</ele>
        <time>2010-04-30T11:23:09Z</time>
      </trkpt>
      <trkpt lat="44.87117" lon="5.67647">
        <ele>520</ele>
        <time>2010-04-30T11:23:16Z</time>
      </trkpt>
      <trkpt lat="44.87109" lon="5.67645">
        <ele>525</ele>
        <time>2010-04-30T11:23:22Z</time>
      </trkpt>
      <trkpt lat="44.87101" lon="5.67655">
        <ele>530</ele>
        <time>2010-04-30T11:23:29Z</time>
      </trkpt>
      <trkpt lat="44.87096" lon="5.67656">
        <ele>534</ele>
        <time>2010-04-30T11:23:32Z</time>
      </trkpt>
      <trkpt lat="44.87085" lon="5.67656">
        <ele>540</ele>
        <time>2010-04-30T11:23:39Z</time>
      </trkpt>
      <trkpt lat="44.87077" lon="5.67659">
        <ele>545</ele>
        <time>2010-04-30T11:23:47Z</time>
      </trkpt>
      <trkpt lat="44.87085" lon="5.67658">
        <ele>540</ele>
        <time>2010-04-30T11:24:09Z</time>
      </trkpt>
      <trkpt lat="44.87086" lon="5.67658">
        <ele>540</ele>
        <time>2010-04-30T11:24:11Z</time>
      </trkpt>
      <trkpt lat="44.8709" lon="5.67658">
        <ele>537</ele>
        <time>2010-04-30T11:24:19Z</time>
      </trkpt>
      <trkpt lat="44.87093" lon="5.67654">
        <ele>536</ele>
        <time>2010-04-30T11:24:33Z</time>
      </trkpt>
      <trkpt lat="44.87093" lon="5.67648">
        <ele>535</ele>
        <time>2010-04-30T11:24:41Z</time>
      </trkpt>
      <trkpt lat="44.87087" lon="5.67649">
        <ele>539</ele>
        <time>2010-04-30T11:24:48Z</time>
      </trkpt>
      <trkpt lat="44.87087" lon="5.67642">
        <ele>540</ele>
        <time>2010-04-30T11:24:57Z</time>
      </trkpt>
      <trkpt lat="44.87085" lon="5.67642">
        <ele>542</ele>
        <time>2010-04-30T11:25:06Z</time>
      </trkpt>
      <trkpt lat="44.8708" lon="5.6764">
        <ele>545</ele>
        <time>2010-04-30T11:25:15Z</time>
      </trkpt>
      <trkpt lat="44.87076" lon="5.67633">
        <ele>548</ele>
        <time>2010-04-30T11:25:23Z</time>
      </trkpt>
      <trkpt lat="44.87076" lon="5.67628">
        <ele>549</ele>
        <time>2010-04-30T11:25:34Z</time>
      </trkpt>
      <trkpt lat="44.87075" lon="5.67614">
        <ele>549</ele>
        <time>2010-04-30T11:25:43Z</time>
      </trkpt>
      <trkpt lat="44.87073" lon="5.67611">
        <ele>550</ele>
        <time>2010-04-30T11:25:45Z</time>
      </trkpt>
      <trkpt lat="44.87072" lon="5.6761">
        <ele>551</ele>
        <time>2010-04-30T11:25:47Z</time>
      </trkpt>
      <trkpt lat="44.8706" lon="5.676">
        <ele>558</ele>
        <time>2010-04-30T11:25:57Z</time>
      </trkpt>
      <trkpt lat="44.87055" lon="5.67598">
        <ele>560</ele>
        <time>2010-04-30T11:26:03Z</time>
      </trkpt>
      <trkpt lat="44.87047" lon="5.67601">
        <ele>564</ele>
        <time>2010-04-30T11:26:10Z</time>
      </trkpt>
      <trkpt lat="44.87045" lon="5.67601">
        <ele>565</ele>
        <time>2010-04-30T11:26:13Z</time>
      </trkpt>
      <trkpt lat="44.87043" lon="5.67596">
        <ele>565</ele>
        <time>2010-04-30T11:26:17Z</time>
      </trkpt>
      <trkpt lat="44.87043" lon="5.67582">
        <ele>564</ele>
        <time>2010-04-30T11:26:23Z</time>
      </trkpt>
      <trkpt lat="44.87041" lon="5.67577">
        <ele>564</ele>
        <time>2010-04-30T11:26:26Z</time>
      </trkpt>
      <trkpt lat="44.87042" lon="5.67565">
        <ele>563</ele>
        <time>2010-04-30T11:26:31Z</time>
      </trkpt>
      <trkpt lat="44.87043" lon="5.67555">
        <ele>562</ele>
        <time>2010-04-30T11:26:37Z</time>
      </trkpt>
      <trkpt lat="44.87048" lon="5.67531">
        <ele>560</ele>
        <time>2010-04-30T11:26:43Z</time>
      </trkpt>
      <trkpt lat="44.87051" lon="5.67528">
        <ele>558</ele>
        <time>2010-04-30T11:26:45Z</time>
      </trkpt>
      <trkpt lat="44.87043" lon="5.67526">
        <ele>563</ele>
        <time>2010-04-30T11:26:49Z</time>
      </trkpt>
      <trkpt lat="44.87041" lon="5.67524">
        <ele>564</ele>
        <time>2010-04-30T11:26:51Z</time>
      </trkpt>
      <trkpt lat="44.87035" lon="5.67523">
        <ele>567</ele>
        <time>2010-04-30T11:26:54Z</time>
      </trkpt>
      <trkpt lat="44.87032" lon="5.67505">
        <ele>570</ele>
        <time>2010-04-30T11:27:03Z</time>
      </trkpt>
      <trkpt lat="44.87032" lon="5.67503">
        <ele>570</ele>
        <time>2010-04-30T11:27:04Z</time>
      </trkpt>
      <trkpt lat="44.8703" lon="5.67495">
        <ele>572</ele>
        <time>2010-04-30T11:27:09Z</time>
      </trkpt>
      <trkpt lat="44.87031" lon="5.67491">
        <ele>571</ele>
        <time>2010-04-30T11:27:11Z</time>
      </trkpt>
      <trkpt lat="44.87026" lon="5.67484">
        <ele>575</ele>
        <time>2010-04-30T11:27:14Z</time>
      </trkpt>
      <trkpt lat="44.87025" lon="5.67483">
        <ele>576</ele>
        <time>2010-04-30T11:27:15Z</time>
      </trkpt>
      <trkpt lat="44.87024" lon="5.67474">
        <ele>577</ele>
        <time>2010-04-30T11:27:20Z</time>
      </trkpt>
      <trkpt lat="44.87024" lon="5.6747">
        <ele>578</ele>
        <time>2010-04-30T11:27:23Z</time>
      </trkpt>
      <trkpt lat="44.87029" lon="5.67461">
        <ele>577</ele>
        <time>2010-04-30T11:27:28Z</time>
      </trkpt>
      <trkpt lat="44.87035" lon="5.67449">
        <ele>577</ele>
        <time>2010-04-30T11:27:34Z</time>
      </trkpt>
      <trkpt lat="44.8704" lon="5.67436">
        <ele>579</ele>
        <time>2010-04-30T11:27:41Z</time>
      </trkpt>
      <trkpt lat="44.87048" lon="5.67427">
        <ele>578</ele>
        <time>2010-04-30T11:27:47Z</time>
      </trkpt>
      <trkpt lat="44.8704" lon="5.67417">
        <ele>573</ele>
        <time>2010-04-30T11:27:55Z</time>
      </trkpt>
      <trkpt lat="44.87032" lon="5.6741">
        <ele>571</ele>
        <time>2010-04-30T11:28:02Z</time>
      </trkpt>
      <trkpt lat="44.87029" lon="5.67406">
        <ele>570</ele>
        <time>2010-04-30T11:28:07Z</time>
      </trkpt>
      <trkpt lat="44.87026" lon="5.67403">
        <ele>570</ele>
        <time>2010-04-30T11:28:09Z</time>
      </trkpt>
      <trkpt lat="44.8702" lon="5.67401">
        <ele>571</ele>
        <time>2010-04-30T11:28:16Z</time>
      </trkpt>
      <trkpt lat="44.87018" lon="5.67411">
        <ele>575</ele>
        <time>2010-04-30T11:28:21Z</time>
      </trkpt>
      <trkpt lat="44.87006" lon="5.6743">
        <ele>583</ele>
        <time>2010-04-30T11:28:28Z</time>
      </trkpt>
      <trkpt lat="44.87007" lon="5.67436">
        <ele>582</ele>
        <time>2010-04-30T11:28:32Z</time>
      </trkpt>
      <trkpt lat="44.87004" lon="5.67444">
        <ele>582</ele>
        <time>2010-04-30T11:28:37Z</time>
      </trkpt>
      <trkpt lat="44.86997" lon="5.67463">
        <ele>583</ele>
        <time>2010-04-30T11:28:46Z</time>
      </trkpt>
      <trkpt lat="44.86995" lon="5.67471">
        <ele>583</ele>
        <time>2010-04-30T11:28:49Z</time>
      </trkpt>
      <trkpt lat="44.86984" lon="5.67489">
        <ele>585</ele>
        <time>2010-04-30T11:28:56Z</time>
      </trkpt>
      <trkpt lat="44.86977" lon="5.67498">
        <ele>587</ele>
        <time>2010-04-30T11:29:05Z</time>
      </trkpt>
      <trkpt lat="44.86966" lon="5.67513">
        <ele>587</ele>
        <time>2010-04-30T11:29:12Z</time>
      </trkpt>
      <trkpt lat="44.8696" lon="5.67523">
        <ele>588</ele>
        <time>2010-04-30T11:29:20Z</time>
      </trkpt>
      <trkpt lat="44.86952" lon="5.67531">
        <ele>589</ele>
        <time>2010-04-30T11:29:26Z</time>
      </trkpt>
      <trkpt lat="44.86953" lon="5.67556">
        <ele>589</ele>
        <time>2010-04-30T11:29:33Z</time>
      </trkpt>
      <trkpt lat="44.86955" lon="5.67589">
        <ele>589</ele>
        <time>2010-04-30T11:29:40Z</time>
      </trkpt>
      <trkpt lat="44.86954" lon="5.676">
        <ele>589</ele>
        <time>2010-04-30T11:29:44Z</time>
      </trkpt>
      <trkpt lat="44.86947" lon="5.67614">
        <ele>590</ele>
        <time>2010-04-30T11:29:48Z</time>
      </trkpt>
      <trkpt lat="44.86934" lon="5.67641">
        <ele>590</ele>
        <time>2010-04-30T11:29:56Z</time>
      </trkpt>
      <trkpt lat="44.86929" lon="5.67663">
        <ele>590</ele>
        <time>2010-04-30T11:30:02Z</time>
      </trkpt>
      <trkpt lat="44.86919" lon="5.67677">
        <ele>591</ele>
        <time>2010-04-30T11:30:07Z</time>
      </trkpt>
      <trkpt lat="44.86908" lon="5.67701">
        <ele>592</ele>
        <time>2010-04-30T11:30:15Z</time>
      </trkpt>
      <trkpt lat="44.86893" lon="5.6773">
        <ele>596</ele>
        <time>2010-04-30T11:30:22Z</time>
      </trkpt>
      <trkpt lat="44.86882" lon="5.67751">
        <ele>599</ele>
        <time>2010-04-30T11:30:29Z</time>
      </trkpt>
      <trkpt lat="44.86876" lon="5.67766">
        <ele>601</ele>
        <time>2010-04-30T11:30:36Z</time>
      </trkpt>
      <trkpt lat="44.8687" lon="5.67779">
        <ele>601</ele>
        <time>2010-04-30T11:30:43Z</time>
      </trkpt>
      <trkpt lat="44.86864" lon="5.67787">
        <ele>601</ele>
        <time>2010-04-30T11:30:47Z</time>
      </trkpt>
      <trkpt lat="44.86858" lon="5.67806">
        <ele>602</ele>
        <time>2010-04-30T11:30:56Z</time>
      </trkpt>
      <trkpt lat="44.86853" lon="5.67821">
        <ele>603</ele>
        <time>2010-04-30T11:31:02Z</time>
      </trkpt>
      <trkpt lat="44.86849" lon="5.67829">
        <ele>603</ele>
        <time>2010-04-30T11:31:07Z</time>
      </trkpt>
      <trkpt lat="44.86851" lon="5.67845">
        <ele>604</ele>
        <time>2010-04-30T11:31:22Z</time>
      </trkpt>
      <trkpt lat="44.86853" lon="5.67846">
        <ele>603</ele>
        <time>2010-04-30T11:31:45Z</time>
      </trkpt>
      <trkpt lat="44.86847" lon="5.67846">
        <ele>604</ele>
        <time>2010-04-30T12:07:52Z</time>
      </trkpt>
      <trkpt lat="44.86841" lon="5.67859">
        <ele>605</ele>
        <time>2010-04-30T12:08:01Z</time>
      </trkpt>
      <trkpt lat="44.86836" lon="5.6787">
        <ele>606</ele>
        <time>2010-04-30T12:08:09Z</time>
      </trkpt>
      <trkpt lat="44.86827" lon="5.67894">
        <ele>607</ele>
        <time>2010-04-30T12:08:22Z</time>
      </trkpt>
      <trkpt lat="44.8681" lon="5.67921">
        <ele>607</ele>
        <time>2010-04-30T12:08:32Z</time>
      </trkpt>
      <trkpt lat="44.86805" lon="5.67934">
        <ele>606</ele>
        <time>2010-04-30T12:08:35Z</time>
      </trkpt>
      <trkpt lat="44.86797" lon="5.6795">
        <ele>605</ele>
        <time>2010-04-30T12:08:42Z</time>
      </trkpt>
      <trkpt lat="44.86782" lon="5.67972">
        <ele>606</ele>
        <time>2010-04-30T12:08:50Z</time>
      </trkpt>
      <trkpt lat="44.86777" lon="5.67988">
        <ele>605</ele>
        <time>2010-04-30T12:08:57Z</time>
      </trkpt>
      <trkpt lat="44.86765" lon="5.68011">
        <ele>605</ele>
        <time>2010-04-30T12:09:05Z</time>
      </trkpt>
      <trkpt lat="44.8676" lon="5.68024">
        <ele>605</ele>
        <time>2010-04-30T12:09:12Z</time>
      </trkpt>
      <trkpt lat="44.86758" lon="5.68027">
        <ele>605</ele>
        <time>2010-04-30T12:09:23Z</time>
      </trkpt>
      <trkpt lat="44.86755" lon="5.68029">
        <ele>606</ele>
        <time>2010-04-30T12:12:08Z</time>
      </trkpt>
      <trkpt lat="44.86753" lon="5.6803">
        <ele>606</ele>
        <time>2010-04-30T12:13:47Z</time>
      </trkpt>
      <trkpt lat="44.86753" lon="5.6804">
        <ele>606</ele>
        <time>2010-04-30T12:13:57Z</time>
      </trkpt>
      <trkpt lat="44.86752" lon="5.68068">
        <ele>608</ele>
        <time>2010-04-30T12:14:08Z</time>
      </trkpt>
      <trkpt lat="44.86748" lon="5.68097">
        <ele>612</ele>
        <time>2010-04-30T12:14:21Z</time>
      </trkpt>
      <trkpt lat="44.86742" lon="5.68106">
        <ele>615</ele>
        <time>2010-04-30T12:14:31Z</time>
      </trkpt>
      <trkpt lat="44.86741" lon="5.68107">
        <ele>615</ele>
        <time>2010-04-30T12:14:32Z</time>
      </trkpt>
      <trkpt lat="44.86737" lon="5.68117">
        <ele>617</ele>
        <time>2010-04-30T12:14:42Z</time>
      </trkpt>
      <trkpt lat="44.86729" lon="5.68132">
        <ele>620</ele>
        <time>2010-04-30T12:14:53Z</time>
      </trkpt>
      <trkpt lat="44.86726" lon="5.68156">
        <ele>623</ele>
        <time>2010-04-30T12:15:05Z</time>
      </trkpt>
      <trkpt lat="44.86723" lon="5.68177">
        <ele>626</ele>
        <time>2010-04-30T12:15:17Z</time>
      </trkpt>
      <trkpt lat="44.86722" lon="5.68195">
        <ele>626</ele>
        <time>2010-04-30T12:15:30Z</time>
      </trkpt>
      <trkpt lat="44.86723" lon="5.68207">
        <ele>627</ele>
        <time>2010-04-30T12:15:38Z</time>
      </trkpt>
      <trkpt lat="44.86722" lon="5.68207">
        <ele>627</ele>
        <time>2010-04-30T12:15:39Z</time>
      </trkpt>
      <trkpt lat="44.86721" lon="5.68208">
        <ele>627</ele>
        <time>2010-04-30T12:15:42Z</time>
      </trkpt>
      <trkpt lat="44.86717" lon="5.68218">
        <ele>629</ele>
        <time>2010-04-30T12:15:46Z</time>
      </trkpt>
      <trkpt lat="44.86716" lon="5.6823">
        <ele>629</ele>
        <time>2010-04-30T12:15:48Z</time>
      </trkpt>
      <trkpt lat="44.86665" lon="5.68289">
        <ele>646</ele>
        <time>2010-04-30T12:15:56Z</time>
      </trkpt>
      <trkpt lat="44.86663" lon="5.68295">
        <ele>647</ele>
        <time>2010-04-30T12:15:59Z</time>
      </trkpt>
      <trkpt lat="44.86631" lon="5.68302">
        <ele>649</ele>
        <time>2010-04-30T12:16:05Z</time>
      </trkpt>
      <trkpt lat="44.86621" lon="5.68304">
        <ele>648</ele>
        <time>2010-04-30T12:16:07Z</time>
      </trkpt>
      <trkpt lat="44.86618" lon="5.6831">
        <ele>649</ele>
        <time>2010-04-30T12:16:13Z</time>
      </trkpt>
      <trkpt lat="44.86624" lon="5.68327">
        <ele>651</ele>
        <time>2010-04-30T12:16:24Z</time>
      </trkpt>
      <trkpt lat="44.86624" lon="5.68329">
        <ele>651</ele>
        <time>2010-04-30T12:16:26Z</time>
      </trkpt>
      <trkpt lat="44.8661" lon="5.68335">
        <ele>650</ele>
        <time>2010-04-30T12:16:33Z</time>
      </trkpt>
      <trkpt lat="44.86612" lon="5.6835">
        <ele>652</ele>
        <time>2010-04-30T12:16:40Z</time>
      </trkpt>
      <trkpt lat="44.866" lon="5.68361">
        <ele>652</ele>
        <time>2010-04-30T12:16:44Z</time>
      </trkpt>
      <trkpt lat="44.86583" lon="5.6838">
        <ele>651</ele>
        <time>2010-04-30T12:16:47Z</time>
      </trkpt>
      <trkpt lat="44.86568" lon="5.68403">
        <ele>650</ele>
        <time>2010-04-30T12:16:50Z</time>
      </trkpt>
      <trkpt lat="44.86564" lon="5.68412">
        <ele>650</ele>
        <time>2010-04-30T12:16:51Z</time>
      </trkpt>
      <trkpt lat="44.86535" lon="5.68436">
        <ele>648</ele>
        <time>2010-04-30T12:16:55Z</time>
      </trkpt>
      <trkpt lat="44.86523" lon="5.6847">
        <ele>650</ele>
        <time>2010-04-30T12:16:59Z</time>
      </trkpt>
      <trkpt lat="44.86509" lon="5.68502">
        <ele>653</ele>
        <time>2010-04-30T12:17:03Z</time>
      </trkpt>
      <trkpt lat="44.86509" lon="5.68507">
        <ele>653</ele>
        <time>2010-04-30T12:17:04Z</time>
      </trkpt>
      <trkpt lat="44.86494" lon="5.68531">
        <ele>652</ele>
        <time>2010-04-30T12:17:12Z</time>
      </trkpt>
      <trkpt lat="44.86495" lon="5.68539">
        <ele>654</ele>
        <time>2010-04-30T12:17:16Z</time>
      </trkpt>
      <trkpt lat="44.86501" lon="5.6856">
        <ele>660</ele>
        <time>2010-04-30T12:17:25Z</time>
      </trkpt>
      <trkpt lat="44.86508" lon="5.68577">
        <ele>666</ele>
        <time>2010-04-30T12:17:33Z</time>
      </trkpt>
      <trkpt lat="44.86505" lon="5.68583">
        <ele>666</ele>
        <time>2010-04-30T12:17:37Z</time>
      </trkpt>
      <trkpt lat="44.86506" lon="5.68601">
        <ele>671</ele>
        <time>2010-04-30T12:17:47Z</time>
      </trkpt>
      <trkpt lat="44.86506" lon="5.68613">
        <ele>675</ele>
        <time>2010-04-30T12:17:54Z</time>
      </trkpt>
      <trkpt lat="44.86496" lon="5.68619">
        <ele>671</ele>
        <time>2010-04-30T12:18:06Z</time>
      </trkpt>
      <trkpt lat="44.86492" lon="5.68618">
        <ele>669</ele>
        <time>2010-04-30T12:18:37Z</time>
      </trkpt>
      <trkpt lat="44.86475" lon="5.68641">
        <ele>670</ele>
        <time>2010-04-30T12:18:46Z</time>
      </trkpt>
      <trkpt lat="44.86474" lon="5.68642">
        <ele>670</ele>
        <time>2010-04-30T12:18:47Z</time>
      </trkpt>
      <trkpt lat="44.86462" lon="5.68656">
        <ele>669</ele>
        <time>2010-04-30T12:18:53Z</time>
      </trkpt>
      <trkpt lat="44.86453" lon="5.68681">
        <ele>670</ele>
        <time>2010-04-30T12:19:02Z</time>
      </trkpt>
      <trkpt lat="44.86447" lon="5.68692">
        <ele>670</ele>
        <time>2010-04-30T12:19:10Z</time>
      </trkpt>
      <trkpt lat="44.86444" lon="5.68698">
        <ele>671</ele>
        <time>2010-04-30T12:19:13Z</time>
      </trkpt>
      <trkpt lat="44.8644" lon="5.68713">
        <ele>674</ele>
        <time>2010-04-30T12:19:21Z</time>
      </trkpt>
      <trkpt lat="44.86433" lon="5.68713">
        <ele>672</ele>
        <time>2010-04-30T12:19:27Z</time>
      </trkpt>
      <trkpt lat="44.86416" lon="5.68727">
        <ele>672</ele>
        <time>2010-04-30T12:19:35Z</time>
      </trkpt>
      <trkpt lat="44.86413" lon="5.68727">
        <ele>671</ele>
        <time>2010-04-30T12:19:36Z</time>
      </trkpt>
      <trkpt lat="44.86411" lon="5.6874">
        <ele>673</ele>
        <time>2010-04-30T12:19:43Z</time>
      </trkpt>
      <trkpt lat="44.8641" lon="5.68741">
        <ele>673</ele>
        <time>2010-04-30T12:19:44Z</time>
      </trkpt>
      <trkpt lat="44.86408" lon="5.68745">
        <ele>673</ele>
        <time>2010-04-30T12:19:46Z</time>
      </trkpt>
      <trkpt lat="44.86393" lon="5.68759">
        <ele>673</ele>
        <time>2010-04-30T12:19:55Z</time>
      </trkpt>
      <trkpt lat="44.86388" lon="5.68761">
        <ele>673</ele>
        <time>2010-04-30T12:19:58Z</time>
      </trkpt>
      <trkpt lat="44.86387" lon="5.68774">
        <ele>675</ele>
        <time>2010-04-30T12:20:05Z</time>
      </trkpt>
      <trkpt lat="44.86385" lon="5.68784">
        <ele>676</ele>
        <time>2010-04-30T12:20:09Z</time>
      </trkpt>
      <trkpt lat="44.86375" lon="5.68787">
        <ele>675</ele>
        <time>2010-04-30T12:20:16Z</time>
      </trkpt>
      <trkpt lat="44.86371" lon="5.68796">
        <ele>676</ele>
        <time>2010-04-30T12:20:22Z</time>
      </trkpt>
      <trkpt lat="44.86361" lon="5.68798">
        <ele>675</ele>
        <time>2010-04-30T12:20:26Z</time>
      </trkpt>
      <trkpt lat="44.86354" lon="5.68819">
        <ele>677</ele>
        <time>2010-04-30T12:20:34Z</time>
      </trkpt>
      <trkpt lat="44.86339" lon="5.68826">
        <ele>677</ele>
        <time>2010-04-30T12:20:42Z</time>
      </trkpt>
      <trkpt lat="44.86321" lon="5.68841">
        <ele>679</ele>
        <time>2010-04-30T12:20:51Z</time>
      </trkpt>
      <trkpt lat="44.8631" lon="5.68845">
        <ele>679</ele>
        <time>2010-04-30T12:20:59Z</time>
      </trkpt>
      <trkpt lat="44.863" lon="5.68845">
        <ele>679</ele>
        <time>2010-04-30T12:21:03Z</time>
      </trkpt>
      <trkpt lat="44.86288" lon="5.68858">
        <ele>684</ele>
        <time>2010-04-30T12:21:10Z</time>
      </trkpt>
      <trkpt lat="44.86288" lon="5.68861">
        <ele>685</ele>
        <time>2010-04-30T12:21:11Z</time>
      </trkpt>
      <trkpt lat="44.86282" lon="5.68855">
        <ele>683</ele>
        <time>2010-04-30T12:21:19Z</time>
      </trkpt>
      <trkpt lat="44.86264" lon="5.68854">
        <ele>684</ele>
        <time>2010-04-30T12:21:26Z</time>
      </trkpt>
      <trkpt lat="44.86263" lon="5.68865">
        <ele>687</ele>
        <time>2010-04-30T12:21:31Z</time>
      </trkpt>
      <trkpt lat="44.86278" lon="5.68871">
        <ele>688</ele>
        <time>2010-04-30T12:21:41Z</time>
      </trkpt>
      <trkpt lat="44.86283" lon="5.68876">
        <ele>689</ele>
        <time>2010-04-30T12:21:47Z</time>
      </trkpt>
      <trkpt lat="44.8628" lon="5.6888">
        <ele>690</ele>
        <time>2010-04-30T12:21:52Z</time>
      </trkpt>
      <trkpt lat="44.86281" lon="5.68887">
        <ele>692</ele>
        <time>2010-04-30T12:21:57Z</time>
      </trkpt>
      <trkpt lat="44.86274" lon="5.68892">
        <ele>694</ele>
        <time>2010-04-30T12:22:04Z</time>
      </trkpt>
      <trkpt lat="44.86264" lon="5.68898">
        <ele>695</ele>
        <time>2010-04-30T12:22:19Z</time>
      </trkpt>
      <trkpt lat="44.86263" lon="5.68901">
        <ele>696</ele>
        <time>2010-04-30T12:22:21Z</time>
      </trkpt>
      <trkpt lat="44.86264" lon="5.68905">
        <ele>696</ele>
        <time>2010-04-30T12:22:24Z</time>
      </trkpt>
      <trkpt lat="44.86272" lon="5.68905">
        <ele>697</ele>
        <time>2010-04-30T12:22:29Z</time>
      </trkpt>
      <trkpt lat="44.86283" lon="5.68911">
        <ele>697</ele>
        <time>2010-04-30T12:22:36Z</time>
      </trkpt>
      <trkpt lat="44.863" lon="5.68912">
        <ele>697</ele>
        <time>2010-04-30T12:22:43Z</time>
      </trkpt>
      <trkpt lat="44.86319" lon="5.6891">
        <ele>694</ele>
        <time>2010-04-30T12:22:51Z</time>
      </trkpt>
      <trkpt lat="44.86332" lon="5.68905">
        <ele>691</ele>
        <time>2010-04-30T12:22:56Z</time>
      </trkpt>
      <trkpt lat="44.86347" lon="5.68898">
        <ele>687</ele>
        <time>2010-04-30T12:23:02Z</time>
      </trkpt>
      <trkpt lat="44.86354" lon="5.68891">
        <ele>685</ele>
        <time>2010-04-30T12:23:09Z</time>
      </trkpt>
      <trkpt lat="44.86358" lon="5.68889">
        <ele>685</ele>
        <time>2010-04-30T12:23:11Z</time>
      </trkpt>
      <trkpt lat="44.86378" lon="5.68896">
        <ele>683</ele>
        <time>2010-04-30T12:23:17Z</time>
      </trkpt>
      <trkpt lat="44.86385" lon="5.68896">
        <ele>682</ele>
        <time>2010-04-30T12:23:19Z</time>
      </trkpt>
      <trkpt lat="44.86391" lon="5.68909">
        <ele>680</ele>
        <time>2010-04-30T12:23:23Z</time>
      </trkpt>
      <trkpt lat="44.86397" lon="5.68911">
        <ele>679</ele>
        <time>2010-04-30T12:23:26Z</time>
      </trkpt>
      <trkpt lat="44.86405" lon="5.6892">
        <ele>677</ele>
        <time>2010-04-30T12:23:31Z</time>
      </trkpt>
      <trkpt lat="44.86409" lon="5.68928">
        <ele>676</ele>
        <time>2010-04-30T12:23:33Z</time>
      </trkpt>
      <trkpt lat="44.86418" lon="5.68937">
        <ele>674</ele>
        <time>2010-04-30T12:23:36Z</time>
      </trkpt>
      <trkpt lat="44.86426" lon="5.6895">
        <ele>671</ele>
        <time>2010-04-30T12:23:38Z</time>
      </trkpt>
      <trkpt lat="44.86452" lon="5.68983">
        <ele>663</ele>
        <time>2010-04-30T12:23:42Z</time>
      </trkpt>
      <trkpt lat="44.86465" lon="5.68999">
        <ele>661</ele>
        <time>2010-04-30T12:23:44Z</time>
      </trkpt>
      <trkpt lat="44.86488" lon="5.69022">
        <ele>658</ele>
        <time>2010-04-30T12:23:47Z</time>
      </trkpt>
      <trkpt lat="44.86495" lon="5.69028">
        <ele>658</ele>
        <time>2010-04-30T12:23:48Z</time>
      </trkpt>
      <trkpt lat="44.86514" lon="5.69041">
        <ele>655</ele>
        <time>2010-04-30T12:23:52Z</time>
      </trkpt>
      <trkpt lat="44.86521" lon="5.69046">
        <ele>654</ele>
        <time>2010-04-30T12:23:55Z</time>
      </trkpt>
      <trkpt lat="44.86531" lon="5.69055">
        <ele>653</ele>
        <time>2010-04-30T12:23:58Z</time>
      </trkpt>
      <trkpt lat="44.86535" lon="5.6906">
        <ele>653</ele>
        <time>2010-04-30T12:24:00Z</time>
      </trkpt>
      <trkpt lat="44.86532" lon="5.69071">
        <ele>653</ele>
        <time>2010-04-30T12:24:03Z</time>
      </trkpt>
      <trkpt lat="44.86516" lon="5.69108">
        <ele>655</ele>
        <time>2010-04-30T12:24:12Z</time>
      </trkpt>
      <trkpt lat="44.86504" lon="5.69133">
        <ele>656</ele>
        <time>2010-04-30T12:24:18Z</time>
      </trkpt>
      <trkpt lat="44.8649" lon="5.69153">
        <ele>658</ele>
        <time>2010-04-30T12:24:25Z</time>
      </trkpt>
      <trkpt lat="44.86463" lon="5.69167">
        <ele>662</ele>
        <time>2010-04-30T12:24:33Z</time>
      </trkpt>
      <trkpt lat="44.86445" lon="5.69183">
        <ele>664</ele>
        <time>2010-04-30T12:24:40Z</time>
      </trkpt>
      <trkpt lat="44.86428" lon="5.69201">
        <ele>667</ele>
        <time>2010-04-30T12:24:48Z</time>
      </trkpt>
      <trkpt lat="44.86413" lon="5.69216">
        <ele>669</ele>
        <time>2010-04-30T12:24:55Z</time>
      </trkpt>
      <trkpt lat="44.86396" lon="5.69228">
        <ele>671</ele>
        <time>2010-04-30T12:25:03Z</time>
      </trkpt>
      <trkpt lat="44.86382" lon="5.69244">
        <ele>673</ele>
        <time>2010-04-30T12:25:11Z</time>
      </trkpt>
      <trkpt lat="44.86369" lon="5.69266">
        <ele>674</ele>
        <time>2010-04-30T12:25:19Z</time>
      </trkpt>
      <trkpt lat="44.86358" lon="5.69293">
        <ele>675</ele>
        <time>2010-04-30T12:25:27Z</time>
      </trkpt>
      <trkpt lat="44.86351" lon="5.6932">
        <ele>675</ele>
        <time>2010-04-30T12:25:35Z</time>
      </trkpt>
      <trkpt lat="44.86349" lon="5.69361">
        <ele>674</ele>
        <time>2010-04-30T12:25:43Z</time>
      </trkpt>
      <trkpt lat="44.86348" lon="5.69369">
        <ele>674</ele>
        <time>2010-04-30T12:25:44Z</time>
      </trkpt>
      <trkpt lat="44.86351" lon="5.69384">
        <ele>672</ele>
        <time>2010-04-30T12:25:46Z</time>
      </trkpt>
      <trkpt lat="44.86361" lon="5.69405">
        <ele>669</ele>
        <time>2010-04-30T12:25:49Z</time>
      </trkpt>
      <trkpt lat="44.86367" lon="5.69432">
        <ele>665</ele>
        <time>2010-04-30T12:25:53Z</time>
      </trkpt>
      <trkpt lat="44.86366" lon="5.69438">
        <ele>665</ele>
        <time>2010-04-30T12:25:54Z</time>
      </trkpt>
      <trkpt lat="44.86354" lon="5.69461">
        <ele>667</ele>
        <time>2010-04-30T12:26:00Z</time>
      </trkpt>
      <trkpt lat="44.86339" lon="5.6948">
        <ele>670</ele>
        <time>2010-04-30T12:26:10Z</time>
      </trkpt>
      <trkpt lat="44.86326" lon="5.69493">
        <ele>672</ele>
        <time>2010-04-30T12:26:16Z</time>
      </trkpt>
      <trkpt lat="44.86323" lon="5.69496">
        <ele>672</ele>
        <time>2010-04-30T12:26:19Z</time>
      </trkpt>
      <trkpt lat="44.86312" lon="5.69514">
        <ele>674</ele>
        <time>2010-04-30T12:26:27Z</time>
      </trkpt>
      <trkpt lat="44.86303" lon="5.6954">
        <ele>674</ele>
        <time>2010-04-30T12:26:37Z</time>
      </trkpt>
      <trkpt lat="44.86301" lon="5.69549">
        <ele>674</ele>
        <time>2010-04-30T12:26:43Z</time>
      </trkpt>
      <trkpt lat="44.86297" lon="5.69559">
        <ele>673</ele>
        <time>2010-04-30T12:31:07Z</time>
      </trkpt>
      <trkpt lat="44.86293" lon="5.69582">
        <ele>672</ele>
        <time>2010-04-30T12:31:13Z</time>
      </trkpt>
      <trkpt lat="44.86286" lon="5.69612">
        <ele>671</ele>
        <time>2010-04-30T12:31:20Z</time>
      </trkpt>
      <trkpt lat="44.86282" lon="5.69631">
        <ele>669</ele>
        <time>2010-04-30T12:31:23Z</time>
      </trkpt>
      <trkpt lat="44.86277" lon="5.69656">
        <ele>667</ele>
        <time>2010-04-30T12:31:26Z</time>
      </trkpt>
      <trkpt lat="44.86273" lon="5.6969">
        <ele>665</ele>
        <time>2010-04-30T12:31:30Z</time>
      </trkpt>
      <trkpt lat="44.86274" lon="5.69715">
        <ele>662</ele>
        <time>2010-04-30T12:31:33Z</time>
      </trkpt>
      <trkpt lat="44.86274" lon="5.69737">
        <ele>661</ele>
        <time>2010-04-30T12:31:35Z</time>
      </trkpt>
      <trkpt lat="44.86282" lon="5.69779">
        <ele>657</ele>
        <time>2010-04-30T12:31:38Z</time>
      </trkpt>
      <trkpt lat="44.86291" lon="5.69809">
        <ele>656</ele>
        <time>2010-04-30T12:31:40Z</time>
      </trkpt>
      <trkpt lat="44.86314" lon="5.69878">
        <ele>660</ele>
        <time>2010-04-30T12:31:45Z</time>
      </trkpt>
      <trkpt lat="44.8632" lon="5.69899">
        <ele>662</ele>
        <time>2010-04-30T12:31:47Z</time>
      </trkpt>
      <trkpt lat="44.86323" lon="5.69908">
        <ele>663</ele>
        <time>2010-04-30T12:31:48Z</time>
      </trkpt>
      <trkpt lat="44.86334" lon="5.69924">
        <ele>662</ele>
        <time>2010-04-30T12:31:52Z</time>
      </trkpt>
      <trkpt lat="44.86353" lon="5.69923">
        <ele>656</ele>
        <time>2010-04-30T12:31:58Z</time>
      </trkpt>
      <trkpt lat="44.86369" lon="5.69917">
        <ele>651</ele>
        <time>2010-04-30T12:32:01Z</time>
      </trkpt>
      <trkpt lat="44.86381" lon="5.69915">
        <ele>647</ele>
        <time>2010-04-30T12:32:03Z</time>
      </trkpt>
      <trkpt lat="44.86394" lon="5.69927">
        <ele>643</ele>
        <time>2010-04-30T12:32:07Z</time>
      </trkpt>
      <trkpt lat="44.86392" lon="5.69935">
        <ele>643</ele>
        <time>2010-04-30T12:32:08Z</time>
      </trkpt>
      <trkpt lat="44.86374" lon="5.69984">
        <ele>644</ele>
        <time>2010-04-30T12:32:13Z</time>
      </trkpt>
      <trkpt lat="44.86356" lon="5.7004">
        <ele>647</ele>
        <time>2010-04-30T12:32:18Z</time>
      </trkpt>
      <trkpt lat="44.86348" lon="5.70052">
        <ele>651</ele>
        <time>2010-04-30T12:32:19Z</time>
      </trkpt>
      <trkpt lat="44.86337" lon="5.70081">
        <ele>657</ele>
        <time>2010-04-30T12:32:24Z</time>
      </trkpt>
      <trkpt lat="44.86337" lon="5.70099">
        <ele>657</ele>
        <time>2010-04-30T12:32:28Z</time>
      </trkpt>
      <trkpt lat="44.86341" lon="5.70124">
        <ele>659</ele>
        <time>2010-04-30T12:32:35Z</time>
      </trkpt>
      <trkpt lat="44.86345" lon="5.70143">
        <ele>660</ele>
        <time>2010-04-30T12:32:42Z</time>
      </trkpt>
      <trkpt lat="44.86351" lon="5.70161">
        <ele>661</ele>
        <time>2010-04-30T12:32:50Z</time>
      </trkpt>
      <trkpt lat="44.86353" lon="5.70174">
        <ele>662</ele>
        <time>2010-04-30T12:32:57Z</time>
      </trkpt>
      <trkpt lat="44.86352" lon="5.70188">
        <ele>665</ele>
        <time>2010-04-30T12:33:05Z</time>
      </trkpt>
      <trkpt lat="44.86352" lon="5.70209">
        <ele>668</ele>
        <time>2010-04-30T12:33:14Z</time>
      </trkpt>
      <trkpt lat="44.86354" lon="5.70225">
        <ele>670</ele>
        <time>2010-04-30T12:33:22Z</time>
      </trkpt>
      <trkpt lat="44.86359" lon="5.70236">
        <ele>670</ele>
        <time>2010-04-30T12:33:28Z</time>
      </trkpt>
      <trkpt lat="44.86371" lon="5.70248">
        <ele>668</ele>
        <time>2010-04-30T12:33:36Z</time>
      </trkpt>
      <trkpt lat="44.86384" lon="5.70253">
        <ele>664</ele>
        <time>2010-04-30T12:33:43Z</time>
      </trkpt>
      <trkpt lat="44.864" lon="5.70261">
        <ele>660</ele>
        <time>2010-04-30T12:33:52Z</time>
      </trkpt>
      <trkpt lat="44.86407" lon="5.70271">
        <ele>658</ele>
        <time>2010-04-30T12:33:58Z</time>
      </trkpt>
      <trkpt lat="44.86401" lon="5.70279">
        <ele>659</ele>
        <time>2010-04-30T12:34:02Z</time>
      </trkpt>
      <trkpt lat="44.86395" lon="5.70284">
        <ele>660</ele>
        <time>2010-04-30T12:34:04Z</time>
      </trkpt>
      <trkpt lat="44.8638" lon="5.70294">
        <ele>666</ele>
        <time>2010-04-30T12:34:07Z</time>
      </trkpt>
      <trkpt lat="44.86375" lon="5.70325">
        <ele>668</ele>
        <time>2010-04-30T12:34:11Z</time>
      </trkpt>
      <trkpt lat="44.86378" lon="5.70334">
        <ele>666</ele>
        <time>2010-04-30T12:34:12Z</time>
      </trkpt>
      <trkpt lat="44.86402" lon="5.704">
        <ele>651</ele>
        <time>2010-04-30T12:34:19Z</time>
      </trkpt>
      <trkpt lat="44.86393" lon="5.7042">
        <ele>653</ele>
        <time>2010-04-30T12:34:22Z</time>
      </trkpt>
      <trkpt lat="44.86388" lon="5.70428">
        <ele>655</ele>
        <time>2010-04-30T12:34:23Z</time>
      </trkpt>
      <trkpt lat="44.86379" lon="5.70448">
        <ele>653</ele>
        <time>2010-04-30T12:34:25Z</time>
      </trkpt>
      <trkpt lat="44.86376" lon="5.70487">
        <ele>643</ele>
        <time>2010-04-30T12:34:29Z</time>
      </trkpt>
      <trkpt lat="44.8638" lon="5.70495">
        <ele>641</ele>
        <time>2010-04-30T12:34:30Z</time>
      </trkpt>
      <trkpt lat="44.86398" lon="5.70537">
        <ele>644</ele>
        <time>2010-04-30T12:34:34Z</time>
      </trkpt>
      <trkpt lat="44.86429" lon="5.70581">
        <ele>643</ele>
        <time>2010-04-30T12:34:39Z</time>
      </trkpt>
      <trkpt lat="44.86447" lon="5.70614">
        <ele>642</ele>
        <time>2010-04-30T12:34:44Z</time>
      </trkpt>
      <trkpt lat="44.86455" lon="5.70637">
        <ele>641</ele>
        <time>2010-04-30T12:34:47Z</time>
      </trkpt>
      <trkpt lat="44.86466" lon="5.70684">
        <ele>641</ele>
        <time>2010-04-30T12:34:52Z</time>
      </trkpt>
      <trkpt lat="44.8648" lon="5.70718">
        <ele>640</ele>
        <time>2010-04-30T12:34:56Z</time>
      </trkpt>
      <trkpt lat="44.86502" lon="5.70726">
        <ele>643</ele>
        <time>2010-04-30T12:35:00Z</time>
      </trkpt>
      <trkpt lat="44.86515" lon="5.70719">
        <ele>643</ele>
        <time>2010-04-30T12:35:03Z</time>
      </trkpt>
      <trkpt lat="44.86526" lon="5.70708">
        <ele>641</ele>
        <time>2010-04-30T12:35:06Z</time>
      </trkpt>
      <trkpt lat="44.86542" lon="5.7068">
        <ele>635</ele>
        <time>2010-04-30T12:35:10Z</time>
      </trkpt>
      <trkpt lat="44.86553" lon="5.70655">
        <ele>628</ele>
        <time>2010-04-30T12:35:12Z</time>
      </trkpt>
      <trkpt lat="44.86563" lon="5.70629">
        <ele>619</ele>
        <time>2010-04-30T12:35:14Z</time>
      </trkpt>
      <trkpt lat="44.86584" lon="5.70593">
        <ele>613</ele>
        <time>2010-04-30T12:35:17Z</time>
      </trkpt>
      <trkpt lat="44.86594" lon="5.7058">
        <ele>609</ele>
        <time>2010-04-30T12:35:18Z</time>
      </trkpt>
      <trkpt lat="44.86613" lon="5.70558">
        <ele>604</ele>
        <time>2010-04-30T12:35:20Z</time>
      </trkpt>
      <trkpt lat="44.86621" lon="5.70551">
        <ele>602</ele>
        <time>2010-04-30T12:35:21Z</time>
      </trkpt>
      <trkpt lat="44.86653" lon="5.70539">
        <ele>598</ele>
        <time>2010-04-30T12:35:25Z</time>
      </trkpt>
      <trkpt lat="44.8668" lon="5.70552">
        <ele>595</ele>
        <time>2010-04-30T12:35:29Z</time>
      </trkpt>
      <trkpt lat="44.86685" lon="5.7058">
        <ele>601</ele>
        <time>2010-04-30T12:35:32Z</time>
      </trkpt>
      <trkpt lat="44.86689" lon="5.70612">
        <ele>602</ele>
        <time>2010-04-30T12:35:35Z</time>
      </trkpt>
      <trkpt lat="44.86695" lon="5.70637">
        <ele>601</ele>
        <time>2010-04-30T12:35:37Z</time>
      </trkpt>
      <trkpt lat="44.86698" lon="5.70651">
        <ele>599</ele>
        <time>2010-04-30T12:35:38Z</time>
      </trkpt>
      <trkpt lat="44.86716" lon="5.70695">
        <ele>587</ele>
        <time>2010-04-30T12:35:41Z</time>
      </trkpt>
      <trkpt lat="44.86726" lon="5.70715">
        <ele>581</ele>
        <time>2010-04-30T12:35:44Z</time>
      </trkpt>
      <trkpt lat="44.8673" lon="5.70707">
        <ele>578</ele>
        <time>2010-04-30T12:35:47Z</time>
      </trkpt>
      <trkpt lat="44.86729" lon="5.70701">
        <ele>579</ele>
        <time>2010-04-30T12:35:48Z</time>
      </trkpt>
      <trkpt lat="44.86724" lon="5.7068">
        <ele>581</ele>
        <time>2010-04-30T12:35:51Z</time>
      </trkpt>
      <trkpt lat="44.86719" lon="5.70603">
        <ele>582</ele>
        <time>2010-04-30T12:36:01Z</time>
      </trkpt>
      <trkpt lat="44.8673" lon="5.70613">
        <ele>575</ele>
        <time>2010-04-30T12:36:05Z</time>
      </trkpt>
      <trkpt lat="44.86732" lon="5.70621">
        <ele>574</ele>
        <time>2010-04-30T12:36:06Z</time>
      </trkpt>
      <trkpt lat="44.86738" lon="5.70652">
        <ele>570</ele>
        <time>2010-04-30T12:36:09Z</time>
      </trkpt>
      <trkpt lat="44.86752" lon="5.70686">
        <ele>562</ele>
        <time>2010-04-30T12:36:13Z</time>
      </trkpt>
      <trkpt lat="44.86757" lon="5.70696">
        <ele>559</ele>
        <time>2010-04-30T12:36:15Z</time>
      </trkpt>
      <trkpt lat="44.8676" lon="5.70702">
        <ele>557</ele>
        <time>2010-04-30T12:36:16Z</time>
      </trkpt>
      <trkpt lat="44.86761" lon="5.70708">
        <ele>557</ele>
        <time>2010-04-30T12:36:17Z</time>
      </trkpt>
      <trkpt lat="44.86775" lon="5.70732">
        <ele>547</ele>
        <time>2010-04-30T12:36:20Z</time>
      </trkpt>
      <trkpt lat="44.86782" lon="5.70748">
        <ele>543</ele>
        <time>2010-04-30T12:36:22Z</time>
      </trkpt>
      <trkpt lat="44.86792" lon="5.70764">
        <ele>536</ele>
        <time>2010-04-30T12:36:24Z</time>
      </trkpt>
      <trkpt lat="44.86796" lon="5.70772">
        <ele>534</ele>
        <time>2010-04-30T12:36:25Z</time>
      </trkpt>
      <trkpt lat="44.86796" lon="5.70783">
        <ele>531</ele>
        <time>2010-04-30T12:36:27Z</time>
      </trkpt>
      <trkpt lat="44.86794" lon="5.70792">
        <ele>529</ele>
        <time>2010-04-30T12:36:31Z</time>
      </trkpt>
      <trkpt lat="44.86797" lon="5.70797">
        <ele>526</ele>
        <time>2010-04-30T12:36:40Z</time>
      </trkpt>
      <trkpt lat="44.86801" lon="5.708">
        <ele>523</ele>
        <time>2010-04-30T12:36:55Z</time>
      </trkpt>
      <trkpt lat="44.86819" lon="5.70816">
        <ele>509</ele>
        <time>2010-04-30T12:37:00Z</time>
      </trkpt>
      <trkpt lat="44.86837" lon="5.7083">
        <ele>498</ele>
        <time>2010-04-30T12:37:03Z</time>
      </trkpt>
      <trkpt lat="44.86873" lon="5.70862">
        <ele>487</ele>
        <time>2010-04-30T12:37:10Z</time>
      </trkpt>
      <trkpt lat="44.86896" lon="5.70884">
        <ele>486</ele>
        <time>2010-04-30T12:37:18Z</time>
      </trkpt>
      <trkpt lat="44.86919" lon="5.709">
        <ele>487</ele>
        <time>2010-04-30T12:37:26Z</time>
      </trkpt>
      <trkpt lat="44.86938" lon="5.70915">
        <ele>503</ele>
        <time>2010-04-30T12:37:35Z</time>
      </trkpt>
      <trkpt lat="44.86949" lon="5.70924">
        <ele>514</ele>
        <time>2010-04-30T12:37:43Z</time>
      </trkpt>
      <trkpt lat="44.86959" lon="5.70933">
        <ele>527</ele>
        <time>2010-04-30T12:37:51Z</time>
      </trkpt>
      <trkpt lat="44.86962" lon="5.70936">
        <ele>532</ele>
        <time>2010-04-30T12:38:05Z</time>
      </trkpt>
      <trkpt lat="44.86968" lon="5.70939">
        <ele>536</ele>
        <time>2010-04-30T12:38:16Z</time>
      </trkpt>
      <trkpt lat="44.86972" lon="5.70942">
        <ele>539</ele>
        <time>2010-04-30T12:38:23Z</time>
      </trkpt>
      <trkpt lat="44.86977" lon="5.70947">
        <ele>543</ele>
        <time>2010-04-30T12:38:30Z</time>
      </trkpt>
      <trkpt lat="44.86982" lon="5.70947">
        <ele>545</ele>
        <time>2010-04-30T12:38:37Z</time>
      </trkpt>
      <trkpt lat="44.86987" lon="5.70951">
        <ele>549</ele>
        <time>2010-04-30T12:38:45Z</time>
      </trkpt>
      <trkpt lat="44.86988" lon="5.70951">
        <ele>549</ele>
        <time>2010-04-30T12:38:53Z</time>
      </trkpt>
      <trkpt lat="44.86989" lon="5.70953">
        <ele>551</ele>
        <time>2010-04-30T12:38:58Z</time>
      </trkpt>
      <trkpt lat="44.87001" lon="5.70962">
        <ele>558</ele>
        <time>2010-04-30T12:39:07Z</time>
      </trkpt>
      <trkpt lat="44.87005" lon="5.70964">
        <ele>561</ele>
        <time>2010-04-30T12:39:14Z</time>
      </trkpt>
      <trkpt lat="44.87004" lon="5.70964">
        <ele>560</ele>
        <time>2010-04-30T12:39:22Z</time>
      </trkpt>
      <trkpt lat="44.87001" lon="5.70964">
        <ele>559</ele>
        <time>2010-04-30T12:39:28Z</time>
      </trkpt>
      <trkpt lat="44.86991" lon="5.70966">
        <ele>558</ele>
        <time>2010-04-30T12:39:37Z</time>
      </trkpt>
      <trkpt lat="44.86984" lon="5.70967">
        <ele>556</ele>
        <time>2010-04-30T12:39:44Z</time>
      </trkpt>
      <trkpt lat="44.86973" lon="5.70969">
        <ele>555</ele>
        <time>2010-04-30T12:39:52Z</time>
      </trkpt>
      <trkpt lat="44.8697" lon="5.7097">
        <ele>554</ele>
        <time>2010-04-30T12:39:55Z</time>
      </trkpt>
      <trkpt lat="44.8696" lon="5.70973">
        <ele>553</ele>
        <time>2010-04-30T12:40:03Z</time>
      </trkpt>
      <trkpt lat="44.86955" lon="5.70978">
        <ele>549</ele>
        <time>2010-04-30T12:40:10Z</time>
      </trkpt>
      <trkpt lat="44.86957" lon="5.70981">
        <ele>552</ele>
        <time>2010-04-30T12:40:16Z</time>
      </trkpt>
      <trkpt lat="44.86958" lon="5.70981">
        <ele>553</ele>
        <time>2010-04-30T12:40:17Z</time>
      </trkpt>
      <trkpt lat="44.86967" lon="5.70982">
        <ele>557</ele>
        <time>2010-04-30T12:40:26Z</time>
      </trkpt>
      <trkpt lat="44.86966" lon="5.70985">
        <ele>558</ele>
        <time>2010-04-30T12:40:28Z</time>
      </trkpt>
      <trkpt lat="44.86961" lon="5.70987">
        <ele>557</ele>
        <time>2010-04-30T12:40:33Z</time>
      </trkpt>
      <trkpt lat="44.86957" lon="5.70993">
        <ele>556</ele>
        <time>2010-04-30T12:40:38Z</time>
      </trkpt>
      <trkpt lat="44.86957" lon="5.70996">
        <ele>556</ele>
        <time>2010-04-30T12:40:45Z</time>
      </trkpt>
      <trkpt lat="44.86958" lon="5.70995">
        <ele>557</ele>
        <time>2010-04-30T12:40:46Z</time>
      </trkpt>
      <trkpt lat="44.86961" lon="5.70997">
        <ele>559</ele>
        <time>2010-04-30T12:40:55Z</time>
      </trkpt>
      <trkpt lat="44.86961" lon="5.70999">
        <ele>560</ele>
        <time>2010-04-30T12:40:57Z</time>
      </trkpt>
      <trkpt lat="44.86953" lon="5.71005">
        <ele>555</ele>
        <time>2010-04-30T12:41:09Z</time>
      </trkpt>
      <trkpt lat="44.86956" lon="5.71006">
        <ele>558</ele>
        <time>2010-04-30T12:41:12Z</time>
      </trkpt>
      <trkpt lat="44.86959" lon="5.71005">
        <ele>561</ele>
        <time>2010-04-30T12:41:16Z</time>
      </trkpt>
      <trkpt lat="44.86966" lon="5.71005">
        <ele>563</ele>
        <time>2010-04-30T12:41:24Z</time>
      </trkpt>
      <trkpt lat="44.86965" lon="5.71006">
        <ele>563</ele>
        <time>2010-04-30T12:41:26Z</time>
      </trkpt>
      <trkpt lat="44.86964" lon="5.71009">
        <ele>563</ele>
        <time>2010-04-30T12:41:33Z</time>
      </trkpt>
      <trkpt lat="44.86959" lon="5.71017">
        <ele>564</ele>
        <time>2010-04-30T12:41:42Z</time>
      </trkpt>
      <trkpt lat="44.86961" lon="5.71024">
        <ele>566</ele>
        <time>2010-04-30T12:41:50Z</time>
      </trkpt>
      <trkpt lat="44.86963" lon="5.71031">
        <ele>569</ele>
        <time>2010-04-30T12:41:58Z</time>
      </trkpt>
      <trkpt lat="44.86963" lon="5.71033">
        <ele>569</ele>
        <time>2010-04-30T12:42:00Z</time>
      </trkpt>
      <trkpt lat="44.86963" lon="5.71035">
        <ele>569</ele>
        <time>2010-04-30T12:42:02Z</time>
      </trkpt>
      <trkpt lat="44.86961" lon="5.71046">
        <ele>569</ele>
        <time>2010-04-30T12:42:10Z</time>
      </trkpt>
      <trkpt lat="44.8696" lon="5.71058">
        <ele>569</ele>
        <time>2010-04-30T12:42:15Z</time>
      </trkpt>
      <trkpt lat="44.86961" lon="5.7107">
        <ele>569</ele>
        <time>2010-04-30T12:42:22Z</time>
      </trkpt>
      <trkpt lat="44.86964" lon="5.71071">
        <ele>570</ele>
        <time>2010-04-30T12:42:25Z</time>
      </trkpt>
      <trkpt lat="44.86967" lon="5.7106">
        <ele>571</ele>
        <time>2010-04-30T12:42:34Z</time>
      </trkpt>
      <trkpt lat="44.86973" lon="5.71051">
        <ele>573</ele>
        <time>2010-04-30T12:42:42Z</time>
      </trkpt>
      <trkpt lat="44.86981" lon="5.71043">
        <ele>575</ele>
        <time>2010-04-30T12:42:49Z</time>
      </trkpt>
      <trkpt lat="44.86988" lon="5.71044">
        <ele>577</ele>
        <time>2010-04-30T12:42:55Z</time>
      </trkpt>
      <trkpt lat="44.86993" lon="5.71049">
        <ele>579</ele>
        <time>2010-04-30T12:43:00Z</time>
      </trkpt>
      <trkpt lat="44.87001" lon="5.71057">
        <ele>582</ele>
        <time>2010-04-30T12:43:07Z</time>
      </trkpt>
      <trkpt lat="44.87014" lon="5.71066">
        <ele>584</ele>
        <time>2010-04-30T12:43:16Z</time>
      </trkpt>
      <trkpt lat="44.87029" lon="5.71081">
        <ele>587</ele>
        <time>2010-04-30T12:43:25Z</time>
      </trkpt>
      <trkpt lat="44.87046" lon="5.71091">
        <ele>591</ele>
        <time>2010-04-30T12:43:34Z</time>
      </trkpt>
      <trkpt lat="44.87064" lon="5.71101">
        <ele>594</ele>
        <time>2010-04-30T12:43:43Z</time>
      </trkpt>
      <trkpt lat="44.87079" lon="5.71109">
        <ele>596</ele>
        <time>2010-04-30T12:43:52Z</time>
      </trkpt>
      <trkpt lat="44.87092" lon="5.71115">
        <ele>598</ele>
        <time>2010-04-30T12:44:00Z</time>
      </trkpt>
      <trkpt lat="44.87104" lon="5.71122">
        <ele>600</ele>
        <time>2010-04-30T12:44:08Z</time>
      </trkpt>
      <trkpt lat="44.87117" lon="5.71128">
        <ele>603</ele>
        <time>2010-04-30T12:44:16Z</time>
      </trkpt>
      <trkpt lat="44.8713" lon="5.71135">
        <ele>606</ele>
        <time>2010-04-30T12:44:25Z</time>
      </trkpt>
      <trkpt lat="44.87138" lon="5.71142">
        <ele>608</ele>
        <time>2010-04-30T12:44:32Z</time>
      </trkpt>
      <trkpt lat="44.87149" lon="5.71154">
        <ele>610</ele>
        <time>2010-04-30T12:44:41Z</time>
      </trkpt>
      <trkpt lat="44.87151" lon="5.71156">
        <ele>610</ele>
        <time>2010-04-30T12:44:43Z</time>
      </trkpt>
      <trkpt lat="44.87158" lon="5.71165">
        <ele>612</ele>
        <time>2010-04-30T12:44:49Z</time>
      </trkpt>
      <trkpt lat="44.87167" lon="5.71178">
        <ele>614</ele>
        <time>2010-04-30T12:44:59Z</time>
      </trkpt>
      <trkpt lat="44.87169" lon="5.7118">
        <ele>614</ele>
        <time>2010-04-30T12:45:01Z</time>
      </trkpt>
      <trkpt lat="44.87185" lon="5.71181">
        <ele>616</ele>
        <time>2010-04-30T12:45:10Z</time>
      </trkpt>
      <trkpt lat="44.87202" lon="5.71173">
        <ele>617</ele>
        <time>2010-04-30T12:45:18Z</time>
      </trkpt>
      <trkpt lat="44.87217" lon="5.71162">
        <ele>619</ele>
        <time>2010-04-30T12:45:27Z</time>
      </trkpt>
      <trkpt lat="44.87234" lon="5.71153">
        <ele>620</ele>
        <time>2010-04-30T12:45:36Z</time>
      </trkpt>
      <trkpt lat="44.87241" lon="5.71153">
        <ele>620</ele>
        <time>2010-04-30T12:45:40Z</time>
      </trkpt>
      <trkpt lat="44.8725" lon="5.71159">
        <ele>622</ele>
        <time>2010-04-30T12:45:47Z</time>
      </trkpt>
      <trkpt lat="44.87258" lon="5.71174">
        <ele>623</ele>
        <time>2010-04-30T12:45:57Z</time>
      </trkpt>
      <trkpt lat="44.87266" lon="5.71188">
        <ele>624</ele>
        <time>2010-04-30T12:46:07Z</time>
      </trkpt>
      <trkpt lat="44.87273" lon="5.712">
        <ele>626</ele>
        <time>2010-04-30T12:46:16Z</time>
      </trkpt>
      <trkpt lat="44.8728" lon="5.71212">
        <ele>628</ele>
        <time>2010-04-30T12:46:25Z</time>
      </trkpt>
      <trkpt lat="44.87282" lon="5.71213">
        <ele>629</ele>
        <time>2010-04-30T12:46:27Z</time>
      </trkpt>
      <trkpt lat="44.87288" lon="5.71224">
        <ele>631</ele>
        <time>2010-04-30T12:46:35Z</time>
      </trkpt>
      <trkpt lat="44.8729" lon="5.71228">
        <ele>632</ele>
        <time>2010-04-30T12:46:38Z</time>
      </trkpt>
      <trkpt lat="44.87297" lon="5.71244">
        <ele>634</ele>
        <time>2010-04-30T12:46:49Z</time>
      </trkpt>
      <trkpt lat="44.87302" lon="5.71256">
        <ele>636</ele>
        <time>2010-04-30T12:46:57Z</time>
      </trkpt>
      <trkpt lat="44.87305" lon="5.71268">
        <ele>638</ele>
        <time>2010-04-30T12:47:05Z</time>
      </trkpt>
      <trkpt lat="44.87311" lon="5.7128">
        <ele>641</ele>
        <time>2010-04-30T12:47:13Z</time>
      </trkpt>
      <trkpt lat="44.87314" lon="5.71288">
        <ele>643</ele>
        <time>2010-04-30T12:47:18Z</time>
      </trkpt>
      <trkpt lat="44.87318" lon="5.71293">
        <ele>645</ele>
        <time>2010-04-30T12:47:22Z</time>
      </trkpt>
      <trkpt lat="44.87323" lon="5.71309">
        <ele>648</ele>
        <time>2010-04-30T12:47:32Z</time>
      </trkpt>
      <trkpt lat="44.87327" lon="5.71322">
        <ele>650</ele>
        <time>2010-04-30T12:47:41Z</time>
      </trkpt>
      <trkpt lat="44.87329" lon="5.71338">
        <ele>652</ele>
        <time>2010-04-30T12:47:50Z</time>
      </trkpt>
      <trkpt lat="44.87329" lon="5.71339">
        <ele>652</ele>
        <time>2010-04-30T12:47:51Z</time>
      </trkpt>
      <trkpt lat="44.87332" lon="5.71352">
        <ele>654</ele>
        <time>2010-04-30T12:47:59Z</time>
      </trkpt>
      <trkpt lat="44.87332" lon="5.71355">
        <ele>654</ele>
        <time>2010-04-30T12:48:01Z</time>
      </trkpt>
      <trkpt lat="44.87333" lon="5.71361">
        <ele>655</ele>
        <time>2010-04-30T12:48:05Z</time>
      </trkpt>
      <trkpt lat="44.87337" lon="5.71359">
        <ele>655</ele>
        <time>2010-04-30T12:48:08Z</time>
      </trkpt>
      <trkpt lat="44.87345" lon="5.71342">
        <ele>656</ele>
        <time>2010-04-30T12:48:14Z</time>
      </trkpt>
      <trkpt lat="44.87359" lon="5.71312">
        <ele>659</ele>
        <time>2010-04-30T12:48:23Z</time>
      </trkpt>
      <trkpt lat="44.87369" lon="5.71268">
        <ele>659</ele>
        <time>2010-04-30T12:48:33Z</time>
      </trkpt>
      <trkpt lat="44.87377" lon="5.71235">
        <ele>660</ele>
        <time>2010-04-30T12:48:41Z</time>
      </trkpt>
      <trkpt lat="44.87388" lon="5.71207">
        <ele>662</ele>
        <time>2010-04-30T12:48:48Z</time>
      </trkpt>
      <trkpt lat="44.87397" lon="5.71181">
        <ele>663</ele>
        <time>2010-04-30T12:48:55Z</time>
      </trkpt>
      <trkpt lat="44.87406" lon="5.71141">
        <ele>664</ele>
        <time>2010-04-30T12:49:05Z</time>
      </trkpt>
      <trkpt lat="44.8741" lon="5.71109">
        <ele>663</ele>
        <time>2010-04-30T12:49:13Z</time>
      </trkpt>
      <trkpt lat="44.87415" lon="5.7106">
        <ele>657</ele>
        <time>2010-04-30T12:49:24Z</time>
      </trkpt>
      <trkpt lat="44.87429" lon="5.71038">
        <ele>658</ele>
        <time>2010-04-30T12:49:31Z</time>
      </trkpt>
      <trkpt lat="44.87452" lon="5.71017">
        <ele>660</ele>
        <time>2010-04-30T12:49:40Z</time>
      </trkpt>
      <trkpt lat="44.8747" lon="5.71003">
        <ele>662</ele>
        <time>2010-04-30T12:49:47Z</time>
      </trkpt>
      <trkpt lat="44.87493" lon="5.70988">
        <ele>666</ele>
        <time>2010-04-30T12:49:55Z</time>
      </trkpt>
      <trkpt lat="44.87521" lon="5.7097">
        <ele>668</ele>
        <time>2010-04-30T12:50:05Z</time>
      </trkpt>
      <trkpt lat="44.87549" lon="5.70955">
        <ele>670</ele>
        <time>2010-04-30T12:50:15Z</time>
      </trkpt>
      <trkpt lat="44.87585" lon="5.70936">
        <ele>671</ele>
        <time>2010-04-30T12:50:27Z</time>
      </trkpt>
      <trkpt lat="44.87614" lon="5.70921">
        <ele>672</ele>
        <time>2010-04-30T12:50:37Z</time>
      </trkpt>
      <trkpt lat="44.87638" lon="5.70897">
        <ele>669</ele>
        <time>2010-04-30T12:50:46Z</time>
      </trkpt>
      <trkpt lat="44.87659" lon="5.70867">
        <ele>669</ele>
        <time>2010-04-30T12:50:55Z</time>
      </trkpt>
      <trkpt lat="44.87678" lon="5.7083">
        <ele>669</ele>
        <time>2010-04-30T12:51:05Z</time>
      </trkpt>
      <trkpt lat="44.87686" lon="5.70796">
        <ele>669</ele>
        <time>2010-04-30T12:51:13Z</time>
      </trkpt>
      <trkpt lat="44.87684" lon="5.70755">
        <ele>667</ele>
        <time>2010-04-30T12:51:22Z</time>
      </trkpt>
      <trkpt lat="44.87689" lon="5.70714">
        <ele>667</ele>
        <time>2010-04-30T12:51:31Z</time>
      </trkpt>
      <trkpt lat="44.87707" lon="5.70682">
        <ele>672</ele>
        <time>2010-04-30T12:51:40Z</time>
      </trkpt>
      <trkpt lat="44.8772" lon="5.70647">
        <ele>677</ele>
        <time>2010-04-30T12:51:49Z</time>
      </trkpt>
      <trkpt lat="44.8772" lon="5.70628">
        <ele>678</ele>
        <time>2010-04-30T12:51:53Z</time>
      </trkpt>
      <trkpt lat="44.87711" lon="5.70594">
        <ele>678</ele>
        <time>2010-04-30T12:52:01Z</time>
      </trkpt>
      <trkpt lat="44.87701" lon="5.70565">
        <ele>678</ele>
        <time>2010-04-30T12:52:08Z</time>
      </trkpt>
      <trkpt lat="44.877" lon="5.70529">
        <ele>680</ele>
        <time>2010-04-30T12:52:16Z</time>
      </trkpt>
      <trkpt lat="44.87716" lon="5.70494">
        <ele>682</ele>
        <time>2010-04-30T12:52:25Z</time>
      </trkpt>
      <trkpt lat="44.87737" lon="5.70476">
        <ele>684</ele>
        <time>2010-04-30T12:52:33Z</time>
      </trkpt>
      <trkpt lat="44.87774" lon="5.70455">
        <ele>687</ele>
        <time>2010-04-30T12:52:44Z</time>
      </trkpt>
      <trkpt lat="44.87804" lon="5.70441">
        <ele>688</ele>
        <time>2010-04-30T12:52:53Z</time>
      </trkpt>
      <trkpt lat="44.87836" lon="5.7043">
        <ele>690</ele>
        <time>2010-04-30T12:53:02Z</time>
      </trkpt>
      <trkpt lat="44.87868" lon="5.70419">
        <ele>692</ele>
        <time>2010-04-30T12:53:11Z</time>
      </trkpt>
      <trkpt lat="44.87899" lon="5.70409">
        <ele>696</ele>
        <time>2010-04-30T12:53:19Z</time>
      </trkpt>
      <trkpt lat="44.87931" lon="5.70397">
        <ele>698</ele>
        <time>2010-04-30T12:53:28Z</time>
      </trkpt>
      <trkpt lat="44.87966" lon="5.70385">
        <ele>698</ele>
        <time>2010-04-30T12:53:38Z</time>
      </trkpt>
      <trkpt lat="44.87996" lon="5.7038">
        <ele>697</ele>
        <time>2010-04-30T12:53:46Z</time>
      </trkpt>
      <trkpt lat="44.88027" lon="5.70386">
        <ele>698</ele>
        <time>2010-04-30T12:53:54Z</time>
      </trkpt>
      <trkpt lat="44.8806" lon="5.70399">
        <ele>699</ele>
        <time>2010-04-30T12:54:03Z</time>
      </trkpt>
      <trkpt lat="44.88093" lon="5.70417">
        <ele>700</ele>
        <time>2010-04-30T12:54:12Z</time>
      </trkpt>
      <trkpt lat="44.88121" lon="5.70439">
        <ele>702</ele>
        <time>2010-04-30T12:54:19Z</time>
      </trkpt>
      <trkpt lat="44.88137" lon="5.70453">
        <ele>703</ele>
        <time>2010-04-30T12:54:23Z</time>
      </trkpt>
      <trkpt lat="44.88149" lon="5.7046">
        <ele>703</ele>
        <time>2010-04-30T12:54:26Z</time>
      </trkpt>
      <trkpt lat="44.88185" lon="5.70462">
        <ele>702</ele>
        <time>2010-04-30T12:54:34Z</time>
      </trkpt>
      <trkpt lat="44.88221" lon="5.7046">
        <ele>701</ele>
        <time>2010-04-30T12:54:42Z</time>
      </trkpt>
      <trkpt lat="44.88262" lon="5.7044">
        <ele>702</ele>
        <time>2010-04-30T12:54:51Z</time>
      </trkpt>
      <trkpt lat="44.88273" lon="5.70429">
        <ele>702</ele>
        <time>2010-04-30T12:54:54Z</time>
      </trkpt>
      <trkpt lat="44.8828" lon="5.70421">
        <ele>702</ele>
        <time>2010-04-30T12:54:56Z</time>
      </trkpt>
      <trkpt lat="44.88296" lon="5.70381">
        <ele>707</ele>
        <time>2010-04-30T12:55:03Z</time>
      </trkpt>
      <trkpt lat="44.88296" lon="5.70369">
        <ele>708</ele>
        <time>2010-04-30T12:55:05Z</time>
      </trkpt>
      <trkpt lat="44.88294" lon="5.70358">
        <ele>708</ele>
        <time>2010-04-30T12:55:07Z</time>
      </trkpt>
      <trkpt lat="44.8829" lon="5.7033">
        <ele>705</ele>
        <time>2010-04-30T12:55:12Z</time>
      </trkpt>
      <trkpt lat="44.88289" lon="5.70303">
        <ele>704</ele>
        <time>2010-04-30T12:55:17Z</time>
      </trkpt>
      <trkpt lat="44.88298" lon="5.70283">
        <ele>706</ele>
        <time>2010-04-30T12:55:21Z</time>
      </trkpt>
      <trkpt lat="44.88333" lon="5.70246">
        <ele>713</ele>
        <time>2010-04-30T12:55:32Z</time>
      </trkpt>
      <trkpt lat="44.88365" lon="5.70223">
        <ele>716</ele>
        <time>2010-04-30T12:55:41Z</time>
      </trkpt>
      <trkpt lat="44.88392" lon="5.70208">
        <ele>718</ele>
        <time>2010-04-30T12:55:49Z</time>
      </trkpt>
      <trkpt lat="44.88422" lon="5.70193">
        <ele>719</ele>
        <time>2010-04-30T12:55:58Z</time>
      </trkpt>
      <trkpt lat="44.88435" lon="5.70181">
        <ele>717</ele>
        <time>2010-04-30T12:56:02Z</time>
      </trkpt>
      <trkpt lat="44.88441" lon="5.70173">
        <ele>716</ele>
        <time>2010-04-30T12:56:04Z</time>
      </trkpt>
      <trkpt lat="44.88462" lon="5.70133">
        <ele>714</ele>
        <time>2010-04-30T12:56:12Z</time>
      </trkpt>
      <trkpt lat="44.88482" lon="5.70081">
        <ele>715</ele>
        <time>2010-04-30T12:56:22Z</time>
      </trkpt>
      <trkpt lat="44.88501" lon="5.70041">
        <ele>716</ele>
        <time>2010-04-30T12:56:31Z</time>
      </trkpt>
      <trkpt lat="44.88524" lon="5.70011">
        <ele>717</ele>
        <time>2010-04-30T12:56:40Z</time>
      </trkpt>
      <trkpt lat="44.8855" lon="5.69998">
        <ele>718</ele>
        <time>2010-04-30T12:56:48Z</time>
      </trkpt>
      <trkpt lat="44.88575" lon="5.69998">
        <ele>721</ele>
        <time>2010-04-30T12:56:55Z</time>
      </trkpt>
      <trkpt lat="44.88611" lon="5.69999">
        <ele>724</ele>
        <time>2010-04-30T12:57:05Z</time>
      </trkpt>
      <trkpt lat="44.88638" lon="5.70001">
        <ele>726</ele>
        <time>2010-04-30T12:57:13Z</time>
      </trkpt>
      <trkpt lat="44.88679" lon="5.70003">
        <ele>728</ele>
        <time>2010-04-30T12:57:25Z</time>
      </trkpt>
      <trkpt lat="44.8872" lon="5.70006">
        <ele>731</ele>
        <time>2010-04-30T12:57:37Z</time>
      </trkpt>
      <trkpt lat="44.88753" lon="5.70002">
        <ele>733</ele>
        <time>2010-04-30T12:57:47Z</time>
      </trkpt>
      <trkpt lat="44.88789" lon="5.69981">
        <ele>733</ele>
        <time>2010-04-30T12:57:58Z</time>
      </trkpt>
      <trkpt lat="44.88818" lon="5.69961">
        <ele>733</ele>
        <time>2010-04-30T12:58:08Z</time>
      </trkpt>
      <trkpt lat="44.88841" lon="5.69952">
        <ele>734</ele>
        <time>2010-04-30T12:58:17Z</time>
      </trkpt>
      <trkpt lat="44.88988" lon="5.69617">
        <ele>720.18396</ele>
        <time>2008-09-21T10:10:55Z</time>
      </trkpt>
      <trkpt lat="44.88976" lon="5.69595">
        <ele>717.312256</ele>
        <time>2008-09-21T10:10:58Z</time>
      </trkpt>
      <trkpt lat="44.88965" lon="5.69568">
        <ele>713.066101</ele>
        <time>2008-09-21T10:11:01Z</time>
      </trkpt>
      <trkpt lat="44.88962" lon="5.69538">
        <ele>708.859802</ele>
        <time>2008-09-21T10:11:04Z</time>
      </trkpt>
      <trkpt lat="44.88968" lon="5.69511">
        <ele>705.620483</ele>
        <time>2008-09-21T10:11:08Z</time>
      </trkpt>
      <trkpt lat="44.88961" lon="5.69483">
        <ele>701.118958</ele>
        <time>2008-09-21T10:11:14Z</time>
      </trkpt>
      <trkpt lat="44.88949" lon="5.69455">
        <ele>697.321594</ele>
        <time>2008-09-21T10:11:18Z</time>
      </trkpt>
      <trkpt lat="44.88939" lon="5.69413">
        <ele>691.573914</ele>
        <time>2008-09-21T10:11:22Z</time>
      </trkpt>
      <trkpt lat="44.88942" lon="5.69371">
        <ele>686.264282</ele>
        <time>2008-09-21T10:11:26Z</time>
      </trkpt>
      <trkpt lat="44.88958" lon="5.69362">
        <ele>684.367981</ele>
        <time>2008-09-21T10:11:30Z</time>
      </trkpt>
      <trkpt lat="44.88973" lon="5.69346">
        <ele>682.24231</ele>
        <time>2008-09-21T10:11:34Z</time>
      </trkpt>
      <trkpt lat="44.8898" lon="5.69323">
        <ele>680.537354</ele>
        <time>2008-09-21T10:11:39Z</time>
      </trkpt>
      <trkpt lat="44.88973" lon="5.69294">
        <ele>680.03125</ele>
        <time>2008-09-21T10:11:45Z</time>
      </trkpt>
      <trkpt lat="44.88963" lon="5.69265">
        <ele>679.85376</ele>
        <time>2008-09-21T10:11:51Z</time>
      </trkpt>
      <trkpt lat="44.88971" lon="5.6924">
        <ele>678.051758</ele>
        <time>2008-09-21T10:11:56Z</time>
      </trkpt>
      <trkpt lat="44.88986" lon="5.69222">
        <ele>675.610046</ele>
        <time>2008-09-21T10:12:00Z</time>
      </trkpt>
      <trkpt lat="44.89002" lon="5.69213">
        <ele>672.602478</ele>
        <time>2008-09-21T10:12:07Z</time>
      </trkpt>
      <trkpt lat="44.88987" lon="5.69195">
        <ele>672.709534</ele>
        <time>2008-09-21T10:12:14Z</time>
      </trkpt>
      <trkpt lat="44.88965" lon="5.69192">
        <ele>673.427979</ele>
        <time>2008-09-21T10:12:20Z</time>
      </trkpt>
      <trkpt lat="44.88945" lon="5.6918">
        <ele>671.992493</ele>
        <time>2008-09-21T10:12:28Z</time>
      </trkpt>
      <trkpt lat="44.88931" lon="5.69161">
        <ele>667.919983</ele>
        <time>2008-09-21T10:12:36Z</time>
      </trkpt>
      <trkpt lat="44.88913" lon="5.69162">
        <ele>666.650024</ele>
        <time>2008-09-21T10:12:40Z</time>
      </trkpt>
      <trkpt lat="44.88899" lon="5.69152">
        <ele>663.478943</ele>
        <time>2008-09-21T10:12:46Z</time>
      </trkpt>
      <trkpt lat="44.8892" lon="5.69135">
        <ele>662.765015</ele>
        <time>2008-09-21T10:12:54Z</time>
      </trkpt>
      <trkpt lat="44.88927" lon="5.6911">
        <ele>659.250427</ele>
        <time>2008-09-21T10:12:59Z</time>
      </trkpt>
      <trkpt lat="44.88925" lon="5.69076">
        <ele>653.68689</ele>
        <time>2008-09-21T10:13:04Z</time>
      </trkpt>
      <trkpt lat="44.88917" lon="5.69046">
        <ele>649.364319</ele>
        <time>2008-09-21T10:13:09Z</time>
      </trkpt>
      <trkpt lat="44.88905" lon="5.6902">
        <ele>646.344299</ele>
        <time>2008-09-21T10:13:13Z</time>
      </trkpt>
      <trkpt lat="44.889" lon="5.68991">
        <ele>643.287476</ele>
        <time>2008-09-21T10:13:17Z</time>
      </trkpt>
      <trkpt lat="44.88883" lon="5.68973">
        <ele>642.143066</ele>
        <time>2008-09-21T10:13:21Z</time>
      </trkpt>
      <trkpt lat="44.88859" lon="5.6897">
        <ele>641.822937</ele>
        <time>2008-09-21T10:13:25Z</time>
      </trkpt>
      <trkpt lat="44.88837" lon="5.68968">
        <ele>640.583435</ele>
        <time>2008-09-21T10:13:29Z</time>
      </trkpt>
      <trkpt lat="44.88814" lon="5.68964">
        <ele>637.870911</ele>
        <time>2008-09-21T10:13:33Z</time>
      </trkpt>
      <trkpt lat="44.88793" lon="5.68964">
        <ele>632.393311</ele>
        <time>2008-09-21T10:13:41Z</time>
      </trkpt>
      <trkpt lat="44.88772" lon="5.68968">
        <ele>626.878601</ele>
        <time>2008-09-21T10:13:45Z</time>
      </trkpt>
      <trkpt lat="44.88752" lon="5.68972">
        <ele>621.400818</ele>
        <time>2008-09-21T10:13:49Z</time>
      </trkpt>
      <trkpt lat="44.88731" lon="5.68964">
        <ele>615.067261</ele>
        <time>2008-09-21T10:13:53Z</time>
      </trkpt>
      <trkpt lat="44.8871" lon="5.68955">
        <ele>609.94873</ele>
        <time>2008-09-21T10:13:58Z</time>
      </trkpt>
      <trkpt lat="44.88691" lon="5.68943">
        <ele>605.86084</ele>
        <time>2008-09-21T10:14:02Z</time>
      </trkpt>
      <trkpt lat="44.8867" lon="5.68936">
        <ele>605.368652</ele>
        <time>2008-09-21T10:14:06Z</time>
      </trkpt>
      <trkpt lat="44.88656" lon="5.68917">
        <ele>606.591003</ele>
        <time>2008-09-21T10:14:11Z</time>
      </trkpt>
      <trkpt lat="44.88636" lon="5.68905">
        <ele>605.364136</ele>
        <time>2008-09-21T10:14:17Z</time>
      </trkpt>
      <trkpt lat="44.88619" lon="5.68891">
        <ele>602.989014</ele>
        <time>2008-09-21T10:14:22Z</time>
      </trkpt>
      <trkpt lat="44.88602" lon="5.68904">
        <ele>603.717346</ele>
        <time>2008-09-21T10:14:27Z</time>
      </trkpt>
      <trkpt lat="44.88585" lon="5.68911">
        <ele>601.233154</ele>
        <time>2008-09-21T10:14:32Z</time>
      </trkpt>
      <trkpt lat="44.88566" lon="5.68921">
        <ele>597.436829</ele>
        <time>2008-09-21T10:14:37Z</time>
      </trkpt>
      <trkpt lat="44.88543" lon="5.68923">
        <ele>592.67041</ele>
        <time>2008-09-21T10:14:42Z</time>
      </trkpt>
      <trkpt lat="44.88524" lon="5.6891">
        <ele>587.359985</ele>
        <time>2008-09-21T10:14:46Z</time>
      </trkpt>
      <trkpt lat="44.885" lon="5.68909">
        <ele>581.752197</ele>
        <time>2008-09-21T10:14:50Z</time>
      </trkpt>
      <trkpt lat="44.88477" lon="5.68906">
        <ele>576.015015</ele>
        <time>2008-09-21T10:14:54Z</time>
      </trkpt>
      <trkpt lat="44.88451" lon="5.68911">
        <ele>570.02124</ele>
        <time>2008-09-21T10:14:58Z</time>
      </trkpt>
      <trkpt lat="44.88433" lon="5.68913">
        <ele>565.777527</ele>
        <time>2008-09-21T10:15:04Z</time>
      </trkpt>
      <trkpt lat="44.88422" lon="5.68904">
        <ele>562.721069</ele>
        <time>2008-09-21T10:15:11Z</time>
      </trkpt>
      <trkpt lat="44.88413" lon="5.68936">
        <ele>561.274048</ele>
        <time>2008-09-21T10:15:16Z</time>
      </trkpt>
      <trkpt lat="44.88423" lon="5.68965">
        <ele>564.431213</ele>
        <time>2008-09-21T10:15:22Z</time>
      </trkpt>
      <trkpt lat="44.88421" lon="5.68994">
        <ele>563.945679</ele>
        <time>2008-09-21T10:15:28Z</time>
      </trkpt>
      <trkpt lat="44.88427" lon="5.69018">
        <ele>564.244263</ele>
        <time>2008-09-21T10:15:34Z</time>
      </trkpt>
      <trkpt lat="44.88431" lon="5.69045">
        <ele>562.816284</ele>
        <time>2008-09-21T10:15:38Z</time>
      </trkpt>
      <trkpt lat="44.88415" lon="5.69054">
        <ele>560.531433</ele>
        <time>2008-09-21T10:15:42Z</time>
      </trkpt>
      <trkpt lat="44.88398" lon="5.69058">
        <ele>557.103394</ele>
        <time>2008-09-21T10:15:49Z</time>
      </trkpt>
      <trkpt lat="44.88393" lon="5.69082">
        <ele>554.300659</ele>
        <time>2008-09-21T10:16:05Z</time>
      </trkpt>
      <trkpt lat="44.88406" lon="5.69107">
        <ele>556.710571</ele>
        <time>2008-09-21T10:16:10Z</time>
      </trkpt>
      <trkpt lat="44.88416" lon="5.69127">
        <ele>560.442383</ele>
        <time>2008-09-21T10:16:20Z</time>
      </trkpt>
      <trkpt lat="44.88397" lon="5.69138">
        <ele>559.278137</ele>
        <time>2008-09-21T10:16:31Z</time>
      </trkpt>
      <trkpt lat="44.88377" lon="5.69144">
        <ele>556.78894</ele>
        <time>2008-09-21T10:16:39Z</time>
      </trkpt>
      <trkpt lat="44.88371" lon="5.69168">
        <ele>560.22699</ele>
        <time>2008-09-21T10:16:45Z</time>
      </trkpt>
      <trkpt lat="44.8836" lon="5.69186">
        <ele>563.469788</ele>
        <time>2008-09-21T10:16:52Z</time>
      </trkpt>
      <trkpt lat="44.88344" lon="5.69172">
        <ele>560.988281</ele>
        <time>2008-09-21T10:17:04Z</time>
      </trkpt>
      <trkpt lat="44.88324" lon="5.69167">
        <ele>560.741394</ele>
        <time>2008-09-21T10:17:19Z</time>
      </trkpt>
      <trkpt lat="44.88305" lon="5.69175">
        <ele>562.742004</ele>
        <time>2008-09-21T10:17:35Z</time>
      </trkpt>
      <trkpt lat="44.8828" lon="5.69187">
        <ele>566.325867</ele>
        <time>2008-09-21T10:17:56Z</time>
      </trkpt>
      <trkpt lat="44.88277" lon="5.69221">
        <ele>575.072021</ele>
        <time>2008-09-21T10:18:25Z</time>
      </trkpt>
      <trkpt lat="44.88271" lon="5.69244">
        <ele>582.15979</ele>
        <time>2008-09-21T10:18:48Z</time>
      </trkpt>
      <trkpt lat="44.8825" lon="5.6925">
        <ele>585.288025</ele>
        <time>2008-09-21T10:18:59Z</time>
      </trkpt>
      <trkpt lat="44.88231" lon="5.69227">
        <ele>580.752808</ele>
        <time>2008-09-21T10:19:09Z</time>
      </trkpt>
      <trkpt lat="44.88231" lon="5.69196">
        <ele>572.406982</ele>
        <time>2008-09-21T10:19:15Z</time>
      </trkpt>
      <trkpt lat="44.88205" lon="5.69176">
        <ele>569.217834</ele>
        <time>2008-09-21T10:19:23Z</time>
      </trkpt>
      <trkpt lat="44.88186" lon="5.69168">
        <ele>569.460022</ele>
        <time>2008-09-21T10:19:29Z</time>
      </trkpt>
      <trkpt lat="44.88199" lon="5.69162">
        <ele>566.25293</ele>
        <time>2008-09-21T10:19:36Z</time>
      </trkpt>
      <trkpt lat="44.88219" lon="5.69155">
        <ele>561.593506</ele>
        <time>2008-09-21T10:19:42Z</time>
      </trkpt>
      <trkpt lat="44.8823" lon="5.69123">
        <ele>547.532104</ele>
        <time>2008-09-21T10:20:27Z</time>
      </trkpt>
      <trkpt lat="44.88209" lon="5.69107">
        <ele>544.413696</ele>
        <time>2008-09-21T10:20:32Z</time>
      </trkpt>
      <trkpt lat="44.88186" lon="5.69083">
        <ele>537.730408</ele>
        <time>2008-09-21T10:20:37Z</time>
      </trkpt>
      <trkpt lat="44.88167" lon="5.69076">
        <ele>532.871277</ele>
        <time>2008-09-21T10:20:42Z</time>
      </trkpt>
      <trkpt lat="44.88181" lon="5.69063">
        <ele>529.221802</ele>
        <time>2008-09-21T10:20:50Z</time>
      </trkpt>
      <trkpt lat="44.88197" lon="5.69057">
        <ele>527.631592</ele>
        <time>2008-09-21T10:20:58Z</time>
      </trkpt>
      <trkpt lat="44.88185" lon="5.6904">
        <ele>520.968018</ele>
        <time>2008-09-21T10:21:03Z</time>
      </trkpt>
      <trkpt lat="44.88169" lon="5.69023">
        <ele>513.057922</ele>
        <time>2008-09-21T10:21:08Z</time>
      </trkpt>
      <trkpt lat="44.88182" lon="5.69022">
        <ele>514.014343</ele>
        <time>2008-09-21T10:21:15Z</time>
      </trkpt>
      <trkpt lat="44.88202" lon="5.69013">
        <ele>513.954895</ele>
        <time>2008-09-21T10:21:21Z</time>
      </trkpt>
      <trkpt lat="44.88195" lon="5.68988">
        <ele>508.519043</ele>
        <time>2008-09-21T10:21:27Z</time>
      </trkpt>
      <trkpt lat="44.88175" lon="5.68983">
        <ele>503.979675</ele>
        <time>2008-09-21T10:21:36Z</time>
      </trkpt>
      <trkpt lat="44.88154" lon="5.68986">
        <ele>501.338409</ele>
        <time>2008-09-21T10:21:43Z</time>
      </trkpt>
      <trkpt lat="44.88133" lon="5.68987">
        <ele>499.297577</ele>
        <time>2008-09-21T10:21:49Z</time>
      </trkpt>
      <trkpt lat="44.88115" lon="5.68988">
        <ele>497.670807</ele>
        <time>2008-09-21T10:21:54Z</time>
      </trkpt>
      <trkpt lat="44.88094" lon="5.68991">
        <ele>496.310089</ele>
        <time>2008-09-21T10:21:59Z</time>
      </trkpt>
      <trkpt lat="44.88076" lon="5.68994">
        <ele>495.880463</ele>
        <time>2008-09-21T10:22:03Z</time>
      </trkpt>
      <trkpt lat="44.88057" lon="5.68995">
        <ele>495.025635</ele>
        <time>2008-09-21T10:22:07Z</time>
      </trkpt>
      <trkpt lat="44.88036" lon="5.68999">
        <ele>494.441711</ele>
        <time>2008-09-21T10:22:11Z</time>
      </trkpt>
      <trkpt lat="44.88015" lon="5.69004">
        <ele>493.927246</ele>
        <time>2008-09-21T10:22:15Z</time>
      </trkpt>
      <trkpt lat="44.87994" lon="5.69011">
        <ele>493.627502</ele>
        <time>2008-09-21T10:22:19Z</time>
      </trkpt>
      <trkpt lat="44.87979" lon="5.69009">
        <ele>492.214996</ele>
        <time>2008-09-21T10:22:25Z</time>
      </trkpt>
      <trkpt lat="44.87964" lon="5.68986">
        <ele>488.801483</ele>
        <time>2008-09-21T10:22:34Z</time>
      </trkpt>
      <trkpt lat="44.87947" lon="5.68997">
        <ele>488.867096</ele>
        <time>2008-09-21T10:22:41Z</time>
      </trkpt>
      <trkpt lat="44.87928" lon="5.69">
        <ele>488.243591</ele>
        <time>2008-09-21T10:22:46Z</time>
      </trkpt>
      <trkpt lat="44.87906" lon="5.69004">
        <ele>488.648346</ele>
        <time>2008-09-21T10:22:52Z</time>
      </trkpt>
      <trkpt lat="44.8789" lon="5.69016">
        <ele>490.82608</ele>
        <time>2008-09-21T10:22:59Z</time>
      </trkpt>
      <trkpt lat="44.87876" lon="5.69033">
        <ele>493.511963</ele>
        <time>2008-09-21T10:23:06Z</time>
      </trkpt>
      <trkpt lat="44.87858" lon="5.69044">
        <ele>493.881378</ele>
        <time>2008-09-21T10:23:12Z</time>
      </trkpt>
      <trkpt lat="44.8784" lon="5.69053">
        <ele>493.428009</ele>
        <time>2008-09-21T10:23:18Z</time>
      </trkpt>
      <trkpt lat="44.8782" lon="5.69065">
        <ele>493.514069</ele>
        <time>2008-09-21T10:23:24Z</time>
      </trkpt>
      <trkpt lat="44.87803" lon="5.69079">
        <ele>494.651245</ele>
        <time>2008-09-21T10:23:30Z</time>
      </trkpt>
      <trkpt lat="44.87802" lon="5.69102">
        <ele>498.705261</ele>
        <time>2008-09-21T10:23:38Z</time>
      </trkpt>
      <trkpt lat="44.87811" lon="5.69116">
        <ele>502.502472</ele>
        <time>2008-09-21T10:29:47Z</time>
      </trkpt>
      <trkpt lat="44.87794" lon="5.69132">
        <ele>502.729706</ele>
        <time>2008-09-21T10:29:55Z</time>
      </trkpt>
      <trkpt lat="44.87775" lon="5.69147">
        <ele>501.368317</ele>
        <time>2008-09-21T10:30:01Z</time>
      </trkpt>
      <trkpt lat="44.87758" lon="5.6916">
        <ele>499.824371</ele>
        <time>2008-09-21T10:30:06Z</time>
      </trkpt>
      <trkpt lat="44.87742" lon="5.69176">
        <ele>498.132141</ele>
        <time>2008-09-21T10:30:11Z</time>
      </trkpt>
      <trkpt lat="44.8773" lon="5.69198">
        <ele>496.418427</ele>
        <time>2008-09-21T10:30:16Z</time>
      </trkpt>
      <trkpt lat="44.87723" lon="5.69226">
        <ele>495.57309</ele>
        <time>2008-09-21T10:30:21Z</time>
      </trkpt>
      <trkpt lat="44.87718" lon="5.69252">
        <ele>494.57251</ele>
        <time>2008-09-21T10:30:25Z</time>
      </trkpt>
      <trkpt lat="44.87713" lon="5.6928">
        <ele>492.386261</ele>
        <time>2008-09-21T10:30:29Z</time>
      </trkpt>
      <trkpt lat="44.87707" lon="5.6931">
        <ele>490.247223</ele>
        <time>2008-09-21T10:30:33Z</time>
      </trkpt>
      <trkpt lat="44.877" lon="5.69338">
        <ele>490.10379</ele>
        <time>2008-09-21T10:30:37Z</time>
      </trkpt>
      <trkpt lat="44.87695" lon="5.69367">
        <ele>490.380402</ele>
        <time>2008-09-21T10:30:41Z</time>
      </trkpt>
      <trkpt lat="44.87695" lon="5.69394">
        <ele>490.578949</ele>
        <time>2008-09-21T10:30:45Z</time>
      </trkpt>
      <trkpt lat="44.87699" lon="5.69418">
        <ele>491.963501</ele>
        <time>2008-09-21T10:30:49Z</time>
      </trkpt>
      <trkpt lat="44.87709" lon="5.69439">
        <ele>493.869629</ele>
        <time>2008-09-21T10:30:53Z</time>
      </trkpt>
      <trkpt lat="44.8772" lon="5.69461">
        <ele>494.238007</ele>
        <time>2008-09-21T10:30:57Z</time>
      </trkpt>
      <trkpt lat="44.87731" lon="5.69481">
        <ele>495.049988</ele>
        <time>2008-09-21T10:31:01Z</time>
      </trkpt>
      <trkpt lat="44.87744" lon="5.69504">
        <ele>499.922302</ele>
        <time>2008-09-21T10:31:06Z</time>
      </trkpt>
      <trkpt lat="44.87744" lon="5.69533">
        <ele>504.153534</ele>
        <time>2008-09-21T10:31:11Z</time>
      </trkpt>
      <trkpt lat="44.87727" lon="5.69549">
        <ele>503.156433</ele>
        <time>2008-09-21T10:31:16Z</time>
      </trkpt>
      <trkpt lat="44.87709" lon="5.6955">
        <ele>501.597504</ele>
        <time>2008-09-21T10:31:21Z</time>
      </trkpt>
      <trkpt lat="44.87689" lon="5.69548">
        <ele>498.997498</ele>
        <time>2008-09-21T10:31:28Z</time>
      </trkpt>
      <trkpt lat="44.8767" lon="5.69546">
        <ele>496.328003</ele>
        <time>2008-09-21T10:31:35Z</time>
      </trkpt>
      <trkpt lat="44.87655" lon="5.6952">
        <ele>490.004608</ele>
        <time>2008-09-21T10:31:41Z</time>
      </trkpt>
      <trkpt lat="44.87639" lon="5.6951">
        <ele>487.807739</ele>
        <time>2008-09-21T10:31:47Z</time>
      </trkpt>
      <trkpt lat="44.87626" lon="5.69533">
        <ele>488.765656</ele>
        <time>2008-09-21T10:31:53Z</time>
      </trkpt>
      <trkpt lat="44.87618" lon="5.69558">
        <ele>489.89856</ele>
        <time>2008-09-21T10:31:59Z</time>
      </trkpt>
      <trkpt lat="44.87607" lon="5.6958">
        <ele>490.337585</ele>
        <time>2008-09-21T10:32:04Z</time>
      </trkpt>
      <trkpt lat="44.87605" lon="5.69606">
        <ele>491.768707</ele>
        <time>2008-09-21T10:32:13Z</time>
      </trkpt>
      <trkpt lat="44.87598" lon="5.69633">
        <ele>491.975586</ele>
        <time>2008-09-21T10:32:22Z</time>
      </trkpt>
      <trkpt lat="44.87589" lon="5.69656">
        <ele>491.023621</ele>
        <time>2008-09-21T10:32:31Z</time>
      </trkpt>
      <trkpt lat="44.87583" lon="5.6968">
        <ele>491.602814</ele>
        <time>2008-09-21T10:32:39Z</time>
      </trkpt>
      <trkpt lat="44.87569" lon="5.69692">
        <ele>494.831482</ele>
        <time>2008-09-21T10:32:54Z</time>
      </trkpt>
      <trkpt lat="44.87534" lon="5.69687">
        <ele>493.886841</ele>
        <time>2008-09-21T10:33:31Z</time>
      </trkpt>
      <trkpt lat="44.87512" lon="5.69687">
        <ele>493.436249</ele>
        <time>2008-09-21T10:33:38Z</time>
      </trkpt>
      <trkpt lat="44.87493" lon="5.69691">
        <ele>493.966492</ele>
        <time>2008-09-21T10:33:41Z</time>
      </trkpt>
      <trkpt lat="44.87475" lon="5.69698">
        <ele>493.975952</ele>
        <time>2008-09-21T10:33:45Z</time>
      </trkpt>
      <trkpt lat="44.87459" lon="5.69712">
        <ele>494.026398</ele>
        <time>2008-09-21T10:33:56Z</time>
      </trkpt>
      <trkpt lat="44.87443" lon="5.69728">
        <ele>492.592285</ele>
        <time>2008-09-21T10:34:08Z</time>
      </trkpt>
      <trkpt lat="44.87432" lon="5.69747">
        <ele>496.780182</ele>
        <time>2008-09-21T10:34:21Z</time>
      </trkpt>
      <trkpt lat="44.87425" lon="5.69771">
        <ele>503.914734</ele>
        <time>2008-09-21T10:34:35Z</time>
      </trkpt>
      <trkpt lat="44.87417" lon="5.69797">
        <ele>509.470001</ele>
        <time>2008-09-21T10:34:49Z</time>
      </trkpt>
      <trkpt lat="44.87418" lon="5.69813">
        <ele>513.529358</ele>
        <time>2008-09-21T10:35:04Z</time>
      </trkpt>
      <trkpt lat="44.87435" lon="5.69802">
        <ele>517.563904</ele>
        <time>2008-09-21T10:35:16Z</time>
      </trkpt>
      <trkpt lat="44.87453" lon="5.69792">
        <ele>520.437195</ele>
        <time>2008-09-21T10:35:28Z</time>
      </trkpt>
      <trkpt lat="44.87468" lon="5.6979">
        <ele>522.041565</ele>
        <time>2008-09-21T10:35:41Z</time>
      </trkpt>
      <trkpt lat="44.87457" lon="5.69814">
        <ele>524.807312</ele>
        <time>2008-09-21T10:35:54Z</time>
      </trkpt>
      <trkpt lat="44.87447" lon="5.69838">
        <ele>526.562317</ele>
        <time>2008-09-21T10:36:06Z</time>
      </trkpt>
      <trkpt lat="44.87436" lon="5.69863">
        <ele>527.902283</ele>
        <time>2008-09-21T10:36:18Z</time>
      </trkpt>
      <trkpt lat="44.87425" lon="5.69884">
        <ele>529.462952</ele>
        <time>2008-09-21T10:36:31Z</time>
      </trkpt>
      <trkpt lat="44.87414" lon="5.69905">
        <ele>530.985046</ele>
        <time>2008-09-21T10:36:44Z</time>
      </trkpt>
      <trkpt lat="44.87401" lon="5.69927">
        <ele>533.281982</ele>
        <time>2008-09-21T10:36:56Z</time>
      </trkpt>
      <trkpt lat="44.87394" lon="5.69951">
        <ele>537.584839</ele>
        <time>2008-09-21T10:37:09Z</time>
      </trkpt>
      <trkpt lat="44.87378" lon="5.69973">
        <ele>540.448792</ele>
        <time>2008-09-21T10:37:20Z</time>
      </trkpt>
      <trkpt lat="44.87365" lon="5.69991">
        <ele>544.390991</ele>
        <time>2008-09-21T10:37:31Z</time>
      </trkpt>
      <trkpt lat="44.87347" lon="5.70007">
        <ele>548.18634</ele>
        <time>2008-09-21T10:37:42Z</time>
      </trkpt>
      <trkpt lat="44.87326" lon="5.70013">
        <ele>548.277893</ele>
        <time>2008-09-21T10:38:25Z</time>
      </trkpt>
      <trkpt lat="44.87306" lon="5.70017">
        <ele>547.76593</ele>
        <time>2008-09-21T10:38:34Z</time>
      </trkpt>
      <trkpt lat="44.87286" lon="5.70021">
        <ele>546.586914</ele>
        <time>2008-09-21T10:38:42Z</time>
      </trkpt>
      <trkpt lat="44.87267" lon="5.70026">
        <ele>545.719788</ele>
        <time>2008-09-21T10:38:50Z</time>
      </trkpt>
      <trkpt lat="44.87248" lon="5.70031">
        <ele>544.58905</ele>
        <time>2008-09-21T10:38:57Z</time>
      </trkpt>
      <trkpt lat="44.87229" lon="5.70039">
        <ele>544.107788</ele>
        <time>2008-09-21T10:39:05Z</time>
      </trkpt>
      <trkpt lat="44.8721" lon="5.70047">
        <ele>542.952271</ele>
        <time>2008-09-21T10:39:13Z</time>
      </trkpt>
      <trkpt lat="44.872" lon="5.70072">
        <ele>546.674683</ele>
      </trkpt>
      <trkpt lat="44.87277" lon="5.7005">
        <ele>554.03302</ele>
      </trkpt>
      <trkpt lat="44.87333" lon="5.70064">
        <ele>564.986328</ele>
      </trkpt>
      <trkpt lat="44.8729" lon="5.70075">
        <ele>560.712158</ele>
      </trkpt>
      <trkpt lat="44.87298" lon="5.70091">
        <ele>564.933655</ele>
      </trkpt>
      <trkpt lat="44.87573" lon="5.70098">
        <ele>592.772461</ele>
      </trkpt>
      <trkpt lat="44.87382" lon="5.70159">
        <ele>597.170776</ele>
      </trkpt>
      <trkpt lat="44.87387" lon="5.70254">
        <ele>600.987488</ele>
      </trkpt>
      <trkpt lat="44.87525" lon="5.7047">
        <ele>616.60022</ele>
      </trkpt>
      <trkpt lat="44.8758" lon="5.70652">
        <ele>635.319885</ele>
      </trkpt>
      <trkpt lat="44.87541" lon="5.70791">
        <ele>641.740356</ele>
      </trkpt>
      <trkpt lat="44.87532" lon="5.70929">
        <ele>658.78479</ele>
      </trkpt>
      <trkpt lat="44.8744" lon="5.71025">
        <ele>658.533142</ele>
      </trkpt>
      <trkpt lat="44.87595" lon="5.70943">
        <ele>674.190735</ele>
      </trkpt>
      <trkpt lat="44.8768" lon="5.7084">
        <ele>670.657471</ele>
      </trkpt>
      <trkpt lat="44.87687" lon="5.70716">
        <ele>667.016296</ele>
      </trkpt>
      <trkpt lat="44.8772" lon="5.70643">
        <ele>677.421265</ele>
      </trkpt>
      <trkpt lat="44.87698" lon="5.70537">
        <ele>678.937866</ele>
      </trkpt>
      <trkpt lat="44.87715" lon="5.7048">
        <ele>680.21521</ele>
      </trkpt>
      <trkpt lat="44.87965" lon="5.70386">
        <ele>698.119812</ele>
      </trkpt>
      <trkpt lat="44.8805" lon="5.70396">
        <ele>699.031677</ele>
      </trkpt>
      <trkpt lat="44.88122" lon="5.70457">
        <ele>704.904419</ele>
      </trkpt>
      <trkpt lat="44.88224" lon="5.70473">
        <ele>702.667297</ele>
      </trkpt>
      <trkpt lat="44.88298" lon="5.70401">
        <ele>706.719238</ele>
      </trkpt>
      <trkpt lat="44.88287" lon="5.70307">
        <ele>703.027466</ele>
      </trkpt>
      <trkpt lat="44.88349" lon="5.7024">
        <ele>716.181396</ele>
      </trkpt>
      <trkpt lat="44.88447" lon="5.70177">
        <ele>717.334351</ele>
      </trkpt>
      <trkpt lat="44.88498" lon="5.70067">
        <ele>717.256348</ele>
      </trkpt>
      <trkpt lat="44.88551" lon="5.69998">
        <ele>718.384583</ele>
      </trkpt>
      <trkpt lat="44.88752" lon="5.70014">
        <ele>733.978577</ele>
      </trkpt>
      <trkpt lat="44.88844" lon="5.69953">
        <ele>733.960022</ele>
      </trkpt>
      <trkpt lat="44.88841" lon="5.69952">
        <ele>734</ele>
        <time>2010-04-30T12:58:17Z</time>
      </trkpt>
      <trkpt lat="44.88851" lon="5.69968">
        <ele>737</ele>
        <time>2010-04-30T12:58:23Z</time>
      </trkpt>
      <trkpt lat="44.88859" lon="5.69988">
        <ele>740</ele>
        <time>2010-04-30T12:58:31Z</time>
      </trkpt>
      <trkpt lat="44.88881" lon="5.70004">
        <ele>744</ele>
        <time>2010-04-30T12:58:43Z</time>
      </trkpt>
      <trkpt lat="44.88882" lon="5.70005">
        <ele>745</ele>
        <time>2010-04-30T12:58:44Z</time>
      </trkpt>
      <trkpt lat="44.88897" lon="5.70008">
        <ele>746</ele>
        <time>2010-04-30T12:58:51Z</time>
      </trkpt>
      <trkpt lat="44.88914" lon="5.70013">
        <ele>748</ele>
        <time>2010-04-30T12:58:59Z</time>
      </trkpt>
      <trkpt lat="44.8893" lon="5.70016">
        <ele>750</ele>
        <time>2010-04-30T12:59:07Z</time>
      </trkpt>
      <trkpt lat="44.88948" lon="5.70016">
        <ele>752</ele>
        <time>2010-04-30T12:59:16Z</time>
      </trkpt>
      <trkpt lat="44.88967" lon="5.70015">
        <ele>754</ele>
        <time>2010-04-30T12:59:25Z</time>
      </trkpt>
      <trkpt lat="44.88986" lon="5.70016">
        <ele>755</ele>
        <time>2010-04-30T12:59:35Z</time>
      </trkpt>
      <trkpt lat="44.89004" lon="5.70017">
        <ele>756</ele>
        <time>2010-04-30T12:59:44Z</time>
      </trkpt>
      <trkpt lat="44.89024" lon="5.70018">
        <ele>756</ele>
        <time>2010-04-30T12:59:54Z</time>
      </trkpt>
      <trkpt lat="44.89041" lon="5.70023">
        <ele>758</ele>
        <time>2010-04-30T13:00:03Z</time>
      </trkpt>
      <trkpt lat="44.89057" lon="5.70029">
        <ele>760</ele>
        <time>2010-04-30T13:00:12Z</time>
      </trkpt>
      <trkpt lat="44.89077" lon="5.70038">
        <ele>763</ele>
        <time>2010-04-30T13:00:22Z</time>
      </trkpt>
      <trkpt lat="44.89093" lon="5.70045">
        <ele>765</ele>
        <time>2010-04-30T13:00:29Z</time>
      </trkpt>
      <trkpt lat="44.89111" lon="5.70051">
        <ele>767</ele>
        <time>2010-04-30T13:00:38Z</time>
      </trkpt>
      <trkpt lat="44.89127" lon="5.70051">
        <ele>768</ele>
        <time>2010-04-30T13:00:46Z</time>
      </trkpt>
      <trkpt lat="44.89147" lon="5.70054">
        <ele>769</ele>
        <time>2010-04-30T13:00:55Z</time>
      </trkpt>
      <trkpt lat="44.89161" lon="5.70054">
        <ele>770</ele>
        <time>2010-04-30T13:01:02Z</time>
      </trkpt>
      <trkpt lat="44.89176" lon="5.70051">
        <ele>771</ele>
        <time>2010-04-30T13:01:10Z</time>
      </trkpt>
      <trkpt lat="44.89194" lon="5.70051">
        <ele>772</ele>
        <time>2010-04-30T13:01:19Z</time>
      </trkpt>
      <trkpt lat="44.89209" lon="5.70051">
        <ele>773</ele>
        <time>2010-04-30T13:01:26Z</time>
      </trkpt>
      <trkpt lat="44.89224" lon="5.70053">
        <ele>775</ele>
        <time>2010-04-30T13:01:33Z</time>
      </trkpt>
      <trkpt lat="44.89238" lon="5.70053">
        <ele>776</ele>
        <time>2010-04-30T13:01:40Z</time>
      </trkpt>
      <trkpt lat="44.89255" lon="5.70053">
        <ele>777</ele>
        <time>2010-04-30T13:01:48Z</time>
      </trkpt>
      <trkpt lat="44.89274" lon="5.70051">
        <ele>778</ele>
        <time>2010-04-30T13:01:57Z</time>
      </trkpt>
      <trkpt lat="44.8929" lon="5.70054">
        <ele>780</ele>
        <time>2010-04-30T13:02:05Z</time>
      </trkpt>
      <trkpt lat="44.89312" lon="5.70062">
        <ele>785</ele>
        <time>2010-04-30T13:02:15Z</time>
      </trkpt>
      <trkpt lat="44.89329" lon="5.70065">
        <ele>788</ele>
        <time>2010-04-30T13:02:23Z</time>
      </trkpt>
      <trkpt lat="44.89346" lon="5.70062">
        <ele>791</ele>
        <time>2010-04-30T13:02:31Z</time>
      </trkpt>
      <trkpt lat="44.8936" lon="5.70053">
        <ele>792</ele>
        <time>2010-04-30T13:02:38Z</time>
      </trkpt>
      <trkpt lat="44.89366" lon="5.7005">
        <ele>792</ele>
        <time>2010-04-30T13:02:41Z</time>
      </trkpt>
      <trkpt lat="44.89379" lon="5.70038">
        <ele>792</ele>
        <time>2010-04-30T13:02:49Z</time>
      </trkpt>
      <trkpt lat="44.89395" lon="5.70029">
        <ele>791</ele>
        <time>2010-04-30T13:02:57Z</time>
      </trkpt>
      <trkpt lat="44.89411" lon="5.70024">
        <ele>792</ele>
        <time>2010-04-30T13:03:05Z</time>
      </trkpt>
      <trkpt lat="44.89431" lon="5.70024">
        <ele>794</ele>
        <time>2010-04-30T13:03:14Z</time>
      </trkpt>
      <trkpt lat="44.89448" lon="5.70024">
        <ele>794</ele>
        <time>2010-04-30T13:03:22Z</time>
      </trkpt>
      <trkpt lat="44.89468" lon="5.70027">
        <ele>795</ele>
        <time>2010-04-30T13:03:32Z</time>
      </trkpt>
      <trkpt lat="44.89485" lon="5.70037">
        <ele>801</ele>
        <time>2010-04-30T13:03:40Z</time>
      </trkpt>
      <trkpt lat="44.89503" lon="5.70039">
        <ele>806</ele>
        <time>2010-04-30T13:03:48Z</time>
      </trkpt>
      <trkpt lat="44.89513" lon="5.70024">
        <ele>806</ele>
        <time>2010-04-30T13:03:55Z</time>
      </trkpt>
      <trkpt lat="44.89525" lon="5.70007">
        <ele>806</ele>
        <time>2010-04-30T13:04:03Z</time>
      </trkpt>
      <trkpt lat="44.89539" lon="5.69997">
        <ele>808</ele>
        <time>2010-04-30T13:04:11Z</time>
      </trkpt>
      <trkpt lat="44.89557" lon="5.6999">
        <ele>811</ele>
        <time>2010-04-30T13:04:19Z</time>
      </trkpt>
      <trkpt lat="44.89575" lon="5.69985">
        <ele>811</ele>
        <time>2010-04-30T13:04:28Z</time>
      </trkpt>
      <trkpt lat="44.89591" lon="5.69987">
        <ele>813</ele>
        <time>2010-04-30T13:04:35Z</time>
      </trkpt>
      <trkpt lat="44.89609" lon="5.69997">
        <ele>816</ele>
        <time>2010-04-30T13:04:43Z</time>
      </trkpt>
      <trkpt lat="44.89628" lon="5.70006">
        <ele>819</ele>
        <time>2010-04-30T13:04:52Z</time>
      </trkpt>
      <trkpt lat="44.89648" lon="5.70012">
        <ele>821</ele>
        <time>2010-04-30T13:05:01Z</time>
      </trkpt>
      <trkpt lat="44.89672" lon="5.70017">
        <ele>821</ele>
        <time>2010-04-30T13:05:11Z</time>
      </trkpt>
      <trkpt lat="44.89688" lon="5.70022">
        <ele>821</ele>
        <time>2010-04-30T13:05:17Z</time>
      </trkpt>
      <trkpt lat="44.89705" lon="5.70033">
        <ele>824</ele>
        <time>2010-04-30T13:05:24Z</time>
      </trkpt>
      <trkpt lat="44.89721" lon="5.70034">
        <ele>825</ele>
        <time>2010-04-30T13:05:31Z</time>
      </trkpt>
      <trkpt lat="44.89743" lon="5.70029">
        <ele>825</ele>
        <time>2010-04-30T13:05:41Z</time>
      </trkpt>
      <trkpt lat="44.89757" lon="5.70031">
        <ele>826</ele>
        <time>2010-04-30T13:05:48Z</time>
      </trkpt>
      <trkpt lat="44.8977" lon="5.70036">
        <ele>828</ele>
        <time>2010-04-30T13:05:55Z</time>
      </trkpt>
      <trkpt lat="44.89787" lon="5.70039">
        <ele>830</ele>
        <time>2010-04-30T13:06:03Z</time>
      </trkpt>
      <trkpt lat="44.89804" lon="5.70035">
        <ele>831</ele>
        <time>2010-04-30T13:06:11Z</time>
      </trkpt>
      <trkpt lat="44.89818" lon="5.70032">
        <ele>831</ele>
        <time>2010-04-30T13:06:18Z</time>
      </trkpt>
      <trkpt lat="44.89839" lon="5.70025">
        <ele>832</ele>
        <time>2010-04-30T13:06:27Z</time>
      </trkpt>
      <trkpt lat="44.89861" lon="5.70023">
        <ele>834</ele>
        <time>2010-04-30T13:06:36Z</time>
      </trkpt>
      <trkpt lat="44.89882" lon="5.70016">
        <ele>836</ele>
        <time>2010-04-30T13:06:45Z</time>
      </trkpt>
      <trkpt lat="44.89906" lon="5.70014">
        <ele>839</ele>
        <time>2010-04-30T13:06:56Z</time>
      </trkpt>
      <trkpt lat="44.89928" lon="5.7001">
        <ele>841</ele>
        <time>2010-04-30T13:07:05Z</time>
      </trkpt>
      <trkpt lat="44.89953" lon="5.70007">
        <ele>844</ele>
        <time>2010-04-30T13:07:15Z</time>
      </trkpt>
      <trkpt lat="44.89972" lon="5.70004">
        <ele>845</ele>
        <time>2010-04-30T13:07:23Z</time>
      </trkpt>
      <trkpt lat="44.89995" lon="5.70004">
        <ele>847</ele>
        <time>2010-04-30T13:07:32Z</time>
      </trkpt>
      <trkpt lat="44.90017" lon="5.69999">
        <ele>846</ele>
        <time>2010-04-30T13:07:40Z</time>
      </trkpt>
      <trkpt lat="44.90039" lon="5.6999">
        <ele>844</ele>
        <time>2010-04-30T13:07:49Z</time>
      </trkpt>
      <trkpt lat="44.90056" lon="5.69999">
        <ele>847</ele>
        <time>2010-04-30T13:07:56Z</time>
      </trkpt>
      <trkpt lat="44.90057" lon="5.70001">
        <ele>848</ele>
        <time>2010-04-30T13:07:57Z</time>
      </trkpt>
      <trkpt lat="44.90076" lon="5.7001">
        <ele>852</ele>
        <time>2010-04-30T13:08:04Z</time>
      </trkpt>
      <trkpt lat="44.90079" lon="5.70009">
        <ele>852</ele>
        <time>2010-04-30T13:08:05Z</time>
      </trkpt>
      <trkpt lat="44.90088" lon="5.70001">
        <ele>851</ele>
        <time>2010-04-30T13:08:09Z</time>
      </trkpt>
      <trkpt lat="44.90103" lon="5.69987">
        <ele>850</ele>
        <time>2010-04-30T13:08:16Z</time>
      </trkpt>
      <trkpt lat="44.90125" lon="5.69989">
        <ele>852</ele>
        <time>2010-04-30T13:08:25Z</time>
      </trkpt>
      <trkpt lat="44.90144" lon="5.69995">
        <ele>855</ele>
        <time>2010-04-30T13:08:33Z</time>
      </trkpt>
      <trkpt lat="44.9016" lon="5.70002">
        <ele>856</ele>
        <time>2010-04-30T13:08:40Z</time>
      </trkpt>
      <trkpt lat="44.90186" lon="5.70015">
        <ele>860</ele>
        <time>2010-04-30T13:08:51Z</time>
      </trkpt>
      <trkpt lat="44.90202" lon="5.70019">
        <ele>861</ele>
        <time>2010-04-30T13:08:58Z</time>
      </trkpt>
      <trkpt lat="44.90225" lon="5.70016">
        <ele>861</ele>
        <time>2010-04-30T13:09:07Z</time>
      </trkpt>
      <trkpt lat="44.90243" lon="5.70013">
        <ele>862</ele>
        <time>2010-04-30T13:09:15Z</time>
      </trkpt>
      <trkpt lat="44.9026" lon="5.70007">
        <ele>862</ele>
        <time>2010-04-30T13:09:22Z</time>
      </trkpt>
      <trkpt lat="44.90279" lon="5.70004">
        <ele>864</ele>
        <time>2010-04-30T13:09:30Z</time>
      </trkpt>
      <trkpt lat="44.90302" lon="5.70006">
        <ele>866</ele>
        <time>2010-04-30T13:09:38Z</time>
      </trkpt>
      <trkpt lat="44.90327" lon="5.70006">
        <ele>868</ele>
        <time>2010-04-30T13:09:47Z</time>
      </trkpt>
      <trkpt lat="44.90351" lon="5.70004">
        <ele>869</ele>
        <time>2010-04-30T13:09:55Z</time>
      </trkpt>
      <trkpt lat="44.90372" lon="5.69994">
        <ele>867</ele>
        <time>2010-04-30T13:10:03Z</time>
      </trkpt>
      <trkpt lat="44.90398" lon="5.69989">
        <ele>867</ele>
        <time>2010-04-30T13:10:12Z</time>
      </trkpt>
      <trkpt lat="44.90414" lon="5.70003">
        <ele>873</ele>
        <time>2010-04-30T13:10:19Z</time>
      </trkpt>
      <trkpt lat="44.90432" lon="5.70008">
        <ele>877</ele>
        <time>2010-04-30T13:10:26Z</time>
      </trkpt>
      <trkpt lat="44.90449" lon="5.70001">
        <ele>878</ele>
        <time>2010-04-30T13:10:32Z</time>
      </trkpt>
      <trkpt lat="44.9047" lon="5.69998">
        <ele>879</ele>
        <time>2010-04-30T13:10:40Z</time>
      </trkpt>
      <trkpt lat="44.9049" lon="5.69999">
        <ele>881</ele>
        <time>2010-04-30T13:10:48Z</time>
      </trkpt>
      <trkpt lat="44.90512" lon="5.70002">
        <ele>883</ele>
        <time>2010-04-30T13:10:56Z</time>
      </trkpt>
      <trkpt lat="44.90533" lon="5.7">
        <ele>883</ele>
        <time>2010-04-30T13:11:05Z</time>
      </trkpt>
      <trkpt lat="44.90549" lon="5.70001">
        <ele>883</ele>
        <time>2010-04-30T13:11:13Z</time>
      </trkpt>
      <trkpt lat="44.90571" lon="5.70014">
        <ele>889</ele>
        <time>2010-04-30T13:11:19Z</time>
      </trkpt>
      <trkpt lat="44.90588" lon="5.70008">
        <ele>889</ele>
        <time>2010-04-30T13:11:25Z</time>
      </trkpt>
      <trkpt lat="44.90608" lon="5.69998">
        <ele>887</ele>
        <time>2010-04-30T13:11:33Z</time>
      </trkpt>
      <trkpt lat="44.90628" lon="5.69993">
        <ele>888</ele>
        <time>2010-04-30T13:11:40Z</time>
      </trkpt>
      <trkpt lat="44.90647" lon="5.69991">
        <ele>888</ele>
        <time>2010-04-30T13:11:48Z</time>
      </trkpt>
      <trkpt lat="44.90667" lon="5.69994">
        <ele>890</ele>
        <time>2010-04-30T13:11:56Z</time>
      </trkpt>
      <trkpt lat="44.90689" lon="5.69998">
        <ele>892</ele>
        <time>2010-04-30T13:12:05Z</time>
      </trkpt>
      <trkpt lat="44.90708" lon="5.70005">
        <ele>895</ele>
        <time>2010-04-30T13:12:14Z</time>
      </trkpt>
      <trkpt lat="44.90723" lon="5.70011">
        <ele>898</ele>
        <time>2010-04-30T13:12:22Z</time>
      </trkpt>
      <trkpt lat="44.90741" lon="5.70012">
        <ele>899</ele>
        <time>2010-04-30T13:12:29Z</time>
      </trkpt>
      <trkpt lat="44.90754" lon="5.70007">
        <ele>898</ele>
        <time>2010-04-30T13:12:36Z</time>
      </trkpt>
      <trkpt lat="44.90774" lon="5.70008">
        <ele>900</ele>
        <time>2010-04-30T13:12:44Z</time>
      </trkpt>
      <trkpt lat="44.90796" lon="5.70017">
        <ele>904</ele>
        <time>2010-04-30T13:12:53Z</time>
      </trkpt>
      <trkpt lat="44.90812" lon="5.70021">
        <ele>906</ele>
        <time>2010-04-30T13:13:00Z</time>
      </trkpt>
      <trkpt lat="44.90828" lon="5.70026">
        <ele>907</ele>
        <time>2010-04-30T13:13:07Z</time>
      </trkpt>
      <trkpt lat="44.90848" lon="5.70029">
        <ele>905</ele>
        <time>2010-04-30T13:13:16Z</time>
      </trkpt>
      <trkpt lat="44.90866" lon="5.70032">
        <ele>903</ele>
        <time>2010-04-30T13:13:23Z</time>
      </trkpt>
      <trkpt lat="44.90884" lon="5.70042">
        <ele>903</ele>
        <time>2010-04-30T13:13:31Z</time>
      </trkpt>
      <trkpt lat="44.90903" lon="5.70056">
        <ele>905</ele>
        <time>2010-04-30T13:13:39Z</time>
      </trkpt>
      <trkpt lat="44.90921" lon="5.70061">
        <ele>908</ele>
        <time>2010-04-30T13:13:46Z</time>
      </trkpt>
      <trkpt lat="44.90939" lon="5.70058">
        <ele>909</ele>
        <time>2010-04-30T13:13:53Z</time>
      </trkpt>
      <trkpt lat="44.90957" lon="5.70046">
        <ele>908</ele>
        <time>2010-04-30T13:14:01Z</time>
      </trkpt>
      <trkpt lat="44.90977" lon="5.70036">
        <ele>909</ele>
        <time>2010-04-30T13:14:09Z</time>
      </trkpt>
      <trkpt lat="44.91" lon="5.70034">
        <ele>913</ele>
        <time>2010-04-30T13:14:17Z</time>
      </trkpt>
      <trkpt lat="44.91022" lon="5.70036">
        <ele>918</ele>
        <time>2010-04-30T13:14:25Z</time>
      </trkpt>
      <trkpt lat="44.91039" lon="5.70023">
        <ele>916</ele>
        <time>2010-04-30T13:14:32Z</time>
      </trkpt>
      <trkpt lat="44.91059" lon="5.70007">
        <ele>914</ele>
        <time>2010-04-30T13:14:40Z</time>
      </trkpt>
      <trkpt lat="44.91085" lon="5.69996">
        <ele>915</ele>
        <time>2010-04-30T13:14:49Z</time>
      </trkpt>
      <trkpt lat="44.91104" lon="5.69992">
        <ele>917</ele>
        <time>2010-04-30T13:14:56Z</time>
      </trkpt>
      <trkpt lat="44.91128" lon="5.69995">
        <ele>922</ele>
        <time>2010-04-30T13:15:05Z</time>
      </trkpt>
      <trkpt lat="44.91148" lon="5.69998">
        <ele>926</ele>
        <time>2010-04-30T13:15:12Z</time>
      </trkpt>
      <trkpt lat="44.91169" lon="5.69995">
        <ele>927</ele>
        <time>2010-04-30T13:15:20Z</time>
      </trkpt>
      <trkpt lat="44.91184" lon="5.69988">
        <ele>927</ele>
        <time>2010-04-30T13:15:26Z</time>
      </trkpt>
      <trkpt lat="44.91204" lon="5.69974">
        <ele>926</ele>
        <time>2010-04-30T13:15:34Z</time>
      </trkpt>
      <trkpt lat="44.91223" lon="5.69967">
        <ele>928</ele>
        <time>2010-04-30T13:15:41Z</time>
      </trkpt>
      <trkpt lat="44.91247" lon="5.69958">
        <ele>930</ele>
        <time>2010-04-30T13:15:49Z</time>
      </trkpt>
      <trkpt lat="44.91267" lon="5.69941">
        <ele>928</ele>
        <time>2010-04-30T13:15:55Z</time>
      </trkpt>
      <trkpt lat="44.91289" lon="5.69919">
        <ele>925</ele>
        <time>2010-04-30T13:16:02Z</time>
      </trkpt>
      <trkpt lat="44.91312" lon="5.69912">
        <ele>928</ele>
        <time>2010-04-30T13:16:08Z</time>
      </trkpt>
      <trkpt lat="44.91332" lon="5.69905">
        <ele>930</ele>
        <time>2010-04-30T13:16:14Z</time>
      </trkpt>
      <trkpt lat="44.91337" lon="5.69899">
        <ele>929</ele>
        <time>2010-04-30T13:16:16Z</time>
      </trkpt>
      <trkpt lat="44.91354" lon="5.69879">
        <ele>930</ele>
        <time>2010-04-30T13:16:23Z</time>
      </trkpt>
      <trkpt lat="44.91383" lon="5.69867">
        <ele>933</ele>
        <time>2010-04-30T13:16:32Z</time>
      </trkpt>
      <trkpt lat="44.91406" lon="5.69859">
        <ele>936</ele>
        <time>2010-04-30T13:16:39Z</time>
      </trkpt>
      <trkpt lat="44.91428" lon="5.69859">
        <ele>935</ele>
        <time>2010-04-30T13:16:46Z</time>
      </trkpt>
      <trkpt lat="44.91455" lon="5.69869">
        <ele>938</ele>
        <time>2010-04-30T13:16:55Z</time>
      </trkpt>
      <trkpt lat="44.91481" lon="5.69889">
        <ele>942</ele>
        <time>2010-04-30T13:17:04Z</time>
      </trkpt>
      <trkpt lat="44.91489" lon="5.69898">
        <ele>944</ele>
        <time>2010-04-30T13:17:11Z</time>
      </trkpt>
      <trkpt lat="44.91489" lon="5.69898">
        <ele>944</ele>
        <time>2010-04-30T13:18:05Z</time>
      </trkpt>
      <trkpt lat="44.91489" lon="5.69898">
        <ele>944</ele>
        <time>2010-04-30T13:18:06Z</time>
      </trkpt>
      <trkpt lat="44.91489" lon="5.69898">
        <ele>944</ele>
        <time>2010-04-30T13:20:21Z</time>
      </trkpt>
      <trkpt lat="44.91489" lon="5.69898">
        <ele>944</ele>
        <time>2010-04-30T13:20:34Z</time>
      </trkpt>
      <trkpt lat="44.91505" lon="5.69902">
        <ele>945</ele>
        <time>2010-04-30T13:20:42Z</time>
      </trkpt>
      <trkpt lat="44.91528" lon="5.69903">
        <ele>947</ele>
        <time>2010-04-30T13:20:51Z</time>
      </trkpt>
      <trkpt lat="44.91554" lon="5.699">
        <ele>947</ele>
        <time>2010-04-30T13:21:00Z</time>
      </trkpt>
      <trkpt lat="44.91577" lon="5.69895">
        <ele>948</ele>
        <time>2010-04-30T13:21:08Z</time>
      </trkpt>
      <trkpt lat="44.91599" lon="5.69893">
        <ele>949</ele>
        <time>2010-04-30T13:21:15Z</time>
      </trkpt>
      <trkpt lat="44.91626" lon="5.69884">
        <ele>949</ele>
        <time>2010-04-30T13:21:22Z</time>
      </trkpt>
      <trkpt lat="44.91656" lon="5.69871">
        <ele>947</ele>
        <time>2010-04-30T13:21:30Z</time>
      </trkpt>
      <trkpt lat="44.91687" lon="5.69868">
        <ele>947</ele>
        <time>2010-04-30T13:21:38Z</time>
      </trkpt>
      <trkpt lat="44.91719" lon="5.6987">
        <ele>948</ele>
        <time>2010-04-30T13:21:46Z</time>
      </trkpt>
      <trkpt lat="44.91723" lon="5.6987">
        <ele>947</ele>
        <time>2010-04-30T13:21:47Z</time>
      </trkpt>
      <trkpt lat="44.91765" lon="5.69877">
        <ele>949</ele>
        <time>2010-04-30T13:21:56Z</time>
      </trkpt>
      <trkpt lat="44.91802" lon="5.69877">
        <ele>948</ele>
        <time>2010-04-30T13:22:04Z</time>
      </trkpt>
      <trkpt lat="44.91846" lon="5.69871">
        <ele>946</ele>
        <time>2010-04-30T13:22:14Z</time>
      </trkpt>
      <trkpt lat="44.91879" lon="5.69868">
        <ele>946</ele>
        <time>2010-04-30T13:22:21Z</time>
      </trkpt>
      <trkpt lat="44.91912" lon="5.69863">
        <ele>947</ele>
        <time>2010-04-30T13:22:28Z</time>
      </trkpt>
      <trkpt lat="44.9193" lon="5.69862">
        <ele>947</ele>
        <time>2010-04-30T13:22:32Z</time>
      </trkpt>
      <trkpt lat="44.91949" lon="5.69864">
        <ele>950</ele>
        <time>2010-04-30T13:22:36Z</time>
      </trkpt>
      <trkpt lat="44.91978" lon="5.69863">
        <ele>951</ele>
        <time>2010-04-30T13:22:42Z</time>
      </trkpt>
      <trkpt lat="44.91992" lon="5.69857">
        <ele>949</ele>
        <time>2010-04-30T13:22:45Z</time>
      </trkpt>
      <trkpt lat="44.9201" lon="5.69857">
        <ele>950</ele>
        <time>2010-04-30T13:22:49Z</time>
      </trkpt>
      <trkpt lat="44.92039" lon="5.69869">
        <ele>956</ele>
        <time>2010-04-30T13:22:57Z</time>
      </trkpt>
      <trkpt lat="44.92059" lon="5.69876">
        <ele>957</ele>
        <time>2010-04-30T13:23:03Z</time>
      </trkpt>
      <trkpt lat="44.92081" lon="5.69884">
        <ele>958</ele>
        <time>2010-04-30T13:23:10Z</time>
      </trkpt>
      <trkpt lat="44.92107" lon="5.69895">
        <ele>962</ele>
        <time>2010-04-30T13:23:19Z</time>
      </trkpt>
      <trkpt lat="44.9213" lon="5.69903">
        <ele>964</ele>
        <time>2010-04-30T13:23:27Z</time>
      </trkpt>
      <trkpt lat="44.92153" lon="5.69911">
        <ele>966</ele>
        <time>2010-04-30T13:23:35Z</time>
      </trkpt>
      <trkpt lat="44.92177" lon="5.69911">
        <ele>965</ele>
        <time>2010-04-30T13:23:44Z</time>
      </trkpt>
      <trkpt lat="44.922" lon="5.69912">
        <ele>968</ele>
        <time>2010-04-30T13:23:54Z</time>
      </trkpt>
      <trkpt lat="44.92214" lon="5.6991">
        <ele>967</ele>
        <time>2010-04-30T13:24:01Z</time>
      </trkpt>
      <trkpt lat="44.92229" lon="5.69909">
        <ele>969</ele>
        <time>2010-04-30T13:24:08Z</time>
      </trkpt>
      <trkpt lat="44.92246" lon="5.69907">
        <ele>970</ele>
        <time>2010-04-30T13:24:16Z</time>
      </trkpt>
      <trkpt lat="44.92263" lon="5.69905">
        <ele>971</ele>
        <time>2010-04-30T13:24:24Z</time>
      </trkpt>
      <trkpt lat="44.92279" lon="5.69899">
        <ele>972</ele>
        <time>2010-04-30T13:24:31Z</time>
      </trkpt>
      <trkpt lat="44.92296" lon="5.69892">
        <ele>973</ele>
        <time>2010-04-30T13:24:39Z</time>
      </trkpt>
      <trkpt lat="44.92313" lon="5.69886">
        <ele>973</ele>
        <time>2010-04-30T13:24:46Z</time>
      </trkpt>
      <trkpt lat="44.92339" lon="5.69885">
        <ele>974</ele>
        <time>2010-04-30T13:24:57Z</time>
      </trkpt>
      <trkpt lat="44.92359" lon="5.69889">
        <ele>976</ele>
        <time>2010-04-30T13:25:05Z</time>
      </trkpt>
      <trkpt lat="44.92374" lon="5.69894">
        <ele>979</ele>
        <time>2010-04-30T13:25:13Z</time>
      </trkpt>
      <trkpt lat="44.92388" lon="5.69898">
        <ele>981</ele>
        <time>2010-04-30T13:25:21Z</time>
      </trkpt>
      <trkpt lat="44.92408" lon="5.69905">
        <ele>985</ele>
        <time>2010-04-30T13:25:29Z</time>
      </trkpt>
      <trkpt lat="44.92421" lon="5.69906">
        <ele>987</ele>
        <time>2010-04-30T13:25:36Z</time>
      </trkpt>
      <trkpt lat="44.92439" lon="5.69905">
        <ele>988</ele>
        <time>2010-04-30T13:25:45Z</time>
      </trkpt>
      <trkpt lat="44.92454" lon="5.69902">
        <ele>989</ele>
        <time>2010-04-30T13:25:53Z</time>
      </trkpt>
      <trkpt lat="44.92476" lon="5.69899">
        <ele>990</ele>
        <time>2010-04-30T13:26:03Z</time>
      </trkpt>
      <trkpt lat="44.92492" lon="5.69896">
        <ele>991</ele>
        <time>2010-04-30T13:26:11Z</time>
      </trkpt>
      <trkpt lat="44.92509" lon="5.69899">
        <ele>994</ele>
        <time>2010-04-30T13:26:19Z</time>
      </trkpt>
      <trkpt lat="44.92526" lon="5.69898">
        <ele>995</ele>
        <time>2010-04-30T13:26:27Z</time>
      </trkpt>
      <trkpt lat="44.92545" lon="5.69897">
        <ele>997</ele>
        <time>2010-04-30T13:26:36Z</time>
      </trkpt>
      <trkpt lat="44.92563" lon="5.69895">
        <ele>997</ele>
        <time>2010-04-30T13:26:45Z</time>
      </trkpt>
      <trkpt lat="44.92583" lon="5.69893">
        <ele>998</ele>
        <time>2010-04-30T13:26:54Z</time>
      </trkpt>
      <trkpt lat="44.92597" lon="5.69893">
        <ele>1000</ele>
        <time>2010-04-30T13:27:01Z</time>
      </trkpt>
      <trkpt lat="44.92616" lon="5.69895">
        <ele>1002</ele>
        <time>2010-04-30T13:27:10Z</time>
      </trkpt>
      <trkpt lat="44.92634" lon="5.69891">
        <ele>1002</ele>
        <time>2010-04-30T13:27:19Z</time>
      </trkpt>
      <trkpt lat="44.92644" lon="5.69895">
        <ele>1004</ele>
        <time>2010-04-30T13:27:24Z</time>
      </trkpt>
      <trkpt lat="44.92646" lon="5.69899">
        <ele>1006</ele>
        <time>2010-04-30T13:27:26Z</time>
      </trkpt>
      <trkpt lat="44.92636" lon="5.69909">
        <ele>1010</ele>
        <time>2010-04-30T13:27:33Z</time>
      </trkpt>
      <trkpt lat="44.92624" lon="5.69911">
        <ele>1010</ele>
        <time>2010-04-30T13:27:39Z</time>
      </trkpt>
      <trkpt lat="44.92601" lon="5.69915">
        <ele>1009</ele>
        <time>2010-04-30T13:27:49Z</time>
      </trkpt>
      <trkpt lat="44.92582" lon="5.69923">
        <ele>1012</ele>
        <time>2010-04-30T13:27:58Z</time>
      </trkpt>
      <trkpt lat="44.92561" lon="5.69932">
        <ele>1015</ele>
        <time>2010-04-30T13:28:08Z</time>
      </trkpt>
      <trkpt lat="44.92543" lon="5.69942">
        <ele>1017</ele>
        <time>2010-04-30T13:28:17Z</time>
      </trkpt>
      <trkpt lat="44.92527" lon="5.6995">
        <ele>1020</ele>
        <time>2010-04-30T13:28:25Z</time>
      </trkpt>
      <trkpt lat="44.92512" lon="5.69959">
        <ele>1022</ele>
        <time>2010-04-30T13:28:33Z</time>
      </trkpt>
      <trkpt lat="44.92498" lon="5.69969">
        <ele>1025</ele>
        <time>2010-04-30T13:28:41Z</time>
      </trkpt>
      <trkpt lat="44.92485" lon="5.69979">
        <ele>1028</ele>
        <time>2010-04-30T13:28:48Z</time>
      </trkpt>
      <trkpt lat="44.92473" lon="5.69988">
        <ele>1031</ele>
        <time>2010-04-30T13:28:55Z</time>
      </trkpt>
      <trkpt lat="44.92458" lon="5.69999">
        <ele>1034</ele>
        <time>2010-04-30T13:29:03Z</time>
      </trkpt>
      <trkpt lat="44.92441" lon="5.70007">
        <ele>1035</ele>
        <time>2010-04-30T13:29:11Z</time>
      </trkpt>
      <trkpt lat="44.92426" lon="5.70014">
        <ele>1037</ele>
        <time>2010-04-30T13:29:19Z</time>
      </trkpt>
      <trkpt lat="44.92407" lon="5.7002">
        <ele>1038</ele>
        <time>2010-04-30T13:29:29Z</time>
      </trkpt>
      <trkpt lat="44.9239" lon="5.70023">
        <ele>1038</ele>
        <time>2010-04-30T13:29:37Z</time>
      </trkpt>
      <trkpt lat="44.92372" lon="5.70028">
        <ele>1038</ele>
        <time>2010-04-30T13:29:46Z</time>
      </trkpt>
      <trkpt lat="44.92357" lon="5.7003">
        <ele>1038</ele>
        <time>2010-04-30T13:29:54Z</time>
      </trkpt>
      <trkpt lat="44.92338" lon="5.70033">
        <ele>1037</ele>
        <time>2010-04-30T13:30:03Z</time>
      </trkpt>
      <trkpt lat="44.92323" lon="5.70036">
        <ele>1039</ele>
        <time>2010-04-30T13:30:11Z</time>
      </trkpt>
      <trkpt lat="44.92313" lon="5.70039">
        <ele>1040</ele>
        <time>2010-04-30T13:30:17Z</time>
      </trkpt>
      <trkpt lat="44.92316" lon="5.70047">
        <ele>1044</ele>
        <time>2010-04-30T13:30:22Z</time>
      </trkpt>
      <trkpt lat="44.92333" lon="5.70046">
        <ele>1044</ele>
        <time>2010-04-30T13:30:31Z</time>
      </trkpt>
      <trkpt lat="44.92357" lon="5.70048">
        <ele>1046</ele>
        <time>2010-04-30T13:30:43Z</time>
      </trkpt>
      <trkpt lat="44.92375" lon="5.70052">
        <ele>1049</ele>
        <time>2010-04-30T13:30:52Z</time>
      </trkpt>
      <trkpt lat="44.92393" lon="5.70058">
        <ele>1053</ele>
        <time>2010-04-30T13:31:01Z</time>
      </trkpt>
      <trkpt lat="44.92395" lon="5.70059">
        <ele>1054</ele>
        <time>2010-04-30T13:31:03Z</time>
      </trkpt>
      <trkpt lat="44.92414" lon="5.70064">
        <ele>1058</ele>
        <time>2010-04-30T13:31:13Z</time>
      </trkpt>
      <trkpt lat="44.92428" lon="5.70066">
        <ele>1060</ele>
        <time>2010-04-30T13:31:21Z</time>
      </trkpt>
      <trkpt lat="44.92442" lon="5.70067">
        <ele>1062</ele>
        <time>2010-04-30T13:31:29Z</time>
      </trkpt>
      <trkpt lat="44.92457" lon="5.70064">
        <ele>1064</ele>
        <time>2010-04-30T13:31:38Z</time>
      </trkpt>
      <trkpt lat="44.92466" lon="5.70064">
        <ele>1065</ele>
        <time>2010-04-30T13:31:44Z</time>
      </trkpt>
      <trkpt lat="44.92478" lon="5.70058">
        <ele>1065</ele>
        <time>2010-04-30T13:31:52Z</time>
      </trkpt>
      <trkpt lat="44.92494" lon="5.70052">
        <ele>1065</ele>
        <time>2010-04-30T13:32:01Z</time>
      </trkpt>
      <trkpt lat="44.92508" lon="5.70048">
        <ele>1066</ele>
        <time>2010-04-30T13:32:09Z</time>
      </trkpt>
      <trkpt lat="44.92524" lon="5.70046">
        <ele>1067</ele>
        <time>2010-04-30T13:32:18Z</time>
      </trkpt>
      <trkpt lat="44.92542" lon="5.70045">
        <ele>1069</ele>
        <time>2010-04-30T13:32:28Z</time>
      </trkpt>
      <trkpt lat="44.9255" lon="5.70044">
        <ele>1070</ele>
        <time>2010-04-30T13:32:32Z</time>
      </trkpt>
      <trkpt lat="44.92564" lon="5.70042">
        <ele>1071</ele>
        <time>2010-04-30T13:32:41Z</time>
      </trkpt>
      <trkpt lat="44.92577" lon="5.70042">
        <ele>1072</ele>
        <time>2010-04-30T13:32:48Z</time>
      </trkpt>
      <trkpt lat="44.92591" lon="5.70041">
        <ele>1073</ele>
        <time>2010-04-30T13:32:56Z</time>
      </trkpt>
      <trkpt lat="44.92606" lon="5.7004">
        <ele>1073</ele>
        <time>2010-04-30T13:33:05Z</time>
      </trkpt>
      <trkpt lat="44.92621" lon="5.70041">
        <ele>1075</ele>
        <time>2010-04-30T13:33:14Z</time>
      </trkpt>
      <trkpt lat="44.92631" lon="5.70041">
        <ele>1076</ele>
        <time>2010-04-30T13:33:21Z</time>
      </trkpt>
      <trkpt lat="44.92636" lon="5.70041">
        <ele>1077</ele>
        <time>2010-04-30T13:33:24Z</time>
      </trkpt>
      <trkpt lat="44.92649" lon="5.70042">
        <ele>1078</ele>
        <time>2010-04-30T13:33:33Z</time>
      </trkpt>
      <trkpt lat="44.92664" lon="5.70047">
        <ele>1083</ele>
        <time>2010-04-30T13:33:41Z</time>
      </trkpt>
      <trkpt lat="44.9268" lon="5.7005">
        <ele>1087</ele>
        <time>2010-04-30T13:33:50Z</time>
      </trkpt>
      <trkpt lat="44.92695" lon="5.70051">
        <ele>1090</ele>
        <time>2010-04-30T13:33:58Z</time>
      </trkpt>
      <trkpt lat="44.9271" lon="5.70054">
        <ele>1094</ele>
        <time>2010-04-30T13:34:07Z</time>
      </trkpt>
      <trkpt lat="44.92726" lon="5.70053">
        <ele>1096</ele>
        <time>2010-04-30T13:34:16Z</time>
      </trkpt>
      <trkpt lat="44.9274" lon="5.70048">
        <ele>1095</ele>
        <time>2010-04-30T13:34:25Z</time>
      </trkpt>
      <trkpt lat="44.92754" lon="5.70045">
        <ele>1096</ele>
        <time>2010-04-30T13:34:33Z</time>
      </trkpt>
      <trkpt lat="44.92768" lon="5.70041">
        <ele>1096</ele>
        <time>2010-04-30T13:34:41Z</time>
      </trkpt>
      <trkpt lat="44.92772" lon="5.7004">
        <ele>1096</ele>
        <time>2010-04-30T13:34:44Z</time>
      </trkpt>
      <trkpt lat="44.92789" lon="5.70039">
        <ele>1097</ele>
        <time>2010-04-30T13:34:53Z</time>
      </trkpt>
      <trkpt lat="44.92801" lon="5.70034">
        <ele>1097</ele>
        <time>2010-04-30T13:35:01Z</time>
      </trkpt>
      <trkpt lat="44.92818" lon="5.70033">
        <ele>1100</ele>
        <time>2010-04-30T13:35:11Z</time>
      </trkpt>
      <trkpt lat="44.92829" lon="5.70023">
        <ele>1099</ele>
        <time>2010-04-30T13:35:19Z</time>
      </trkpt>
      <trkpt lat="44.9283" lon="5.70004">
        <ele>1093</ele>
        <time>2010-04-30T13:35:28Z</time>
      </trkpt>
      <trkpt lat="44.92835" lon="5.69991">
        <ele>1091</ele>
        <time>2010-04-30T13:35:35Z</time>
      </trkpt>
      <trkpt lat="44.92843" lon="5.69989">
        <ele>1093</ele>
        <time>2010-04-30T13:35:41Z</time>
      </trkpt>
      <trkpt lat="44.92845" lon="5.6999">
        <ele>1093</ele>
        <time>2010-04-30T13:35:43Z</time>
      </trkpt>
      <trkpt lat="44.92859" lon="5.69998">
        <ele>1095</ele>
        <time>2010-04-30T13:35:52Z</time>
      </trkpt>
      <trkpt lat="44.92867" lon="5.70013">
        <ele>1101</ele>
        <time>2010-04-30T13:36:00Z</time>
      </trkpt>
      <trkpt lat="44.92868" lon="5.70037">
        <ele>1109.170898</ele>
      </trkpt>
      <trkpt lat="44.92857" lon="5.70106">
        <ele>1135.268188</ele>
      </trkpt>
      <trkpt lat="44.92853" lon="5.70134">
        <ele>1147.294067</ele>
      </trkpt>
      <trkpt lat="44.92907" lon="5.7016">
        <ele>1160.367676</ele>
      </trkpt>
      <trkpt lat="44.92954" lon="5.70223">
        <ele>1181.587891</ele>
      </trkpt>
      <trkpt lat="44.93015" lon="5.70236">
        <ele>1184.930908</ele>
      </trkpt>
      <trkpt lat="44.93065" lon="5.70207">
        <ele>1198.540771</ele>
      </trkpt>
      <trkpt lat="44.93102" lon="5.70162">
        <ele>1204.095459</ele>
      </trkpt>
      <trkpt lat="44.93169" lon="5.70204">
        <ele>1231.824707</ele>
      </trkpt>
      <trkpt lat="44.93246" lon="5.70253">
        <ele>1250.909302</ele>
      </trkpt>
      <trkpt lat="44.93315" lon="5.70282">
        <ele>1258.348755</ele>
      </trkpt>
      <trkpt lat="44.93428" lon="5.70334">
        <ele>1275.246704</ele>
      </trkpt>
      <trkpt lat="44.93553" lon="5.70458">
        <ele>1307.015503</ele>
      </trkpt>
      <trkpt lat="44.9364" lon="5.70522">
        <ele>1318</ele>
      </trkpt>
      <trkpt lat="44.93732" lon="5.70561">
        <ele>1312</ele>
      </trkpt>
      <trkpt lat="44.93775" lon="5.70553">
        <ele>1305</ele>
      </trkpt>
      <trkpt lat="44.93824" lon="5.70569">
        <ele>1304</ele>
      </trkpt>
      <trkpt lat="44.93845" lon="5.70561">
        <ele>1297</ele>
      </trkpt>
      <trkpt lat="44.93935" lon="5.70496">
        <ele>1271</ele>
      </trkpt>
      <trkpt lat="44.94021" lon="5.70459">
        <ele>1236</ele>
      </trkpt>
      <trkpt lat="44.94045" lon="5.70485">
        <ele>1231</ele>
      </trkpt>
      <trkpt lat="44.94037" lon="5.70582">
        <ele>1222</ele>
      </trkpt>
      <trkpt lat="44.94045" lon="5.70587">
        <ele>1204</ele>
      </trkpt>
      <trkpt lat="44.94084" lon="5.70522">
        <ele>1191</ele>
      </trkpt>
      <trkpt lat="44.9414" lon="5.70509">
        <ele>1176</ele>
      </trkpt>
      <trkpt lat="44.94285" lon="5.70457">
        <ele>1135</ele>
      </trkpt>
      <trkpt lat="44.94399" lon="5.70431">
        <ele>1096</ele>
      </trkpt>
      <trkpt lat="44.94458" lon="5.70415">
        <ele>1093</ele>
      </trkpt>
      <trkpt lat="44.94494" lon="5.70404">
        <ele>1080</ele>
      </trkpt>
      <trkpt lat="44.94501" lon="5.7042">
        <ele>1061</ele>
      </trkpt>
      <trkpt lat="44.9447" lon="5.70449">
        <ele>1060</ele>
      </trkpt>
      <trkpt lat="44.94434" lon="5.70498">
        <ele>1053</ele>
      </trkpt>
      <trkpt lat="44.94355" lon="5.70658">
        <ele>1015</ele>
      </trkpt>
      <trkpt lat="44.94307" lon="5.70806">
        <ele>989</ele>
      </trkpt>
      <trkpt lat="44.94282" lon="5.70895">
        <ele>969</ele>
      </trkpt>
      <trkpt lat="44.94248" lon="5.70994">
        <ele>954</ele>
      </trkpt>
      <trkpt lat="44.94248" lon="5.71054">
        <ele>938</ele>
      </trkpt>
      <trkpt lat="44.94271" lon="5.71086">
        <ele>907</ele>
      </trkpt>
      <trkpt lat="44.94298" lon="5.71065">
        <ele>912</ele>
      </trkpt>
      <trkpt lat="44.94289" lon="5.71133">
        <ele>898</ele>
      </trkpt>
      <trkpt lat="44.94265" lon="5.71204">
        <ele>887</ele>
      </trkpt>
      <trkpt lat="44.9433" lon="5.71185">
        <ele>882</ele>
      </trkpt>
      <trkpt lat="44.94369" lon="5.71159">
        <ele>871</ele>
      </trkpt>
      <trkpt lat="44.94405" lon="5.7111">
        <ele>866</ele>
      </trkpt>
      <trkpt lat="44.94454" lon="5.71026">
        <ele>846</ele>
      </trkpt>
      <trkpt lat="44.9447" lon="5.70982">
        <ele>851</ele>
      </trkpt>
      <trkpt lat="44.94581" lon="5.7093">
        <ele>817</ele>
      </trkpt>
      <trkpt lat="44.94619" lon="5.70906">
        <ele>813</ele>
      </trkpt>
      <trkpt lat="44.94614" lon="5.70935">
        <ele>795</ele>
      </trkpt>
      <trkpt lat="44.94619" lon="5.70956">
        <ele>791</ele>
      </trkpt>
      <trkpt lat="44.94646" lon="5.70979">
        <ele>781</ele>
      </trkpt>
      <trkpt lat="44.94664" lon="5.70997">
        <ele>766</ele>
      </trkpt>
      <trkpt lat="44.94668" lon="5.71037">
        <ele>749</ele>
      </trkpt>
      <trkpt lat="44.9468" lon="5.71097">
        <ele>744</ele>
      </trkpt>
      <trkpt lat="44.94714" lon="5.71045">
        <ele>736.364624</ele>
      </trkpt>
      <trkpt lat="44.94725" lon="5.71065">
        <ele>731.914124</ele>
      </trkpt>
      <trkpt lat="44.9474" lon="5.71085">
        <ele>725.904785</ele>
      </trkpt>
      <trkpt lat="44.94769" lon="5.71093">
        <ele>716.051697</ele>
      </trkpt>
      <trkpt lat="44.94795" lon="5.71063">
        <ele>712.721252</ele>
      </trkpt>
      <trkpt lat="44.94819" lon="5.71004">
        <ele>710.027527</ele>
      </trkpt>
      <trkpt lat="44.94863" lon="5.71035">
        <ele>695.526978</ele>
      </trkpt>
      <trkpt lat="44.94926" lon="5.71045">
        <ele>675.833496</ele>
      </trkpt>
      <trkpt lat="44.94978" lon="5.71026">
        <ele>658.812134</ele>
      </trkpt>
      <trkpt lat="44.95009" lon="5.70981">
        <ele>651.93573</ele>
      </trkpt>
      <trkpt lat="44.95052" lon="5.7097">
        <ele>637.011414</ele>
      </trkpt>
      <trkpt lat="44.95092" lon="5.7097">
        <ele>621.987488</ele>
      </trkpt>
      <trkpt lat="44.95137" lon="5.70972">
        <ele>607.41803</ele>
      </trkpt>
      <trkpt lat="44.95135" lon="5.71029">
        <ele>605.770874</ele>
      </trkpt>
      <trkpt lat="44.95122" lon="5.71086">
        <ele>607.626831</ele>
      </trkpt>
      <trkpt lat="44.95106" lon="5.71126">
        <ele>612.141541</ele>
      </trkpt>
      <trkpt lat="44.95132" lon="5.71131">
        <ele>609.107178</ele>
      </trkpt>
      <trkpt lat="44.95183" lon="5.71156">
        <ele>609.03302</ele>
      </trkpt>
      <trkpt lat="44.95214" lon="5.71183">
        <ele>615.98999</ele>
      </trkpt>
      <trkpt lat="44.9527" lon="5.7118">
        <ele>623.994934</ele>
      </trkpt>
      <trkpt lat="44.95314" lon="5.71167">
        <ele>625.559265</ele>
      </trkpt>
      <trkpt lat="44.95356" lon="5.71192">
        <ele>628.066772</ele>
      </trkpt>
      <trkpt lat="44.95355" lon="5.71277">
        <ele>634.838745</ele>
      </trkpt>
      <trkpt lat="44.95346" lon="5.71359">
        <ele>639.789063</ele>
      </trkpt>
      <trkpt lat="44.95374" lon="5.71386">
        <ele>636.585144</ele>
      </trkpt>
      <trkpt lat="44.95418" lon="5.71446">
        <ele>641.487732</ele>
      </trkpt>
      <trkpt lat="44.95457" lon="5.71471">
        <ele>641.446289</ele>
      </trkpt>
      <trkpt lat="44.95497" lon="5.71562">
        <ele>639.78302</ele>
      </trkpt>
      <trkpt lat="44.95515" lon="5.71651">
        <ele>635.341125</ele>
      </trkpt>
      <trkpt lat="44.95537" lon="5.71735">
        <ele>633.114441</ele>
      </trkpt>
      <trkpt lat="44.95589" lon="5.71723">
        <ele>633.810242</ele>
      </trkpt>
      <trkpt lat="44.95625" lon="5.71652">
        <ele>645.393677</ele>
      </trkpt>
      <trkpt lat="44.95639" lon="5.71564">
        <ele>649.744995</ele>
      </trkpt>
      <trkpt lat="44.95634" lon="5.71443">
        <ele>651.161499</ele>
      </trkpt>
      <trkpt lat="44.95643" lon="5.71371">
        <ele>660.767334</ele>
      </trkpt>
      <trkpt lat="44.95621" lon="5.71287">
        <ele>661.352844</ele>
      </trkpt>
      <trkpt lat="44.95583" lon="5.71177">
        <ele>660.863281</ele>
      </trkpt>
      <trkpt lat="44.95629" lon="5.71227">
        <ele>669.960205</ele>
      </trkpt>
      <trkpt lat="44.9567" lon="5.71303">
        <ele>680.1745</ele>
      </trkpt>
      <trkpt lat="44.95694" lon="5.71383">
        <ele>682.424011</ele>
      </trkpt>
      <trkpt lat="44.95704" lon="5.71413">
        <ele>682.28064</ele>
      </trkpt>
      <trkpt lat="44.95689" lon="5.71326">
        <ele>686.649292</ele>
      </trkpt>
      <trkpt lat="44.95692" lon="5.71231">
        <ele>693.082764</ele>
      </trkpt>
      <trkpt lat="44.95708" lon="5.71146">
        <ele>700.473999</ele>
      </trkpt>
      <trkpt lat="44.95702" lon="5.71067">
        <ele>703.312866</ele>
      </trkpt>
      <trkpt lat="44.95691" lon="5.70965">
        <ele>709.811584</ele>
      </trkpt>
      <trkpt lat="44.95697" lon="5.70924">
        <ele>717.52002</ele>
      </trkpt>
      <trkpt lat="44.95719" lon="5.70995">
        <ele>716.160645</ele>
      </trkpt>
      <trkpt lat="44.95754" lon="5.71045">
        <ele>721.672241</ele>
      </trkpt>
      <trkpt lat="44.95797" lon="5.71095">
        <ele>731.720398</ele>
      </trkpt>
      <trkpt lat="44.95812" lon="5.71146">
        <ele>734.796204</ele>
      </trkpt>
      <trkpt lat="44.95811" lon="5.71245">
        <ele>737.20874</ele>
      </trkpt>
      <trkpt lat="44.95832" lon="5.71306">
        <ele>739.266479</ele>
      </trkpt>
      <trkpt lat="44.95886" lon="5.71379">
        <ele>747.646606</ele>
      </trkpt>
      <trkpt lat="44.95928" lon="5.71455">
        <ele>752.859558</ele>
      </trkpt>
      <trkpt lat="44.95942" lon="5.71513">
        <ele>754.781372</ele>
      </trkpt>
      <trkpt lat="44.95937" lon="5.71598">
        <ele>759.63623</ele>
      </trkpt>
      <trkpt lat="44.95945" lon="5.7163">
        <ele>759.039063</ele>
      </trkpt>
      <trkpt lat="44.95974" lon="5.71644">
        <ele>766.595764</ele>
      </trkpt>
      <trkpt lat="44.95995" lon="5.7169">
        <ele>771.065186</ele>
      </trkpt>
      <trkpt lat="44.96012" lon="5.71723">
        <ele>773.475647</ele>
      </trkpt>
      <trkpt lat="44.95993" lon="5.71627">
        <ele>776.188477</ele>
      </trkpt>
      <trkpt lat="44.95988" lon="5.7156">
        <ele>781.864197</ele>
      </trkpt>
      <trkpt lat="44.96033" lon="5.7149">
        <ele>793.671448</ele>
      </trkpt>
      <trkpt lat="44.96071" lon="5.71419">
        <ele>799.180725</ele>
      </trkpt>
      <trkpt lat="44.96081" lon="5.71324">
        <ele>799.077576</ele>
      </trkpt>
      <trkpt lat="44.96057" lon="5.71288">
        <ele>792.918213</ele>
      </trkpt>
      <trkpt lat="44.96054" lon="5.71171">
        <ele>795.841064</ele>
      </trkpt>
      <trkpt lat="44.96051" lon="5.71031">
        <ele>798.372498</ele>
      </trkpt>
      <trkpt lat="44.96058" lon="5.70876">
        <ele>807.659546</ele>
      </trkpt>
      <trkpt lat="44.96065" lon="5.70727">
        <ele>822.151245</ele>
      </trkpt>
      <trkpt lat="44.96074" lon="5.70582">
        <ele>833.94751</ele>
      </trkpt>
      <trkpt lat="44.96085" lon="5.70513">
        <ele>841.248718</ele>
      </trkpt>
      <trkpt lat="44.96099" lon="5.70577">
        <ele>844.797485</ele>
      </trkpt>
      <trkpt lat="44.96102" lon="5.70476">
        <ele>847.209961</ele>
      </trkpt>
      <trkpt lat="44.96133" lon="5.70418">
        <ele>845.954346</ele>
      </trkpt>
      <trkpt lat="44.96198" lon="5.70437">
        <ele>856.893738</ele>
      </trkpt>
      <trkpt lat="44.96282" lon="5.70423">
        <ele>853.863647</ele>
      </trkpt>
      <trkpt lat="44.9633" lon="5.70409">
        <ele>855</ele>
        <time>2010-04-30T14:35:51Z</time>
      </trkpt>
      <trkpt lat="44.96343" lon="5.70404">
        <ele>856</ele>
        <time>2010-04-30T14:35:54Z</time>
      </trkpt>
      <trkpt lat="44.96386" lon="5.70374">
        <ele>855</ele>
        <time>2010-04-30T14:36:05Z</time>
      </trkpt>
      <trkpt lat="44.9642" lon="5.7034">
        <ele>850</ele>
        <time>2010-04-30T14:36:14Z</time>
      </trkpt>
      <trkpt lat="44.96445" lon="5.70297">
        <ele>847</ele>
        <time>2010-04-30T14:36:22Z</time>
      </trkpt>
      <trkpt lat="44.96467" lon="5.70228">
        <ele>844</ele>
        <time>2010-04-30T14:36:32Z</time>
      </trkpt>
      <trkpt lat="44.96488" lon="5.70162">
        <ele>845</ele>
        <time>2010-04-30T14:36:42Z</time>
      </trkpt>
      <trkpt lat="44.96502" lon="5.70108">
        <ele>843</ele>
        <time>2010-04-30T14:36:50Z</time>
      </trkpt>
      <trkpt lat="44.96513" lon="5.70076">
        <ele>843</ele>
        <time>2010-04-30T14:36:55Z</time>
      </trkpt>
      <trkpt lat="44.96519" lon="5.70063">
        <ele>843</ele>
        <time>2010-04-30T14:36:57Z</time>
      </trkpt>
      <trkpt lat="44.96524" lon="5.70029">
        <ele>843</ele>
        <time>2010-04-30T14:37:02Z</time>
      </trkpt>
      <trkpt lat="44.96542" lon="5.69971">
        <ele>842</ele>
        <time>2010-04-30T14:37:11Z</time>
      </trkpt>
      <trkpt lat="44.96562" lon="5.69914">
        <ele>842</ele>
        <time>2010-04-30T14:37:21Z</time>
      </trkpt>
      <trkpt lat="44.96566" lon="5.69903">
        <ele>842</ele>
        <time>2010-04-30T14:37:23Z</time>
      </trkpt>
      <trkpt lat="44.96581" lon="5.69834">
        <ele>843</ele>
        <time>2010-04-30T14:37:35Z</time>
      </trkpt>
      <trkpt lat="44.96599" lon="5.69774">
        <ele>842</ele>
        <time>2010-04-30T14:37:46Z</time>
      </trkpt>
      <trkpt lat="44.96615" lon="5.69723">
        <ele>843</ele>
        <time>2010-04-30T14:37:56Z</time>
      </trkpt>
      <trkpt lat="44.9663" lon="5.69654">
        <ele>843</ele>
        <time>2010-04-30T14:38:09Z</time>
      </trkpt>
      <trkpt lat="44.96639" lon="5.69608">
        <ele>844</ele>
        <time>2010-04-30T14:38:17Z</time>
      </trkpt>
      <trkpt lat="44.96645" lon="5.69566">
        <ele>846</ele>
        <time>2010-04-30T14:38:24Z</time>
      </trkpt>
      <trkpt lat="44.96641" lon="5.69548">
        <ele>846</ele>
        <time>2010-04-30T14:38:28Z</time>
      </trkpt>
      <trkpt lat="44.96633" lon="5.69524">
        <ele>844</ele>
        <time>2010-04-30T14:38:32Z</time>
      </trkpt>
      <trkpt lat="44.9663" lon="5.69492">
        <ele>842</ele>
        <time>2010-04-30T14:38:36Z</time>
      </trkpt>
      <trkpt lat="44.9663" lon="5.69471">
        <ele>842</ele>
        <time>2010-04-30T14:38:38Z</time>
      </trkpt>
      <trkpt lat="44.96619" lon="5.69433">
        <ele>838</ele>
        <time>2010-04-30T14:38:42Z</time>
      </trkpt>
      <trkpt lat="44.96597" lon="5.69373">
        <ele>835</ele>
        <time>2010-04-30T14:38:48Z</time>
      </trkpt>
      <trkpt lat="44.96584" lon="5.69361">
        <ele>831</ele>
        <time>2010-04-30T14:38:51Z</time>
      </trkpt>
      <trkpt lat="44.96562" lon="5.69362">
        <ele>821</ele>
        <time>2010-04-30T14:38:55Z</time>
      </trkpt>
      <trkpt lat="44.96542" lon="5.69345">
        <ele>817</ele>
        <time>2010-04-30T14:38:59Z</time>
      </trkpt>
      <trkpt lat="44.96532" lon="5.69323">
        <ele>817</ele>
        <time>2010-04-30T14:39:05Z</time>
      </trkpt>
      <trkpt lat="44.96517" lon="5.6932">
        <ele>813</ele>
        <time>2010-04-30T14:39:10Z</time>
      </trkpt>
      <trkpt lat="44.96509" lon="5.69313">
        <ele>811</ele>
        <time>2010-04-30T14:39:12Z</time>
      </trkpt>
      <trkpt lat="44.96497" lon="5.69308">
        <ele>806</ele>
        <time>2010-04-30T14:39:15Z</time>
      </trkpt>
      <trkpt lat="44.96479" lon="5.69297">
        <ele>800</ele>
        <time>2010-04-30T14:39:20Z</time>
      </trkpt>
      <trkpt lat="44.96476" lon="5.69294">
        <ele>800</ele>
        <time>2010-04-30T14:39:24Z</time>
      </trkpt>
      <trkpt lat="44.96472" lon="5.69298">
        <ele>797</ele>
        <time>2010-04-30T14:39:27Z</time>
      </trkpt>
      <trkpt lat="44.96471" lon="5.69295">
        <ele>797</ele>
        <time>2010-04-30T14:39:29Z</time>
      </trkpt>
      <trkpt lat="44.9647" lon="5.69282">
        <ele>799</ele>
        <time>2010-04-30T14:39:32Z</time>
      </trkpt>
      <trkpt lat="44.9647" lon="5.69276">
        <ele>800</ele>
        <time>2010-04-30T14:39:33Z</time>
      </trkpt>
      <trkpt lat="44.96463" lon="5.69275">
        <ele>797</ele>
        <time>2010-04-30T14:39:38Z</time>
      </trkpt>
      <trkpt lat="44.96457" lon="5.6928">
        <ele>791</ele>
        <time>2010-04-30T14:39:41Z</time>
      </trkpt>
      <trkpt lat="44.96456" lon="5.69281">
        <ele>790</ele>
        <time>2010-04-30T14:39:42Z</time>
      </trkpt>
      <trkpt lat="44.96453" lon="5.69263">
        <ele>793</ele>
        <time>2010-04-30T14:39:47Z</time>
      </trkpt>
      <trkpt lat="44.96452" lon="5.69251">
        <ele>790</ele>
        <time>2010-04-30T14:39:49Z</time>
      </trkpt>
      <trkpt lat="44.96459" lon="5.69231">
        <ele>789</ele>
        <time>2010-04-30T14:39:53Z</time>
      </trkpt>
      <trkpt lat="44.96461" lon="5.69223">
        <ele>788</ele>
        <time>2010-04-30T14:39:55Z</time>
      </trkpt>
      <trkpt lat="44.96477" lon="5.69213">
        <ele>788</ele>
        <time>2010-04-30T14:40:01Z</time>
      </trkpt>
      <trkpt lat="44.96473" lon="5.69206">
        <ele>785</ele>
        <time>2010-04-30T14:40:04Z</time>
      </trkpt>
      <trkpt lat="44.9646" lon="5.69202">
        <ele>781</ele>
        <time>2010-04-30T14:40:07Z</time>
      </trkpt>
      <trkpt lat="44.96454" lon="5.69201">
        <ele>779</ele>
        <time>2010-04-30T14:40:09Z</time>
      </trkpt>
      <trkpt lat="44.96456" lon="5.69191">
        <ele>775</ele>
        <time>2010-04-30T14:40:14Z</time>
      </trkpt>
      <trkpt lat="44.96462" lon="5.69187">
        <ele>775</ele>
        <time>2010-04-30T14:40:16Z</time>
      </trkpt>
      <trkpt lat="44.96453" lon="5.6918">
        <ele>769</ele>
        <time>2010-04-30T14:40:21Z</time>
      </trkpt>
      <trkpt lat="44.96441" lon="5.69175">
        <ele>764</ele>
        <time>2010-04-30T14:40:25Z</time>
      </trkpt>
      <trkpt lat="44.96436" lon="5.69176">
        <ele>763</ele>
        <time>2010-04-30T14:40:27Z</time>
      </trkpt>
      <trkpt lat="44.9644" lon="5.69163">
        <ele>757</ele>
        <time>2010-04-30T14:40:32Z</time>
      </trkpt>
      <trkpt lat="44.96429" lon="5.69152">
        <ele>750</ele>
        <time>2010-04-30T14:40:36Z</time>
      </trkpt>
      <trkpt lat="44.9642" lon="5.69146">
        <ele>746</ele>
        <time>2010-04-30T14:40:38Z</time>
      </trkpt>
      <trkpt lat="44.96409" lon="5.69139">
        <ele>744</ele>
        <time>2010-04-30T14:40:42Z</time>
      </trkpt>
      <trkpt lat="44.96408" lon="5.69134">
        <ele>743</ele>
        <time>2010-04-30T14:40:45Z</time>
      </trkpt>
      <trkpt lat="44.96412" lon="5.69129">
        <ele>742</ele>
        <time>2010-04-30T14:40:48Z</time>
      </trkpt>
      <trkpt lat="44.96419" lon="5.69125">
        <ele>740</ele>
        <time>2010-04-30T14:40:51Z</time>
      </trkpt>
      <trkpt lat="44.96431" lon="5.69118">
        <ele>739</ele>
        <time>2010-04-30T14:40:56Z</time>
      </trkpt>
      <trkpt lat="44.96448" lon="5.69118">
        <ele>740</ele>
        <time>2010-04-30T14:41:00Z</time>
      </trkpt>
      <trkpt lat="44.96455" lon="5.6912">
        <ele>740</ele>
        <time>2010-04-30T14:41:01Z</time>
      </trkpt>
      <trkpt lat="44.96463" lon="5.69119">
        <ele>741</ele>
        <time>2010-04-30T14:41:05Z</time>
      </trkpt>
      <trkpt lat="44.96465" lon="5.69119">
        <ele>741</ele>
        <time>2010-04-30T14:41:11Z</time>
      </trkpt>
      <trkpt lat="44.96477" lon="5.69107">
        <ele>736</ele>
        <time>2010-04-30T14:41:16Z</time>
      </trkpt>
      <trkpt lat="44.96479" lon="5.69105">
        <ele>735</ele>
        <time>2010-04-30T14:41:17Z</time>
      </trkpt>
      <trkpt lat="44.9649" lon="5.691">
        <ele>734</ele>
        <time>2010-04-30T14:41:20Z</time>
      </trkpt>
      <trkpt lat="44.965" lon="5.6909">
        <ele>729</ele>
        <time>2010-04-30T14:41:25Z</time>
      </trkpt>
      <trkpt lat="44.96502" lon="5.69087">
        <ele>728</ele>
        <time>2010-04-30T14:41:26Z</time>
      </trkpt>
      <trkpt lat="44.965" lon="5.69085">
        <ele>727</ele>
        <time>2010-04-30T14:41:44Z</time>
      </trkpt>
      <trkpt lat="44.96505" lon="5.69083">
        <ele>726</ele>
        <time>2010-04-30T14:41:48Z</time>
      </trkpt>
      <trkpt lat="44.96509" lon="5.69079">
        <ele>724</ele>
        <time>2010-04-30T14:41:50Z</time>
      </trkpt>
      <trkpt lat="44.96504" lon="5.69071">
        <ele>719</ele>
        <time>2010-04-30T14:41:57Z</time>
      </trkpt>
      <trkpt lat="44.96502" lon="5.69067">
        <ele>717</ele>
        <time>2010-04-30T14:41:59Z</time>
      </trkpt>
      <trkpt lat="44.96506" lon="5.69065">
        <ele>716</ele>
        <time>2010-04-30T14:42:02Z</time>
      </trkpt>
      <trkpt lat="44.96505" lon="5.69061">
        <ele>714</ele>
        <time>2010-04-30T14:42:05Z</time>
      </trkpt>
      <trkpt lat="44.96492" lon="5.69057">
        <ele>710</ele>
        <time>2010-04-30T14:42:10Z</time>
      </trkpt>
      <trkpt lat="44.96483" lon="5.69051">
        <ele>707</ele>
        <time>2010-04-30T14:42:14Z</time>
      </trkpt>
      <trkpt lat="44.96477" lon="5.69033">
        <ele>695</ele>
        <time>2010-04-30T14:42:19Z</time>
      </trkpt>
      <trkpt lat="44.96475" lon="5.69037">
        <ele>698</ele>
        <time>2010-04-30T14:42:24Z</time>
      </trkpt>
      <trkpt lat="44.96474" lon="5.69036">
        <ele>697</ele>
        <time>2010-04-30T14:42:26Z</time>
      </trkpt>
      <trkpt lat="44.96477" lon="5.69029">
        <ele>693</ele>
        <time>2010-04-30T14:42:29Z</time>
      </trkpt>
      <trkpt lat="44.96486" lon="5.69027">
        <ele>691</ele>
        <time>2010-04-30T14:42:34Z</time>
      </trkpt>
      <trkpt lat="44.96493" lon="5.6903">
        <ele>694</ele>
        <time>2010-04-30T14:42:36Z</time>
      </trkpt>
      <trkpt lat="44.96495" lon="5.69022">
        <ele>689</ele>
        <time>2010-04-30T14:42:40Z</time>
      </trkpt>
      <trkpt lat="44.96497" lon="5.69022">
        <ele>689</ele>
        <time>2010-04-30T14:42:41Z</time>
      </trkpt>
      <trkpt lat="44.96504" lon="5.6902">
        <ele>688</ele>
        <time>2010-04-30T14:42:44Z</time>
      </trkpt>
      <trkpt lat="44.96522" lon="5.69027">
        <ele>692</ele>
        <time>2010-04-30T14:42:51Z</time>
      </trkpt>
      <trkpt lat="44.96532" lon="5.69028">
        <ele>693</ele>
        <time>2010-04-30T14:42:54Z</time>
      </trkpt>
      <trkpt lat="44.96547" lon="5.69004">
        <ele>676</ele>
        <time>2010-04-30T14:42:59Z</time>
      </trkpt>
      <trkpt lat="44.96549" lon="5.68994">
        <ele>668</ele>
        <time>2010-04-30T14:43:01Z</time>
      </trkpt>
      <trkpt lat="44.96551" lon="5.6899">
        <ele>665</ele>
        <time>2010-04-30T14:43:02Z</time>
      </trkpt>
      <trkpt lat="44.96564" lon="5.68985">
        <ele>660</ele>
        <time>2010-04-30T14:43:06Z</time>
      </trkpt>
      <trkpt lat="44.96571" lon="5.68984">
        <ele>658</ele>
        <time>2010-04-30T14:43:08Z</time>
      </trkpt>
      <trkpt lat="44.96582" lon="5.68987">
        <ele>657</ele>
        <time>2010-04-30T14:43:10Z</time>
      </trkpt>
      <trkpt lat="44.96592" lon="5.6898">
        <ele>649</ele>
        <time>2010-04-30T14:43:13Z</time>
      </trkpt>
      <trkpt lat="44.96598" lon="5.68971">
        <ele>641</ele>
        <time>2010-04-30T14:43:15Z</time>
      </trkpt>
      <trkpt lat="44.96606" lon="5.68964">
        <ele>635</ele>
        <time>2010-04-30T14:43:17Z</time>
      </trkpt>
      <trkpt lat="44.96619" lon="5.68963">
        <ele>632</ele>
        <time>2010-04-30T14:43:20Z</time>
      </trkpt>
      <trkpt lat="44.96628" lon="5.68969">
        <ele>634</ele>
        <time>2010-04-30T14:43:22Z</time>
      </trkpt>
      <trkpt lat="44.96638" lon="5.68973">
        <ele>634</ele>
        <time>2010-04-30T14:43:27Z</time>
      </trkpt>
      <trkpt lat="44.96643" lon="5.68974">
        <ele>634</ele>
        <time>2010-04-30T14:43:41Z</time>
      </trkpt>
      <trkpt lat="44.96656" lon="5.68965">
        <ele>626</ele>
        <time>2010-04-30T14:44:38Z</time>
      </trkpt>
      <trkpt lat="44.96676" lon="5.6897">
        <ele>626</ele>
        <time>2010-04-30T14:44:44Z</time>
      </trkpt>
      <trkpt lat="44.96696" lon="5.68972">
        <ele>624</ele>
        <time>2010-04-30T14:44:51Z</time>
      </trkpt>
      <trkpt lat="44.96717" lon="5.68971">
        <ele>623</ele>
        <time>2010-04-30T14:44:59Z</time>
      </trkpt>
      <trkpt lat="44.96733" lon="5.68983">
        <ele>628</ele>
        <time>2010-04-30T14:45:05Z</time>
      </trkpt>
      <trkpt lat="44.96739" lon="5.68982">
        <ele>627</ele>
        <time>2010-04-30T14:45:11Z</time>
      </trkpt>
      <trkpt lat="44.96739" lon="5.68981">
        <ele>626</ele>
        <time>2010-04-30T14:45:22Z</time>
      </trkpt>
      <trkpt lat="44.9674" lon="5.6898">
        <ele>626</ele>
        <time>2010-04-30T14:45:32Z</time>
      </trkpt>
      <trkpt lat="44.9674" lon="5.68976">
        <ele>624</ele>
        <time>2010-04-30T14:45:35Z</time>
      </trkpt>
      <trkpt lat="44.96743" lon="5.68975">
        <ele>623</ele>
        <time>2010-04-30T14:45:39Z</time>
      </trkpt>
      <trkpt lat="44.96752" lon="5.68971">
        <ele>622</ele>
        <time>2010-04-30T14:45:44Z</time>
      </trkpt>
      <trkpt lat="44.96758" lon="5.68965">
        <ele>619</ele>
        <time>2010-04-30T14:45:55Z</time>
      </trkpt>
      <trkpt lat="44.96756" lon="5.68962">
        <ele>617</ele>
        <time>2010-04-30T14:45:56Z</time>
      </trkpt>
      <trkpt lat="44.96753" lon="5.68953">
        <ele>613</ele>
        <time>2010-04-30T14:46:04Z</time>
      </trkpt>
      <trkpt lat="44.96739" lon="5.68945">
        <ele>608</ele>
        <time>2010-04-30T14:46:09Z</time>
      </trkpt>
      <trkpt lat="44.96735" lon="5.68943">
        <ele>607</ele>
        <time>2010-04-30T14:46:11Z</time>
      </trkpt>
      <trkpt lat="44.96731" lon="5.68935">
        <ele>602</ele>
        <time>2010-04-30T14:46:16Z</time>
      </trkpt>
      <trkpt lat="44.96735" lon="5.68929">
        <ele>599</ele>
        <time>2010-04-30T14:46:20Z</time>
      </trkpt>
      <trkpt lat="44.96738" lon="5.68926">
        <ele>598</ele>
        <time>2010-04-30T14:46:26Z</time>
      </trkpt>
      <trkpt lat="44.96734" lon="5.68922">
        <ele>595</ele>
        <time>2010-04-30T14:46:38Z</time>
      </trkpt>
      <trkpt lat="44.96732" lon="5.68918">
        <ele>593</ele>
        <time>2010-04-30T14:46:48Z</time>
      </trkpt>
      <trkpt lat="44.9673" lon="5.6892">
        <ele>594</ele>
        <time>2010-04-30T14:46:54Z</time>
      </trkpt>
      <trkpt lat="44.96732" lon="5.68906">
        <ele>586</ele>
        <time>2010-04-30T14:47:01Z</time>
      </trkpt>
      <trkpt lat="44.96725" lon="5.68896">
        <ele>580</ele>
        <time>2010-04-30T14:47:07Z</time>
      </trkpt>
      <trkpt lat="44.96716" lon="5.68887">
        <ele>575</ele>
        <time>2010-04-30T14:47:12Z</time>
      </trkpt>
      <trkpt lat="44.96718" lon="5.68883">
        <ele>574</ele>
        <time>2010-04-30T14:47:16Z</time>
      </trkpt>
      <trkpt lat="44.96714" lon="5.6888">
        <ele>572</ele>
        <time>2010-04-30T14:47:19Z</time>
      </trkpt>
      <trkpt lat="44.96711" lon="5.68874">
        <ele>568</ele>
        <time>2010-04-30T14:47:21Z</time>
      </trkpt>
      <trkpt lat="44.96716" lon="5.68865">
        <ele>565</ele>
        <time>2010-04-30T14:47:26Z</time>
      </trkpt>
      <trkpt lat="44.96719" lon="5.68861">
        <ele>564</ele>
        <time>2010-04-30T14:47:33Z</time>
      </trkpt>
      <trkpt lat="44.96721" lon="5.68864">
        <ele>566</ele>
        <time>2010-04-30T14:47:42Z</time>
      </trkpt>
      <trkpt lat="44.96725" lon="5.68863">
        <ele>566</ele>
        <time>2010-04-30T14:47:53Z</time>
      </trkpt>
      <trkpt lat="44.96731" lon="5.68857">
        <ele>565</ele>
        <time>2010-04-30T14:47:59Z</time>
      </trkpt>
      <trkpt lat="44.96736" lon="5.68853">
        <ele>564</ele>
        <time>2010-04-30T14:48:08Z</time>
      </trkpt>
      <trkpt lat="44.96733" lon="5.68851">
        <ele>562</ele>
        <time>2010-04-30T14:48:17Z</time>
      </trkpt>
      <trkpt lat="44.96727" lon="5.68847">
        <ele>559</ele>
        <time>2010-04-30T14:48:25Z</time>
      </trkpt>
      <trkpt lat="44.96723" lon="5.68846">
        <ele>558</ele>
        <time>2010-04-30T14:48:33Z</time>
      </trkpt>
      <trkpt lat="44.96723" lon="5.68846">
        <ele>558</ele>
        <time>2010-04-30T14:48:41Z</time>
      </trkpt>
      <trkpt lat="44.96712" lon="5.68841">
        <ele>553</ele>
        <time>2010-04-30T14:48:45Z</time>
      </trkpt>
      <trkpt lat="44.96708" lon="5.6884">
        <ele>551</ele>
        <time>2010-04-30T14:48:46Z</time>
      </trkpt>
      <trkpt lat="44.96688" lon="5.68841">
        <ele>550</ele>
        <time>2010-04-30T14:48:50Z</time>
      </trkpt>
      <trkpt lat="44.96663" lon="5.6884">
        <ele>549</ele>
        <time>2010-04-30T14:48:56Z</time>
      </trkpt>
      <trkpt lat="44.96655" lon="5.68847">
        <ele>553</ele>
        <time>2010-04-30T14:49:02Z</time>
      </trkpt>
      <trkpt lat="44.96642" lon="5.68843">
        <ele>552</ele>
        <time>2010-04-30T14:49:09Z</time>
      </trkpt>
      <trkpt lat="44.96617" lon="5.68837">
        <ele>551</ele>
        <time>2010-04-30T14:49:17Z</time>
      </trkpt>
      <trkpt lat="44.96604" lon="5.68837">
        <ele>552</ele>
        <time>2010-04-30T14:49:21Z</time>
      </trkpt>
      <trkpt lat="44.96583" lon="5.68823">
        <ele>546</ele>
        <time>2010-04-30T14:49:29Z</time>
      </trkpt>
      <trkpt lat="44.9658" lon="5.68823">
        <ele>545</ele>
        <time>2010-04-30T14:49:30Z</time>
      </trkpt>
      <trkpt lat="44.96558" lon="5.68809">
        <ele>539</ele>
        <time>2010-04-30T14:49:37Z</time>
      </trkpt>
      <trkpt lat="44.96391" lon="5.68792">
        <ele>547</ele>
        <time>2010-04-30T14:50:35Z</time>
      </trkpt>
      <trkpt lat="44.9639" lon="5.68789">
        <ele>545</ele>
        <time>2010-04-30T14:50:36Z</time>
      </trkpt>
      <trkpt lat="44.96383" lon="5.68789">
        <ele>545</ele>
        <time>2010-04-30T14:50:38Z</time>
      </trkpt>
      <trkpt lat="44.96372" lon="5.68781">
        <ele>542</ele>
        <time>2010-04-30T14:50:43Z</time>
      </trkpt>
      <trkpt lat="44.96367" lon="5.68779">
        <ele>541</ele>
        <time>2010-04-30T14:50:44Z</time>
      </trkpt>
      <trkpt lat="44.96362" lon="5.6877">
        <ele>537</ele>
        <time>2010-04-30T14:50:48Z</time>
      </trkpt>
      <trkpt lat="44.9636" lon="5.68767">
        <ele>536</ele>
        <time>2010-04-30T14:50:49Z</time>
      </trkpt>
      <trkpt lat="44.96354" lon="5.68749">
        <ele>527</ele>
        <time>2010-04-30T14:50:53Z</time>
      </trkpt>
      <trkpt lat="44.96353" lon="5.6874">
        <ele>523</ele>
        <time>2010-04-30T14:50:55Z</time>
      </trkpt>
      <trkpt lat="44.96342" lon="5.68727">
        <ele>514</ele>
        <time>2010-04-30T14:51:00Z</time>
      </trkpt>
      <trkpt lat="44.96341" lon="5.68726">
        <ele>513</ele>
        <time>2010-04-30T14:51:07Z</time>
      </trkpt>
      <trkpt lat="44.96341" lon="5.68726">
        <ele>513</ele>
        <time>2010-04-30T14:51:09Z</time>
      </trkpt>
      <trkpt lat="44.96341" lon="5.68726">
        <ele>513</ele>
        <time>2010-04-30T14:51:10Z</time>
      </trkpt>
      <trkpt lat="44.96341" lon="5.68726">
        <ele>513</ele>
        <time>2010-04-30T14:51:11Z</time>
      </trkpt>
      <trkpt lat="44.96341" lon="5.68726">
        <ele>513</ele>
        <time>2010-04-30T14:51:12Z</time>
      </trkpt>
      <trkpt lat="44.96341" lon="5.68726">
        <ele>513</ele>
        <time>2010-04-30T14:51:13Z</time>
      </trkpt>
      <trkpt lat="44.96341" lon="5.68726">
        <ele>513</ele>
        <time>2010-04-30T14:51:14Z</time>
      </trkpt>
      <trkpt lat="44.96341" lon="5.68726">
        <ele>513</ele>
        <time>2010-04-30T14:51:15Z</time>
      </trkpt>
      <trkpt lat="44.96341" lon="5.68726">
        <ele>513</ele>
        <time>2010-04-30T14:51:17Z</time>
      </trkpt>
      <trkpt lat="44.96341" lon="5.68726">
        <ele>512</ele>
        <time>2010-04-30T14:51:19Z</time>
      </trkpt>
      <trkpt lat="44.96341" lon="5.68726">
        <ele>512</ele>
        <time>2010-04-30T14:51:21Z</time>
      </trkpt>
      <trkpt lat="44.96341" lon="5.68726">
        <ele>512</ele>
        <time>2010-04-30T14:51:23Z</time>
      </trkpt>
      <trkpt lat="44.96341" lon="5.68726">
        <ele>513</ele>
        <time>2010-04-30T14:51:25Z</time>
      </trkpt>
      <trkpt lat="44.96341" lon="5.68726">
        <ele>513</ele>
        <time>2010-04-30T14:51:27Z</time>
      </trkpt>
      <trkpt lat="44.96341" lon="5.68726">
        <ele>513</ele>
        <time>2010-04-30T14:51:29Z</time>
      </trkpt>
      <trkpt lat="44.96341" lon="5.68726">
        <ele>513</ele>
        <time>2010-04-30T14:51:31Z</time>
      </trkpt>
      <trkpt lat="44.96341" lon="5.68726">
        <ele>513</ele>
        <time>2010-04-30T14:51:33Z</time>
      </trkpt>
      <trkpt lat="44.96342" lon="5.68727">
        <ele>514</ele>
        <time>2010-04-30T14:51:35Z</time>
      </trkpt>
      <trkpt lat="44.96342" lon="5.68729">
        <ele>515</ele>
        <time>2010-04-30T14:51:37Z</time>
      </trkpt>
      <trkpt lat="44.96341" lon="5.68731">
        <ele>515</ele>
        <time>2010-04-30T14:51:40Z</time>
      </trkpt>
      <trkpt lat="44.9634" lon="5.68734">
        <ele>515</ele>
        <time>2010-04-30T14:51:43Z</time>
      </trkpt>
      <trkpt lat="44.96339" lon="5.68738">
        <ele>516</ele>
        <time>2010-04-30T14:51:46Z</time>
      </trkpt>
      <trkpt lat="44.96337" lon="5.68745">
        <ele>518</ele>
        <time>2010-04-30T14:51:50Z</time>
      </trkpt>
      <trkpt lat="44.96334" lon="5.68749">
        <ele>518</ele>
        <time>2010-04-30T14:51:54Z</time>
      </trkpt>
      <trkpt lat="44.96333" lon="5.68753">
        <ele>519</ele>
        <time>2010-04-30T14:51:58Z</time>
      </trkpt>
      <trkpt lat="44.96333" lon="5.68754">
        <ele>519</ele>
        <time>2010-04-30T14:51:59Z</time>
      </trkpt>
      <trkpt lat="44.96332" lon="5.68761">
        <ele>523</ele>
        <time>2010-04-30T14:52:05Z</time>
      </trkpt>
      <trkpt lat="44.96332" lon="5.68762">
        <ele>522</ele>
        <time>2010-04-30T14:52:09Z</time>
      </trkpt>
      <trkpt lat="44.96331" lon="5.68769">
        <ele>526</ele>
        <time>2010-04-30T14:52:15Z</time>
      </trkpt>
      <trkpt lat="44.96325" lon="5.68777">
        <ele>524</ele>
        <time>2010-04-30T14:52:24Z</time>
      </trkpt>
      <trkpt lat="44.96318" lon="5.6878">
        <ele>520</ele>
        <time>2010-04-30T14:52:31Z</time>
      </trkpt>
      <trkpt lat="44.96314" lon="5.68784">
        <ele>518</ele>
        <time>2010-04-30T14:52:39Z</time>
      </trkpt>
      <trkpt lat="44.96308" lon="5.68789">
        <ele>515</ele>
        <time>2010-04-30T14:52:47Z</time>
      </trkpt>
      <trkpt lat="44.96307" lon="5.68788">
        <ele>514</ele>
        <time>2010-04-30T14:52:48Z</time>
      </trkpt>
      <trkpt lat="44.96303" lon="5.68791">
        <ele>511</ele>
        <time>2010-04-30T14:52:52Z</time>
      </trkpt>
      <trkpt lat="44.963" lon="5.68796">
        <ele>511</ele>
        <time>2010-04-30T14:52:56Z</time>
      </trkpt>
      <trkpt lat="44.96299" lon="5.68804">
        <ele>514</ele>
        <time>2010-04-30T14:53:04Z</time>
      </trkpt>
      <trkpt lat="44.96305" lon="5.68815">
        <ele>527</ele>
        <time>2010-04-30T14:53:12Z</time>
      </trkpt>
      <trkpt lat="44.96308" lon="5.68823">
        <ele>534</ele>
        <time>2010-04-30T14:53:22Z</time>
      </trkpt>
      <trkpt lat="44.96307" lon="5.68823">
        <ele>534</ele>
        <time>2010-04-30T14:53:23Z</time>
      </trkpt>
      <trkpt lat="44.96306" lon="5.68824">
        <ele>533</ele>
        <time>2010-04-30T14:53:25Z</time>
      </trkpt>
      <trkpt lat="44.96301" lon="5.68831">
        <ele>534</ele>
        <time>2010-04-30T14:53:32Z</time>
      </trkpt>
      <trkpt lat="44.96299" lon="5.68838">
        <ele>536</ele>
        <time>2010-04-30T14:53:39Z</time>
      </trkpt>
      <trkpt lat="44.96297" lon="5.68843">
        <ele>537</ele>
        <time>2010-04-30T14:53:45Z</time>
      </trkpt>
      <trkpt lat="44.96293" lon="5.68849">
        <ele>537</ele>
        <time>2010-04-30T14:53:53Z</time>
      </trkpt>
      <trkpt lat="44.96291" lon="5.68851">
        <ele>537</ele>
        <time>2010-04-30T14:53:56Z</time>
      </trkpt>
      <trkpt lat="44.96287" lon="5.68858">
        <ele>536</ele>
        <time>2010-04-30T14:54:05Z</time>
      </trkpt>
      <trkpt lat="44.96283" lon="5.68864">
        <ele>535</ele>
        <time>2010-04-30T14:54:15Z</time>
      </trkpt>
      <trkpt lat="44.96278" lon="5.68865">
        <ele>531</ele>
        <time>2010-04-30T14:54:27Z</time>
      </trkpt>
      <trkpt lat="44.96274" lon="5.68865">
        <ele>527</ele>
        <time>2010-04-30T14:54:34Z</time>
      </trkpt>
      <trkpt lat="44.9627" lon="5.68859">
        <ele>519</ele>
        <time>2010-04-30T14:54:42Z</time>
      </trkpt>
      <trkpt lat="44.9627" lon="5.68858">
        <ele>518</ele>
        <time>2010-04-30T14:54:43Z</time>
      </trkpt>
      <trkpt lat="44.9626" lon="5.6885">
        <ele>503</ele>
        <time>2010-04-30T14:54:51Z</time>
      </trkpt>
      <trkpt lat="44.96256" lon="5.68848">
        <ele>498</ele>
        <time>2010-04-30T14:54:55Z</time>
      </trkpt>
      <trkpt lat="44.96251" lon="5.68842">
        <ele>490</ele>
        <time>2010-04-30T14:55:03Z</time>
      </trkpt>
      <trkpt lat="44.96249" lon="5.68838">
        <ele>486</ele>
        <time>2010-04-30T14:55:14Z</time>
      </trkpt>
      <trkpt lat="44.9625" lon="5.68839">
        <ele>488</ele>
        <time>2010-04-30T14:55:23Z</time>
      </trkpt>
      <trkpt lat="44.96246" lon="5.68836">
        <ele>482</ele>
        <time>2010-04-30T14:55:35Z</time>
      </trkpt>
      <trkpt lat="44.96241" lon="5.6883">
        <ele>475</ele>
        <time>2010-04-30T14:55:51Z</time>
      </trkpt>
      <trkpt lat="44.96238" lon="5.68835">
        <ele>476</ele>
        <time>2010-04-30T14:55:58Z</time>
      </trkpt>
      <trkpt lat="44.9624" lon="5.6884">
        <ele>481</ele>
        <time>2010-04-30T14:56:07Z</time>
      </trkpt>
      <trkpt lat="44.96241" lon="5.68844">
        <ele>484</ele>
        <time>2010-04-30T14:56:38Z</time>
      </trkpt>
      <trkpt lat="44.96233" lon="5.68857">
        <ele>489</ele>
        <time>2010-04-30T14:56:44Z</time>
      </trkpt>
      <trkpt lat="44.96231" lon="5.68863">
        <ele>492</ele>
        <time>2010-04-30T14:56:46Z</time>
      </trkpt>
      <trkpt lat="44.96219" lon="5.68876">
        <ele>490</ele>
        <time>2010-04-30T14:56:52Z</time>
      </trkpt>
      <trkpt lat="44.96203" lon="5.68883">
        <ele>482</ele>
        <time>2010-04-30T14:56:59Z</time>
      </trkpt>
      <trkpt lat="44.96175" lon="5.68889">
        <ele>475</ele>
        <time>2010-04-30T14:57:10Z</time>
      </trkpt>
      <trkpt lat="44.96155" lon="5.68884">
        <ele>471</ele>
        <time>2010-04-30T14:57:18Z</time>
      </trkpt>
      <trkpt lat="44.96134" lon="5.68877">
        <ele>473</ele>
        <time>2010-04-30T14:57:25Z</time>
      </trkpt>
      <trkpt lat="44.96112" lon="5.68859">
        <ele>475</ele>
        <time>2010-04-30T14:57:33Z</time>
      </trkpt>
      <trkpt lat="44.96092" lon="5.68829">
        <ele>469</ele>
        <time>2010-04-30T14:57:42Z</time>
      </trkpt>
      <trkpt lat="44.96085" lon="5.68802">
        <ele>469</ele>
        <time>2010-04-30T14:57:48Z</time>
      </trkpt>
      <trkpt lat="44.9608" lon="5.68772">
        <ele>481</ele>
        <time>2010-04-30T14:57:54Z</time>
      </trkpt>
      <trkpt lat="44.96085" lon="5.68745">
        <ele>480</ele>
        <time>2010-04-30T14:58:00Z</time>
      </trkpt>
      <trkpt lat="44.96093" lon="5.68713">
        <ele>474</ele>
        <time>2010-04-30T14:58:08Z</time>
      </trkpt>
      <trkpt lat="44.96098" lon="5.68675">
        <ele>476</ele>
        <time>2010-04-30T14:58:16Z</time>
      </trkpt>
      <trkpt lat="44.96093" lon="5.68639">
        <ele>484</ele>
        <time>2010-04-30T14:58:24Z</time>
      </trkpt>
      <trkpt lat="44.96082" lon="5.68603">
        <ele>496</ele>
        <time>2010-04-30T14:58:32Z</time>
      </trkpt>
      <trkpt lat="44.96072" lon="5.6857">
        <ele>495</ele>
        <time>2010-04-30T14:58:40Z</time>
      </trkpt>
      <trkpt lat="44.96058" lon="5.68546">
        <ele>495</ele>
        <time>2010-04-30T14:58:47Z</time>
      </trkpt>
      <trkpt lat="44.96037" lon="5.68545">
        <ele>502</ele>
        <time>2010-04-30T14:58:54Z</time>
      </trkpt>
      <trkpt lat="44.96016" lon="5.68549">
        <ele>506</ele>
        <time>2010-04-30T14:59:01Z</time>
      </trkpt>
      <trkpt lat="44.95997" lon="5.68544">
        <ele>506</ele>
        <time>2010-04-30T14:59:08Z</time>
      </trkpt>
      <trkpt lat="44.95984" lon="5.68524">
        <ele>501</ele>
        <time>2010-04-30T14:59:14Z</time>
      </trkpt>
      <trkpt lat="44.95969" lon="5.6849">
        <ele>494</ele>
        <time>2010-04-30T14:59:24Z</time>
      </trkpt>
      <trkpt lat="44.95952" lon="5.68479">
        <ele>494</ele>
        <time>2010-04-30T14:59:30Z</time>
      </trkpt>
      <trkpt lat="44.95935" lon="5.68483">
        <ele>498</ele>
        <time>2010-04-30T14:59:37Z</time>
      </trkpt>
      <trkpt lat="44.95907" lon="5.68502">
        <ele>505</ele>
        <time>2010-04-30T14:59:48Z</time>
      </trkpt>
      <trkpt lat="44.95886" lon="5.6852">
        <ele>509</ele>
        <time>2010-04-30T14:59:58Z</time>
      </trkpt>
      <trkpt lat="44.95885" lon="5.6852">
        <ele>509</ele>
        <time>2010-04-30T14:59:59Z</time>
      </trkpt>
      <trkpt lat="44.95876" lon="5.68528">
        <ele>509</ele>
        <time>2010-04-30T15:00:06Z</time>
      </trkpt>
      <trkpt lat="44.95856" lon="5.68537">
        <ele>515</ele>
        <time>2010-04-30T15:00:16Z</time>
      </trkpt>
      <trkpt lat="44.95839" lon="5.68545">
        <ele>523</ele>
        <time>2010-04-30T15:00:25Z</time>
      </trkpt>
      <trkpt lat="44.95821" lon="5.68556">
        <ele>530</ele>
        <time>2010-04-30T15:00:33Z</time>
      </trkpt>
      <trkpt lat="44.95806" lon="5.68573">
        <ele>534</ele>
        <time>2010-04-30T15:00:41Z</time>
      </trkpt>
      <trkpt lat="44.95804" lon="5.68592">
        <ele>538</ele>
        <time>2010-04-30T15:00:47Z</time>
      </trkpt>
      <trkpt lat="44.95816" lon="5.686">
        <ele>540</ele>
        <time>2010-04-30T15:00:52Z</time>
      </trkpt>
      <trkpt lat="44.95835" lon="5.68599">
        <ele>538</ele>
        <time>2010-04-30T15:00:59Z</time>
      </trkpt>
      <trkpt lat="44.95854" lon="5.68603">
        <ele>539</ele>
        <time>2010-04-30T15:01:06Z</time>
      </trkpt>
      <trkpt lat="44.95861" lon="5.68603">
        <ele>538</ele>
        <time>2010-04-30T15:01:09Z</time>
      </trkpt>
      <trkpt lat="44.95881" lon="5.68604">
        <ele>538</ele>
        <time>2010-04-30T15:01:18Z</time>
      </trkpt>
      <trkpt lat="44.95899" lon="5.68607">
        <ele>539</ele>
        <time>2010-04-30T15:01:26Z</time>
      </trkpt>
      <trkpt lat="44.95914" lon="5.68616">
        <ele>541</ele>
        <time>2010-04-30T15:01:34Z</time>
      </trkpt>
      <trkpt lat="44.95936" lon="5.68623">
        <ele>543</ele>
        <time>2010-04-30T15:01:44Z</time>
      </trkpt>
      <trkpt lat="44.95952" lon="5.68628">
        <ele>544</ele>
        <time>2010-04-30T15:01:51Z</time>
      </trkpt>
      <trkpt lat="44.95963" lon="5.6863">
        <ele>544</ele>
        <time>2010-04-30T15:01:57Z</time>
      </trkpt>
      <trkpt lat="44.95981" lon="5.68628">
        <ele>543</ele>
        <time>2010-04-30T15:02:05Z</time>
      </trkpt>
      <trkpt lat="44.96005" lon="5.68623">
        <ele>537</ele>
        <time>2010-04-30T15:02:15Z</time>
      </trkpt>
      <trkpt lat="44.96024" lon="5.68621">
        <ele>533</ele>
        <time>2010-04-30T15:02:23Z</time>
      </trkpt>
      <trkpt lat="44.96035" lon="5.68626">
        <ele>532</ele>
        <time>2010-04-30T15:02:28Z</time>
      </trkpt>
      <trkpt lat="44.96036" lon="5.68647">
        <ele>540</ele>
        <time>2010-04-30T15:02:35Z</time>
      </trkpt>
      <trkpt lat="44.96024" lon="5.68653">
        <ele>546</ele>
        <time>2010-04-30T15:02:41Z</time>
      </trkpt>
      <trkpt lat="44.96022" lon="5.68652">
        <ele>546</ele>
        <time>2010-04-30T15:02:42Z</time>
      </trkpt>
      <trkpt lat="44.95995" lon="5.68647">
        <ele>550</ele>
        <time>2010-04-30T15:02:52Z</time>
      </trkpt>
      <trkpt lat="44.9597" lon="5.68648">
        <ele>552</ele>
        <time>2010-04-30T15:03:01Z</time>
      </trkpt>
      <trkpt lat="44.95954" lon="5.68654">
        <ele>555</ele>
        <time>2010-04-30T15:03:07Z</time>
      </trkpt>
      <trkpt lat="44.95928" lon="5.68655">
        <ele>556</ele>
        <time>2010-04-30T15:03:16Z</time>
      </trkpt>
      <trkpt lat="44.95902" lon="5.68652">
        <ele>555</ele>
        <time>2010-04-30T15:03:25Z</time>
      </trkpt>
      <trkpt lat="44.95872" lon="5.6865">
        <ele>557</ele>
        <time>2010-04-30T15:03:35Z</time>
      </trkpt>
      <trkpt lat="44.95844" lon="5.68649">
        <ele>559</ele>
        <time>2010-04-30T15:03:45Z</time>
      </trkpt>
      <trkpt lat="44.95818" lon="5.6865">
        <ele>562</ele>
        <time>2010-04-30T15:03:54Z</time>
      </trkpt>
      <trkpt lat="44.95793" lon="5.68651">
        <ele>564</ele>
        <time>2010-04-30T15:04:02Z</time>
      </trkpt>
      <trkpt lat="44.95764" lon="5.68652">
        <ele>567</ele>
        <time>2010-04-30T15:04:12Z</time>
      </trkpt>
      <trkpt lat="44.95738" lon="5.68646">
        <ele>568</ele>
        <time>2010-04-30T15:04:20Z</time>
      </trkpt>
      <trkpt lat="44.95716" lon="5.68638">
        <ele>569</ele>
        <time>2010-04-30T15:04:28Z</time>
      </trkpt>
      <trkpt lat="44.95696" lon="5.68623">
        <ele>570</ele>
        <time>2010-04-30T15:04:36Z</time>
      </trkpt>
      <trkpt lat="44.9568" lon="5.68606">
        <ele>568</ele>
        <time>2010-04-30T15:04:44Z</time>
      </trkpt>
      <trkpt lat="44.95664" lon="5.68588">
        <ele>567</ele>
        <time>2010-04-30T15:04:52Z</time>
      </trkpt>
      <trkpt lat="44.95649" lon="5.68583">
        <ele>569</ele>
        <time>2010-04-30T15:04:58Z</time>
      </trkpt>
      <trkpt lat="44.95639" lon="5.68597">
        <ele>578</ele>
        <time>2010-04-30T15:05:05Z</time>
      </trkpt>
      <trkpt lat="44.95646" lon="5.68616">
        <ele>582</ele>
        <time>2010-04-30T15:05:11Z</time>
      </trkpt>
      <trkpt lat="44.95669" lon="5.68633">
        <ele>581</ele>
        <time>2010-04-30T15:05:19Z</time>
      </trkpt>
      <trkpt lat="44.95696" lon="5.6865">
        <ele>578</ele>
        <time>2010-04-30T15:05:29Z</time>
      </trkpt>
      <trkpt lat="44.95721" lon="5.68673">
        <ele>581</ele>
        <time>2010-04-30T15:05:40Z</time>
      </trkpt>
      <trkpt lat="44.95742" lon="5.68688">
        <ele>584</ele>
        <time>2010-04-30T15:05:49Z</time>
      </trkpt>
      <trkpt lat="44.9576" lon="5.68696">
        <ele>586</ele>
        <time>2010-04-30T15:05:57Z</time>
      </trkpt>
      <trkpt lat="44.95777" lon="5.68703">
        <ele>587</ele>
        <time>2010-04-30T15:06:04Z</time>
      </trkpt>
      <trkpt lat="44.958" lon="5.6871">
        <ele>587</ele>
        <time>2010-04-30T15:06:13Z</time>
      </trkpt>
      <trkpt lat="44.95824" lon="5.68714">
        <ele>586</ele>
        <time>2010-04-30T15:06:23Z</time>
      </trkpt>
      <trkpt lat="44.95845" lon="5.68723">
        <ele>588</ele>
        <time>2010-04-30T15:06:32Z</time>
      </trkpt>
      <trkpt lat="44.95861" lon="5.68735">
        <ele>590</ele>
        <time>2010-04-30T15:06:40Z</time>
      </trkpt>
      <trkpt lat="44.95877" lon="5.68748">
        <ele>593</ele>
        <time>2010-04-30T15:06:47Z</time>
      </trkpt>
      <trkpt lat="44.95898" lon="5.68759">
        <ele>594</ele>
        <time>2010-04-30T15:06:57Z</time>
      </trkpt>
      <trkpt lat="44.95919" lon="5.68763">
        <ele>596</ele>
        <time>2010-04-30T15:07:06Z</time>
      </trkpt>
      <trkpt lat="44.9594" lon="5.6877">
        <ele>600</ele>
        <time>2010-04-30T15:07:16Z</time>
      </trkpt>
      <trkpt lat="44.95947" lon="5.68772">
        <ele>600</ele>
        <time>2010-04-30T15:07:22Z</time>
      </trkpt>
      <trkpt lat="44.95947" lon="5.68772">
        <ele>600</ele>
        <time>2010-04-30T15:07:23Z</time>
      </trkpt>
    </trkseg>
  </trk>
</gpx>